Detalle de ayer:

24/4/19
Time         Wind Dir  Wind Gust   Humidity       Temp   Tot Rain Wind Chill Heat Index  Dew Point   Barom SL Temp Out H Temp Out L  DailyRain   HourRain   24HrRain   RainRate   Wind Run   Deg Heat   Deg Cool  MonthRain
                          km/hr          %         C         mm         C         C         C         mb         C         C         mm         mm         mm      mm/hr         km         C         C         mm
0:00              257        4.8         80       10.4      108.8       10.4       12.7        7.1     1007.4       10.4       10.4        0.0        0.0        8.8       0.00      200.7       5.16       0.00       60.4
0:02              257        3.2         80       10.4      108.8       10.4       12.7        7.1     1007.4       10.4       10.4        0.0        0.0        8.8       0.00        0.1       0.08       0.00       60.4
0:04              257        3.2         80       10.3      108.8       10.3       12.7        7.0     1007.4       10.4       10.3        0.0        0.0        8.8       0.00        0.2       0.08       0.00       60.4
0:06              257        4.8         80       10.3      108.8       10.3       12.6        7.0     1007.5       10.4       10.3        0.0        0.0        8.8       0.00        0.3       0.08       0.00       60.4
0:08              257        4.8         81       10.3      108.8       10.3       12.7        7.2     1007.5       10.4       10.3        0.0        0.0        8.8       0.00        0.4       0.08       0.00       60.4
0:10              257        6.4         81       10.2      108.8       10.2       12.6        7.1     1007.5       10.4       10.2        0.0        0.0        8.8       0.00        0.5       0.08       0.00       60.4
0:12              257        4.8         81       10.2      108.8       10.2       12.6        7.1     1007.4       10.4       10.2        0.0        0.0        8.8       0.00        0.6       0.08       0.00       60.4
0:14              257        4.8         81       10.2      108.8       10.2       12.6        7.1     1007.5       10.4       10.2        0.0        0.0        8.8       0.00        0.7       0.08       0.00       60.4
0:16              257        3.2         81       10.2      108.8       10.2       12.6        7.1     1007.5       10.4       10.2        0.0        0.0        8.8       0.00        0.8       0.16       0.00       60.4
0:18              257        4.8         82       10.2      108.8       10.2       12.7        7.2     1007.5       10.4       10.1        0.0        0.0        8.8       0.00        0.9       0.16       0.00       60.4
0:20              256        4.8         82       10.1      108.8       10.1       12.6        7.2     1007.5       10.4       10.1        0.0        0.0        8.8       0.00        1.0       0.16       0.00       60.4
0:22              257        4.8         82       10.1      108.8       10.1       12.6        7.2     1007.5       10.4       10.1        0.0        0.0        8.8       0.00        1.1       0.16       0.00       60.4
0:24              257        4.8         82       10.1      108.8       10.1       12.6        7.2     1007.6       10.4       10.1        0.0        0.0        8.8       0.00        1.2       0.16       0.00       60.4
0:26              257        6.4         82       10.1      108.8       10.1       12.6        7.2     1007.5       10.4       10.1        0.0        0.0        8.8       0.00        1.4       0.16       0.00       60.4
0:28              256        3.2         82       10.1      108.8       10.1       12.6        7.2     1007.5       10.4       10.1        0.0        0.0        8.8       0.00        1.5       0.16       0.00       60.4
0:30              256        4.8         82       10.1      108.8       10.1       12.6        7.2     1007.5       10.4       10.1        0.0        0.0        8.8       0.00        1.6       0.16       0.00       60.4
0:32              257        3.2         82       10.1      108.8       10.1       12.6        7.2     1007.5       10.4       10.1        0.0        0.0        8.8       0.00        1.7       0.24       0.00       60.4
0:34              257        4.8         82       10.1      108.8       10.1       12.6        7.2     1007.5       10.4       10.1        0.0        0.0        8.8       0.00        1.8       0.24       0.00       60.4
0:36              257        4.8         82       10.1      108.8       10.1       12.6        7.1     1007.5       10.4       10.1        0.0        0.0        8.8       0.00        1.9       0.24       0.00       60.4
0:38              257        4.8         82       10.1      108.8       10.1       12.6        7.1     1007.5       10.4       10.1        0.0        0.0        8.8       0.00        2.0       0.24       0.00       60.4
0:40              257        4.8         82       10.1      108.8       10.1       12.6        7.1     1007.5       10.4       10.1        0.0        0.0        8.8       0.00        2.1       0.24       0.00       60.4
0:42              257        4.8         82       10.1      108.8       10.1       12.6        7.2     1007.6       10.4       10.1        0.0        0.0        8.8       0.00        2.3       0.24       0.00       60.4
0:44              257        4.8         82       10.1      108.8       10.1       12.6        7.2     1007.6       10.4       10.1        0.0        0.0        8.8       0.00        2.4       0.24       0.00       60.4
0:46              256        4.8         82       10.1      108.8       10.1       12.6        7.2     1007.6       10.4       10.1        0.0        0.0        8.8       0.00        2.5       0.32       0.00       60.4
0:48              257        3.2         82       10.1      108.8       10.1       12.6        7.2     1007.6       10.4       10.1        0.0        0.0        8.8       0.00        2.6       0.32       0.00       60.4
0:50              257        3.2         82       10.1      108.8       10.1       12.6        7.2     1007.6       10.4       10.1        0.0        0.0        8.8       0.00        2.7       0.32       0.00       60.4
0:52              256        4.8         82       10.1      108.8       10.1       12.6        7.2     1007.6       10.4       10.1        0.0        0.0        8.8       0.00        2.8       0.32       0.00       60.4
0:54              257        4.8         82       10.1      108.8       10.1       12.6        7.2     1007.6       10.4       10.1        0.0        0.0        8.8       0.00        2.9       0.32       0.00       60.4
0:56              256        3.2         82       10.1      108.8       10.1       12.6        7.2     1007.5       10.4       10.1        0.0        0.0        8.8       0.00        3.0       0.32       0.00       60.4
0:58              256        4.8         82       10.1      108.8       10.1       12.6        7.2     1007.6       10.4       10.1        0.0        0.0        8.8       0.00        3.1       0.32       0.00       60.4
1:00              256        4.8         82       10.1      108.8       10.1       12.6        7.2     1007.5       10.4       10.1        0.0        0.0        8.8       0.00        3.2       0.32       0.00       60.4
1:02              256        4.8         82       10.1      108.8       10.1       12.6        7.1     1007.6       10.4       10.1        0.0        0.0        8.8       0.00        3.4       0.41       0.00       60.4
1:04              256        1.6         82       10.1      108.8       10.1       12.6        7.1     1007.5       10.4       10.1        0.0        0.0        8.8       0.00        3.4       0.41       0.00       60.4
1:06              256        3.2         82       10.0      108.8       10.0       12.5        7.1     1007.5       10.4       10.0        0.0        0.0        8.8       0.00        3.5       0.41       0.00       60.4
1:08              256        3.2         83       10.0      108.8       10.0       12.6        7.2     1007.6       10.4       10.0        0.0        0.0        8.8       0.00        3.6       0.41       0.00       60.4
1:10              256        4.8         83       10.0      108.8       10.0       12.6        7.2     1007.5       10.4       10.0        0.0        0.0        8.8       0.00        3.6       0.41       0.00       60.4
1:12              256        3.2         83       10.0      108.8       10.0       12.6        7.2     1007.4       10.4       10.0        0.0        0.0        8.8       0.00        3.7       0.41       0.00       60.4
1:14              256        3.2         83       10.0      108.8       10.0       12.6        7.2     1007.5       10.4        9.9        0.0        0.0        8.8       0.00        3.8       0.41       0.00       60.4
1:16              256        0.0         83        9.9      108.8        9.9       12.5        7.2     1007.5       10.4        9.9        0.0        0.0        8.8       0.00        3.8       0.49       0.00       60.4
1:18              256        0.0         83        9.9      108.8        9.9       12.5        7.2     1007.4       10.4        9.9        0.0        0.0        8.8       0.00        3.8       0.49       0.00       60.4
1:20              256        0.0         83        9.9      108.8        9.9       12.5        7.2     1007.5       10.4        9.9        0.0        0.0        8.8       0.00        3.8       0.49       0.00       60.4
1:22              256        0.0         83        9.9      108.8        9.9       12.5        7.2     1007.5       10.4        9.9        0.0        0.0        8.8       0.00        3.8       0.49       0.00       60.4
1:24              256        0.0         83        9.9      108.8        9.9       12.5        7.2     1007.5       10.4        9.9        0.0        0.0        8.8       0.00        3.8       0.49       0.00       60.4
1:26              256        0.0         83        9.9      108.8        9.9       12.5        7.2     1007.4       10.4        9.9        0.0        0.0        8.8       0.00        3.8       0.49       0.00       60.4
1:28              256        0.0         83        9.9      108.8        9.9       12.5        7.2     1007.5       10.4        9.9        0.0        0.0        8.8       0.00        3.8       0.49       0.00       60.4
1:30              256        0.0         84       10.0      108.8       10.0       12.7        7.4     1007.4       10.4        9.9        0.0        0.0        8.8       0.00        3.8       0.49       0.00       60.4
1:32              256        0.0         84       10.0      108.8       10.0       12.7        7.4     1007.4       10.4        9.9        0.0        0.0        8.8       0.00        3.8       0.57       0.00       60.4
1:34              256        0.0         83       10.0      108.8       10.0       12.6        7.2     1007.4       10.4        9.9        0.0        0.0        8.8       0.00        3.8       0.57       0.00       60.4
1:36              256        0.0         83       10.0      108.8       10.0       12.6        7.2     1007.3       10.4        9.9        0.0        0.0        8.8       0.00        3.8       0.57       0.00       60.4
1:38              256        0.0         83       10.0      108.8       10.0       12.6        7.2     1007.3       10.4        9.9        0.0        0.0        8.8       0.00        3.8       0.57       0.00       60.4
1:40              256        0.0         84       10.0      108.8       10.0       12.7        7.4     1007.4       10.4        9.9        0.0        0.0        8.8       0.00        3.8       0.57       0.00       60.4
1:42              256        0.0         83       10.0      108.8       10.0       12.6        7.2     1007.3       10.4        9.9        0.0        0.0        8.8       0.00        3.8       0.57       0.00       60.4
1:44              256        0.0         84       10.0      108.8       10.0       12.7        7.4     1007.3       10.4        9.9        0.0        0.0        8.8       0.00        3.8       0.57       0.00       60.4
1:46              256        0.0         84       10.0      108.8       10.0       12.7        7.4     1007.3       10.4        9.9        0.0        0.0        8.2       0.00        3.8       0.66       0.00       60.4
1:48              256        0.0         84       10.0      108.8       10.0       12.7        7.4     1007.2       10.4        9.9        0.0        0.0        8.2       0.00        3.8       0.66       0.00       60.4
1:50              256        0.0         84       10.0      108.8       10.0       12.7        7.4     1007.3       10.4        9.9        0.0        0.0        8.2       0.00        3.8       0.66       0.00       60.4
1:52              256        0.0         84       10.0      108.8       10.0       12.7        7.4     1007.3       10.4        9.9        0.0        0.0        8.2       0.00        3.8       0.66       0.00       60.4
1:54              256        0.0         84       10.1      108.8       10.1       12.7        7.5     1007.4       10.4        9.9        0.0        0.0        8.2       0.00        3.8       0.66       0.00       60.4
1:56              256        0.0         84       10.1      108.8       10.1       12.7        7.5     1007.4       10.4        9.9        0.0        0.0        8.2       0.00        3.8       0.66       0.00       60.4
1:58              256        0.0         84       10.1      108.8       10.1       12.7        7.5     1007.4       10.4        9.9        0.0        0.0        8.2       0.00        3.8       0.66       0.00       60.4
2:00              256        0.0         83       10.1      108.8       10.1       12.6        7.3     1007.3       10.4        9.9        0.0        0.0        8.2       0.00        3.8       0.66       0.00       60.4
2:02              256        0.0         83       10.0      108.8       10.0       12.6        7.2     1007.3       10.4        9.9        0.0        0.0        8.0       0.00        3.8       0.74       0.00       60.4
2:04              256        0.0         83       10.0      108.8       10.0       12.6        7.2     1007.3       10.4        9.9        0.0        0.0        8.0       0.00        3.8       0.74       0.00       60.4
2:06              256        0.0         83       10.0      108.8       10.0       12.6        7.2     1007.3       10.4        9.9        0.0        0.0        8.0       0.00        3.8       0.74       0.00       60.4
2:08              256        0.0         83       10.0      108.8       10.0       12.6        7.2     1007.4       10.4        9.9        0.0        0.0        8.0       0.00        3.8       0.74       0.00       60.4
2:10              256        0.0         83       10.0      108.8       10.0       12.6        7.2     1007.3       10.4        9.9        0.0        0.0        8.0       0.00        3.8       0.74       0.00       60.4
2:12              256        0.0         83        9.9      108.8        9.9       12.5        7.2     1007.3       10.4        9.9        0.0        0.0        8.0       0.00        3.8       0.74       0.00       60.4
2:14              256        0.0         83        9.9      108.8        9.9       12.5        7.2     1007.3       10.4        9.9        0.0        0.0        8.0       0.00        3.8       0.74       0.00       60.4
2:16              256        0.0         83        9.9      108.8        9.9       12.5        7.2     1007.2       10.4        9.9        0.0        0.0        8.0       0.00        3.8       0.82       0.00       60.4
2:18              256        0.0         83        9.9      108.8        9.9       12.5        7.1     1007.4       10.4        9.9        0.0        0.0        8.0       0.00        3.8       0.82       0.00       60.4
2:20              256        0.0         83        9.9      108.8        9.9       12.5        7.1     1007.3       10.4        9.9        0.0        0.0        8.0       0.00        3.8       0.82       0.00       60.4
2:22              256        0.0         83        9.8      108.8        9.8       12.4        7.1     1007.2       10.4        9.8        0.0        0.0        8.0       0.00        3.8       0.82       0.00       60.4
2:24              256        0.0         83        9.8      108.8        9.8       12.4        7.1     1007.4       10.4        9.8        0.0        0.0        8.0       0.00        3.8       0.82       0.00       60.4
2:26              256        0.0         84        9.8      108.8        9.8       12.5        7.3     1007.3       10.4        9.8        0.0        0.0        8.0       0.00        3.8       0.82       0.00       60.4
2:28              256        0.0         84        9.8      108.8        9.8       12.4        7.2     1007.3       10.4        9.8        0.0        0.0        8.0       0.00        3.8       0.82       0.00       60.4
2:30              256        0.0         84        9.8      108.8        9.8       12.4        7.2     1007.4       10.4        9.8        0.0        0.0        8.0       0.00        3.8       0.82       0.00       60.4
2:32              256        0.0         84        9.8      108.8        9.8       12.4        7.2     1007.3       10.4        9.7        0.0        0.0        8.0       0.00        3.8       0.91       0.00       60.4
2:34              256        0.0         84        9.7      108.8        9.7       12.4        7.2     1007.4       10.4        9.7        0.0        0.0        8.0       0.00        3.8       0.91       0.00       60.4
2:36              256        0.0         84        9.7      108.8        9.7       12.3        7.1     1007.4       10.4        9.7        0.0        0.0        8.0       0.00        3.8       0.91       0.00       60.4
2:38              256        0.0         84        9.7      108.8        9.7       12.3        7.1     1007.3       10.4        9.7        0.0        0.0        8.0       0.00        3.8       0.91       0.00       60.4
2:40              256        0.0         84        9.6      108.8        9.6       12.3        7.0     1007.3       10.4        9.6        0.0        0.0        8.0       0.00        3.8       0.91       0.00       60.4
2:42              256        0.0         84        9.6      108.8        9.6       12.3        7.0     1007.3       10.4        9.6        0.0        0.0        8.0       0.00        3.8       0.91       0.00       60.4
2:44              256        0.0         84        9.6      108.8        9.6       12.2        7.0     1007.4       10.4        9.6        0.0        0.0        8.0       0.00        3.8       0.91       0.00       60.4
2:46              256        0.0         84        9.5      108.8        9.5       12.2        6.9     1007.3       10.4        9.5        0.0        0.0        6.4       0.00        3.8       1.00       0.00       60.4
2:48              256        0.0         84        9.5      108.8        9.5       12.2        6.9     1007.3       10.4        9.5        0.0        0.0        6.4       0.00        3.8       1.00       0.00       60.4
2:50              256        0.0         84        9.4      108.8        9.4       12.1        6.9     1007.2       10.4        9.4        0.0        0.0        6.4       0.00        3.8       1.00       0.00       60.4
2:52              256        0.0         84        9.4      108.8        9.4       12.1        6.9     1007.3       10.4        9.4        0.0        0.0        6.4       0.00        3.8       1.00       0.00       60.4
2:54              256        0.0         84        9.4      108.8        9.4       12.0        6.8     1007.2       10.4        9.4        0.0        0.0        6.4       0.00        3.8       1.00       0.00       60.4
2:56              256        0.0         84        9.4      108.8        9.4       12.0        6.8     1007.3       10.4        9.4        0.0        0.0        6.4       0.00        3.8       1.00       0.00       60.4
2:58              256        0.0         84        9.4      108.8        9.4       12.0        6.8     1007.2       10.4        9.3        0.0        0.0        6.4       0.00        3.8       1.00       0.00       60.4
3:00              256        0.0         85        9.3      108.8        9.3       12.1        6.9     1007.2       10.4        9.3        0.0        0.0        6.4       0.00        3.8       1.00       0.00       60.4
3:02              256        0.0         85        9.3      108.8        9.3       12.1        6.9     1007.2       10.4        9.3        0.0        0.0        6.0       0.00        3.8       1.09       0.00       60.4
3:04              256        0.0         85        9.3      108.8        9.3       12.1        6.9     1007.3       10.4        9.3        0.0        0.0        6.0       0.00        3.8       1.09       0.00       60.4
3:06              256        0.0         85        9.3      108.8        9.3       12.1        6.9     1007.3       10.4        9.3        0.0        0.0        6.0       0.00        3.8       1.09       0.00       60.4
3:08              256        0.0         85        9.3      108.8        9.3       12.1        6.9     1007.2       10.4        9.3        0.0        0.0        6.0       0.00        3.8       1.09       0.00       60.4
3:10              256        0.0         85        9.3      108.8        9.3       12.1        6.9     1007.2       10.4        9.3        0.0        0.0        6.0       0.00        3.8       1.09       0.00       60.4
3:12              256        0.0         85        9.3      108.8        9.3       12.1        6.9     1007.2       10.4        9.3        0.0        0.0        6.0       0.00        3.8       1.09       0.00       60.4
3:14              256        0.0         86        9.3      108.8        9.3       12.1        7.1     1007.2       10.4        9.3        0.0        0.0        6.0       0.00        3.8       1.09       0.00       60.4
3:16              256        0.0         86        9.3      108.8        9.3       12.1        7.1     1007.3       10.4        9.3        0.0        0.0        4.4       0.00        3.8       1.18       0.00       60.4
3:18              256        0.0         86        9.3      108.8        9.3       12.1        7.1     1007.3       10.4        9.3        0.0        0.0        4.4       0.00        3.8       1.18       0.00       60.4
3:20              256        0.0         86        9.3      108.8        9.3       12.1        7.1     1007.3       10.4        9.3        0.0        0.0        4.4       0.00        3.8       1.18       0.00       60.4
3:22              256        0.0         86        9.3      108.8        9.3       12.1        7.1     1007.2       10.4        9.3        0.0        0.0        4.4       0.00        3.8       1.18       0.00       60.4
3:24              256        0.0         86        9.3      108.8        9.3       12.1        7.1     1007.2       10.4        9.3        0.0        0.0        4.4       0.00        3.8       1.18       0.00       60.4
3:26              256        0.0         86        9.3      108.8        9.3       12.1        7.1     1007.2       10.4        9.3        0.0        0.0        4.4       0.00        3.8       1.18       0.00       60.4
3:28              256        0.0         86        9.3      108.8        9.3       12.1        7.1     1007.3       10.4        9.3        0.0        0.0        4.4       0.00        3.8       1.18       0.00       60.4
3:30              256        0.0         86        9.3      108.8        9.3       12.1        7.1     1007.2       10.4        9.3        0.0        0.0        4.4       0.00        3.8       1.18       0.00       60.4
3:32              256        0.0         86        9.3      108.8        9.3       12.1        7.1     1007.2       10.4        9.3        0.0        0.0        3.8       0.00        3.8       1.27       0.00       60.4
3:34              256        0.0         87        9.3      108.8        9.3       12.2        7.3     1007.3       10.4        9.3        0.0        0.0        3.8       0.00        3.8       1.27       0.00       60.4
3:36              256        0.0         87        9.4      108.8        9.4       12.3        7.3     1007.3       10.4        9.3        0.0        0.0        3.8       0.00        3.8       1.27       0.00       60.4
3:38              256        0.0         87        9.4      108.8        9.4       12.3        7.3     1007.2       10.4        9.3        0.0        0.0        3.8       0.00        3.8       1.27       0.00       60.4
3:40              256        0.0         87        9.4      108.8        9.4       12.3        7.4     1007.3       10.4        9.3        0.0        0.0        3.8       0.00        3.8       1.27       0.00       60.4
3:42              256        0.0         87        9.4      108.8        9.4       12.3        7.4     1007.3       10.4        9.3        0.0        0.0        3.8       0.00        3.8       1.27       0.00       60.4
3:44              256        0.0         87        9.4      108.8        9.4       12.3        7.4     1007.3       10.4        9.3        0.0        0.0        3.8       0.00        3.8       1.27       0.00       60.4
3:46              256        0.0         87        9.4      108.8        9.4       12.3        7.4     1007.2       10.4        9.3        0.0        0.0        3.2       0.00        3.8       1.36       0.00       60.4
3:48              256        0.0         87        9.4      108.8        9.4       12.3        7.4     1007.3       10.4        9.3        0.0        0.0        3.2       0.00        3.8       1.36       0.00       60.4
3:50              256        0.0         87        9.5      108.8        9.5       12.4        7.4     1007.3       10.4        9.3        0.0        0.0        3.2       0.00        3.8       1.36       0.00       60.4
3:52              256        0.0         87        9.5      108.8        9.5       12.4        7.4     1007.3       10.4        9.3        0.0        0.0        3.2       0.00        3.8       1.36       0.00       60.4
3:54              256        0.0         87        9.5      108.8        9.5       12.4        7.4     1007.3       10.4        9.3        0.0        0.0        3.2       0.00        3.8       1.36       0.00       60.4
3:56              256        0.0         87        9.4      108.8        9.4       12.3        7.4     1007.2       10.4        9.3        0.0        0.0        3.2       0.00        3.8       1.36       0.00       60.4
3:58              256        0.0         87        9.4      108.8        9.4       12.3        7.4     1007.2       10.4        9.3        0.0        0.0        3.2       0.00        3.8       1.36       0.00       60.4
4:00              256        0.0         87        9.4      108.8        9.4       12.3        7.4     1007.2       10.4        9.3        0.0        0.0        3.2       0.00        3.8       1.36       0.00       60.4
4:02              256        0.0         87        9.4      108.8        9.4       12.3        7.4     1007.2       10.4        9.3        0.0        0.0        2.2       0.00        3.8       1.45       0.00       60.4
4:04              256        0.0         87        9.4      108.8        9.4       12.3        7.4     1007.2       10.4        9.3        0.0        0.0        2.2       0.00        3.8       1.45       0.00       60.4
4:06              256        0.0         87        9.4      108.8        9.4       12.3        7.4     1007.2       10.4        9.3        0.0        0.0        2.2       0.00        3.8       1.45       0.00       60.4
4:08              256        0.0         87        9.4      108.8        9.4       12.3        7.4     1007.3       10.4        9.3        0.0        0.0        2.2       0.00        3.8       1.45       0.00       60.4
4:10              256        0.0         87        9.4      108.8        9.4       12.3        7.4     1007.2       10.4        9.3        0.0        0.0        2.2       0.00        3.8       1.45       0.00       60.4
4:12              256        0.0         87        9.4      108.8        9.4       12.3        7.3     1007.2       10.4        9.3        0.0        0.0        2.2       0.00        3.8       1.45       0.00       60.4
4:14              256        0.0         87        9.4      108.8        9.4       12.3        7.3     1007.3       10.4        9.3        0.0        0.0        2.2       0.00        3.8       1.45       0.00       60.4
4:16              256        0.0         87        9.4      108.8        9.4       12.3        7.3     1007.2       10.4        9.3        0.0        0.0        1.0       0.00        3.8       1.54       0.00       60.4
4:18              256        0.0         88        9.4      108.8        9.4       12.4        7.5     1007.2       10.4        9.3        0.0        0.0        1.0       0.00        3.8       1.54       0.00       60.4
4:20              256        0.0         88        9.4      108.8        9.4       12.4        7.5     1007.3       10.4        9.3        0.0        0.0        1.0       0.00        3.8       1.54       0.00       60.4
4:22              256        0.0         88        9.4      108.8        9.4       12.4        7.6     1007.3       10.4        9.3        0.0        0.0        1.0       0.00        3.8       1.54       0.00       60.4
4:24              256        0.0         88        9.4      108.8        9.4       12.4        7.6     1007.2       10.4        9.3        0.0        0.0        1.0       0.00        3.8       1.54       0.00       60.4
4:26              256        0.0         88        9.5      108.8        9.5       12.5        7.6     1007.2       10.4        9.3        0.0        0.0        1.0       0.00        3.8       1.54       0.00       60.4
4:28              256        0.0         88        9.5      108.8        9.5       12.5        7.6     1007.2       10.4        9.3        0.0        0.0        1.0       0.00        3.8       1.54       0.00       60.4
4:30              256        0.0         88        9.5      108.8        9.5       12.5        7.6     1007.2       10.4        9.3        0.0        0.0        1.0       0.00        3.8       1.54       0.00       60.4
4:32              256        0.0         88        9.6      108.8        9.6       12.5        7.7     1007.2       10.4        9.3        0.0        0.0        0.8       0.00        3.8       1.62       0.00       60.4
4:34              256        0.0         88        9.6      108.8        9.6       12.5        7.7     1007.2       10.4        9.3        0.0        0.0        0.8       0.00        3.8       1.62       0.00       60.4
4:36              256        0.0         88        9.6      108.8        9.6       12.6        7.7     1007.3       10.4        9.3        0.0        0.0        0.8       0.00        3.8       1.62       0.00       60.4
4:38              256        0.0         88        9.6      108.8        9.6       12.6        7.7     1007.3       10.4        9.3        0.0        0.0        0.8       0.00        3.8       1.62       0.00       60.4
4:40              256        0.0         88        9.6      108.8        9.6       12.6        7.7     1007.3       10.4        9.3        0.0        0.0        0.8       0.00        3.8       1.62       0.00       60.4
4:42              256        0.0         88        9.6      108.8        9.6       12.6        7.7     1007.3       10.4        9.3        0.0        0.0        0.8       0.00        3.8       1.62       0.00       60.4
4:44              256        0.0         89        9.6      108.8        9.6       12.7        7.9     1007.4       10.4        9.3        0.0        0.0        0.8       0.00        3.8       1.62       0.00       60.4
4:46              256        0.0         89        9.7      108.8        9.7       12.7        7.9     1007.4       10.4        9.3        0.0        0.0        0.8       0.00        3.8       1.71       0.00       60.4
4:48              256        0.0         89        9.7      108.8        9.7       12.7        7.9     1007.4       10.4        9.3        0.0        0.0        0.8       0.00        3.8       1.71       0.00       60.4
4:50              254        6.4         89        9.7      108.8        9.7       12.8        8.0     1007.4       10.4        9.3        0.0        0.0        0.8       0.00        3.8       1.71       0.00       60.4
4:52              250        4.8         89        9.7      108.8        9.7       12.8        8.0     1007.4       10.4        9.3        0.0        0.0        0.8       0.00        4.0       1.71       0.00       60.4
4:54              236        6.4         89        9.8      108.8        9.8       12.8        8.1     1007.4       10.4        9.3        0.0        0.0        0.8       0.00        4.1       1.71       0.00       60.4
4:56              210        3.2         89        9.8      108.8        9.8       12.9        8.1     1007.4       10.4        9.3        0.0        0.0        0.8       0.00        4.2       1.71       0.00       60.4
4:58              198        6.4         89        9.8      108.8        9.8       12.9        8.1     1007.4       10.4        9.3        0.0        0.0        0.8       0.00        4.3       1.71       0.00       60.4
5:00              204        6.4         89        9.9      108.8        9.9       12.9        8.2     1007.3       10.4        9.3        0.0        0.0        0.8       0.00        4.4       1.71       0.00       60.4
5:02              208        3.2         89        9.9      108.8        9.9       12.9        8.2     1007.3       10.4        9.3        0.0        0.0        0.8       0.00        4.6       1.80       0.00       60.4
5:04              196        8.0         89        9.9      108.8        9.9       13.0        8.2     1007.3       10.4        9.3        0.0        0.0        0.8       0.00        4.7       1.80       0.00       60.4
5:06              200        6.4         89       10.0      108.8       10.0       13.1        8.3     1007.2       10.4        9.3        0.0        0.0        0.8       0.00        4.9       1.80       0.00       60.4
5:08              206        6.4         89       10.0      108.8       10.0       13.1        8.3     1007.2       10.4        9.3        0.0        0.0        0.8       0.00        5.0       1.80       0.00       60.4
5:10              211       11.3         89       10.1      108.8       10.1       13.1        8.3     1007.3       10.4        9.3        0.0        0.0        0.8       0.00        5.2       1.80       0.00       60.4
5:12              214        6.4         89       10.1      108.8       10.1       13.1        8.3     1007.2       10.4        9.3        0.0        0.0        0.8       0.00        5.4       1.80       0.00       60.4
5:14              215        6.4         89       10.1      108.8       10.1       13.1        8.3     1007.2       10.4        9.3        0.0        0.0        0.8       0.00        5.6       1.80       0.00       60.4
5:16              216        6.4         88       10.1      108.8       10.1       13.0        8.2     1007.3       10.4        9.3        0.0        0.0        0.8       0.00        5.7       1.88       0.00       60.4
5:18              216        8.0         88       10.1      108.8        8.8       13.0        8.2     1007.3       10.4        9.3        0.0        0.0        0.8       0.00        5.9       1.88       0.00       60.4
5:20              216        6.4         88       10.0      108.8       10.0       13.0        8.1     1007.2       10.4        9.3        0.0        0.0        0.8       0.00        6.0       1.88       0.00       60.4
5:22              216        4.8         88       10.0      108.8       10.0       13.0        8.1     1007.3       10.4        9.3        0.0        0.0        0.8       0.00        6.1       1.88       0.00       60.4
5:24              216        3.2         88       10.0      108.8       10.0       13.0        8.1     1007.3       10.4        9.3        0.0        0.0        0.8       0.00        6.2       1.88       0.00       60.4
5:26              215        4.8         88       10.0      108.8       10.0       13.0        8.1     1007.3       10.4        9.3        0.0        0.0        0.8       0.00        6.3       1.88       0.00       60.4
5:28              215        4.8         88        9.9      108.8        9.9       12.9        8.1     1007.3       10.4        9.3        0.0        0.0        0.8       0.00        6.4       1.88       0.00       60.4
5:30              215        6.4         88        9.9      108.8        9.9       12.9        8.1     1007.3       10.4        9.3        0.0        0.0        0.8       0.00        6.5       1.88       0.00       60.4
5:32              215        4.8         88        9.9      108.8        9.9       12.9        8.1     1007.3       10.4        9.3        0.0        0.0        0.8       0.00        6.6       1.96       0.00       60.4
5:34              215        6.4         88        9.9      108.8        9.9       12.9        8.0     1007.4       10.4        9.3        0.0        0.0        0.8       0.00        6.7       1.96       0.00       60.4
5:36              213        4.8         88        9.9      108.8        9.9       12.9        8.0     1007.4       10.4        9.3        0.0        0.0        0.8       0.00        6.8       1.96       0.00       60.4
5:38              213        3.2         88        9.9      108.8        9.9       12.9        8.0     1007.5       10.4        9.3        0.0        0.0        0.8       0.00        6.9       1.96       0.00       60.4
5:40              213        4.8         88        9.9      108.8        9.9       12.9        8.1     1007.4       10.4        9.3        0.0        0.0        0.8       0.00        7.1       1.96       0.00       60.4
5:42              213        4.8         88        9.9      108.8        9.9       12.9        8.1     1007.5       10.4        9.3        0.0        0.0        0.8       0.00        7.2       1.96       0.00       60.4
5:44              213        3.2         88        9.9      108.8        9.9       12.9        8.1     1007.5       10.4        9.3        0.0        0.0        0.8       0.00        7.3       1.96       0.00       60.4
5:46              213        4.8         89        9.9      108.8        9.9       13.0        8.2     1007.5       10.4        9.3        0.0        0.0        0.8       0.00        7.5       2.05       0.00       60.4
5:48              211        8.0         89       10.0      108.8       10.0       13.1        8.3     1007.5       10.4        9.3        0.0        0.0        0.8       0.00        7.6       2.05       0.00       60.4
5:50              206        4.8         89       10.1      108.8       10.1       13.1        8.3     1007.6       10.4        9.3        0.0        0.0        0.8       0.00        7.8       2.05       0.00       60.4
5:52              202        8.0         89       10.1      108.8       10.1       13.1        8.3     1007.6       10.4        9.3        0.0        0.0        0.8       0.00        7.9       2.05       0.00       60.4
5:54              193        9.7         89       10.1      108.8       10.1       13.2        8.4     1007.6       10.4        9.3        0.0        0.0        0.8       0.00        8.1       2.05       0.00       60.4
5:56              184        8.0         89       10.1      108.8       10.1       13.2        8.4     1007.6       10.4        9.3        0.0        0.0        0.8       0.00        8.2       2.05       0.00       60.4
5:58              187        6.4         89       10.2      108.8       10.2       13.2        8.4     1007.6       10.4        9.3        0.0        0.0        0.8       0.00        8.4       2.05       0.00       60.4
6:00              186        6.4         89       10.3      108.8       10.3       13.3        8.5     1007.7       10.4        9.3        0.0        0.0        0.8       0.00        8.6       2.05       0.00       60.4
6:02              184        8.0         89       10.3      108.8       10.3       13.3        8.5     1007.7       10.4        9.3        0.0        0.0        0.8       0.00        8.8       2.13       0.00       60.4
6:04              187        6.4         89       10.3      108.8       10.3       13.4        8.6     1007.7       10.4        9.3        0.0        0.0        0.8       0.00        9.0       2.13       0.00       60.4
6:06              190        6.4         89       10.4      108.8       10.4       13.4        8.7     1007.7       10.4        9.3        0.0        0.0        0.8       0.00        9.1       2.13       0.00       60.4
6:08              189        8.0         89       10.4      108.8       10.4       13.4        8.7     1007.7       10.4        9.3        0.0        0.0        0.8       0.00        9.3       2.13       0.00       60.4
6:10              188        9.7         89       10.4      108.8       10.4       13.5        8.7     1007.7       10.4        9.3        0.0        0.0        0.8       0.00        9.5       2.13       0.00       60.4
6:12              188        4.8         89       10.5      108.8       10.5       13.6        8.8     1007.7       10.5        9.3        0.0        0.0        0.8       0.00        9.6       2.13       0.00       60.4
6:14              189        9.7         89       10.5      108.8       10.5       13.6        8.8     1007.7       10.5        9.3        0.0        0.0        0.8       0.00        9.7       2.13       0.00       60.4
6:16              194        6.4         89       10.6      108.8       10.6       13.6        8.8     1007.7       10.6        9.3        0.0        0.0        0.8       0.00        9.9       2.20       0.00       60.4
6:18              197        8.0         89       10.6      108.8       10.6       13.6        8.8     1007.7       10.6        9.3        0.0        0.0        0.8       0.00       10.1       2.20       0.00       60.4
6:20              198        8.0         89       10.6      108.8       10.6       13.7        8.9     1007.8       10.6        9.3        0.0        0.0        0.8       0.00       10.3       2.20       0.00       60.4
6:22              197        9.7         89       10.7      108.8       10.7       13.8        9.0     1007.8       10.7        9.3        0.0        0.0        0.8       0.00       10.4       2.20       0.00       60.4
6:24              196        4.8         89       10.7      108.8       10.7       13.8        9.0     1007.8       10.7        9.3        0.0        0.0        0.8       0.00       10.6       2.20       0.00       60.4
6:26              193        9.7         89       10.8      108.8        8.7       13.8        9.0     1007.8       10.8        9.3        0.0        0.0        0.8       0.00       10.7       2.20       0.00       60.4
6:28              191        6.4         89       10.8      108.8       10.8       13.9        9.1     1007.8       10.8        9.3        0.0        0.0        0.8       0.00       10.9       2.20       0.00       60.4
6:30              192        3.2         89       10.8      108.8       10.8       13.9        9.1     1008.0       10.8        9.3        0.0        0.0        0.8       0.00       11.1       2.20       0.00       60.4
6:32              192        8.0         88       10.9      108.8        9.7       13.9        9.0     1008.0       10.9        9.3        0.0        0.0        0.8       0.00       11.2       2.28       0.00       60.4
6:34              197        9.7         88       10.9      108.8       10.9       13.9        9.0     1008.1       10.9        9.3        0.0        0.0        0.8       0.00       11.3       2.28       0.00       60.4
6:36              197        4.8         88       10.9      108.8       10.9       13.9        9.0     1008.1       10.9        9.3        0.0        0.0        0.8       0.00       11.5       2.28       0.00       60.4
6:38              198        6.4         88       11.0      108.8       11.0       14.0        9.1     1008.1       11.0        9.3        0.0        0.0        0.8       0.00       11.7       2.28       0.00       60.4
6:40              197        9.7         88       11.0      108.8       11.0       14.0        9.1     1008.2       11.0        9.3        0.0        0.0        0.8       0.00       11.8       2.28       0.00       60.4
6:42              197        8.0         88       11.1      108.8       11.1       14.0        9.1     1008.2       11.1        9.3        0.0        0.0        0.8       0.00       12.0       2.28       0.00       60.4
6:44              195        8.0         88       11.1      108.8       11.1       14.1        9.2     1008.2       11.1        9.3        0.0        0.0        0.8       0.00       12.2       2.28       0.00       60.4
6:46              186        6.4         88       11.1      108.8       11.1       14.1        9.2     1008.2       11.1        9.3        0.0        0.0        0.8       0.00       12.4       2.35       0.00       60.4
6:48              178        9.7         88       11.2      108.8       11.2       14.1        9.3     1008.3       11.2        9.3        0.0        0.0        0.8       0.00       12.6       2.35       0.00       60.4
6:50              179        9.7         88       11.2      108.8       11.2       14.1        9.3     1008.3       11.2        9.3        0.0        0.0        0.8       0.00       12.9       2.35       0.00       60.4
6:52              181        9.7         88       11.2      108.8        9.2       14.2        9.3     1008.4       11.2        9.3        0.0        0.0        0.8       0.00       13.1       2.35       0.00       60.4
6:54              182        9.7         88       11.2      108.8       10.0       14.2        9.3     1008.4       11.2        9.3        0.0        0.0        0.8       0.00       13.3       2.35       0.00       60.4
6:56              179        8.0         88       11.2      108.8       11.2       14.2        9.3     1008.4       11.2        9.3        0.0        0.0        0.8       0.00       13.6       2.35       0.00       60.4
6:58              179        1.6         88       11.2      108.8       11.2       14.2        9.3     1008.5       11.2        9.3        0.0        0.0        0.8       0.00       13.7       2.35       0.00       60.4
7:00              180        6.4         88       11.3      108.8       11.3       14.2        9.4     1008.4       11.3        9.3        0.0        0.0        0.8       0.00       13.8       2.35       0.00       60.4
7:02              197       11.3         88       11.3      108.8        9.3       14.2        9.4     1008.5       11.3        9.3        0.0        0.0        0.8       0.00       14.0       2.42       0.00       60.4
7:04              188        9.7         88       11.3      108.8       11.3       14.3        9.4     1008.5       11.3        9.3        0.0        0.0        0.8       0.00       14.3       2.42       0.00       60.4
7:06              184        8.0         88       11.3      108.8       10.1       14.3        9.4     1008.4       11.4        9.3        0.0        0.0        0.8       0.00       14.5       2.42       0.00       60.4
7:08              194        9.7         88       11.4      108.8       10.2       14.4        9.5     1008.4       11.4        9.3        0.0        0.0        0.8       0.00       14.7       2.42       0.00       60.4
7:10              203        8.0         88       11.4      108.8       11.4       14.4        9.5     1008.4       11.4        9.3        0.0        0.0        0.8       0.00       15.0       2.42       0.00       60.4
7:12              196        8.0         88       11.4      108.8       10.3       14.4        9.5     1008.5       11.4        9.3        0.0        0.0        0.8       0.00       15.2       2.42       0.00       60.4
7:14              193        6.4         88       11.5      108.8       11.5       14.5        9.6     1008.4       11.5        9.3        0.0        0.0        0.8       0.00       15.4       2.42       0.00       60.4
7:16              196        6.4         87       11.6      108.8       11.6       14.4        9.5     1008.4       11.6        9.3        0.0        0.0        0.8       0.00       15.6       2.49       0.00       60.4
7:18              198        8.0         87       11.6      108.8       11.6       14.5        9.5     1008.5       11.6        9.3        0.0        0.0        0.8       0.00       15.8       2.49       0.00       60.4
7:20              200       11.3         87       11.6      108.8       10.4       14.5        9.5     1008.5       11.6        9.3        0.0        0.0        0.8       0.00       16.0       2.49       0.00       60.4
7:22              205       11.3         87       11.7      108.8       11.7       14.6        9.6     1008.5       11.7        9.3        0.0        0.0        0.8       0.00       16.3       2.49       0.00       60.4
7:24              200        6.4         87       11.8      108.8       11.8       14.7        9.7     1008.4       11.8        9.3        0.0        0.0        0.8       0.00       16.5       2.49       0.00       60.4
7:26              194       12.9         87       11.8      108.8        9.9       14.7        9.7     1008.4       11.8        9.3        0.0        0.0        0.8       0.00       16.7       2.49       0.00       60.4
7:28              198       14.5         87       11.9      108.8       10.7       14.8        9.8     1008.4       11.9        9.3        0.0        0.0        0.8       0.00       17.0       2.49       0.00       60.4
7:30              201        4.8         87       11.9      108.8       11.9       14.8        9.9     1008.5       11.9        9.3        0.0        0.0        0.8       0.00       17.2       2.49       0.00       60.4
7:32              198        9.7         87       12.0      108.8       10.1       14.9        9.9     1008.5       12.0        9.3        0.0        0.0        0.8       0.00       17.3       2.55       0.00       60.4
7:34              182       17.7         87       12.1      108.8       12.1       15.0       10.0     1008.5       12.1        9.3        0.0        0.0        0.8       0.00       17.6       2.55       0.00       60.4
7:36              194        9.7         87       12.2      108.8       10.3       15.1       10.1     1008.6       12.2        9.3        0.0        0.0        0.8       0.00       17.9       2.55       0.00       60.4
7:38              195       14.5         86       12.2      108.8       12.2       15.0       10.0     1008.5       12.2        9.3        0.0        0.0        0.8       0.00       18.1       2.55       0.00       60.4
7:40              207       11.3         86       12.2      108.8       12.2       15.0       10.0     1008.4       12.2        9.3        0.0        0.0        0.8       0.00       18.4       2.55       0.00       60.4
7:42              204        9.7         86       12.3      108.8       11.2       15.1       10.1     1008.5       12.3        9.3        0.0        0.0        0.8       0.00       18.7       2.55       0.00       60.4
7:44              195        9.7         86       12.3      108.8       12.3       15.1       10.1     1008.5       12.3        9.3        0.0        0.0        0.8       0.00       19.0       2.55       0.00       60.4
7:46              199       11.3         86       12.4      108.8       12.4       15.2       10.1     1008.5       12.4        9.3        0.0        0.0        0.8       0.00       19.3       2.61       0.00       60.4
7:48              200        9.7         86       12.5      108.8       12.5       15.3       10.2     1008.5       12.5        9.3        0.0        0.0        0.8       0.00       19.5       2.61       0.00       60.4
7:50              216       12.9         86       12.6      108.8       11.4       15.4       10.3     1008.5       12.6        9.3        0.0        0.0        0.8       0.00       19.8       2.61       0.00       60.4
7:52              206       11.3         86       12.6      108.8       11.5       15.4       10.3     1008.5       12.6        9.3        0.0        0.0        0.8       0.00       20.1       2.61       0.00       60.4
7:54              199        9.7         86       12.7      108.8       10.9       15.5       10.4     1008.5       12.7        9.3        0.0        0.0        0.8       0.00       20.3       2.61       0.00       60.4
7:56              191       14.5         86       12.8      108.8       11.0       15.6       10.6     1008.4       12.8        9.3        0.0        0.0        0.8       0.00       20.6       2.61       0.00       60.4
7:58              197       14.5         86       12.9      108.8       11.1       15.8       10.7     1008.5       12.9        9.3        0.0        0.0        0.8       0.00       20.9       2.61       0.00       60.4
8:00              209       12.9         86       13.0      108.8       10.4       15.8       10.7     1008.5       13.0        9.3        0.0        0.0        0.8       0.00       21.1       2.61       0.00       60.4
8:02              187       11.3         85       13.1      108.8       13.1       15.8       10.6     1008.5       13.1        9.3        0.0        0.0        0.8       0.00       21.5       2.66       0.00       60.4
8:04              198       12.9         85       13.2      108.8       13.2       16.0       10.8     1008.5       13.2        9.3        0.0        0.0        0.8       0.00       21.7       2.66       0.00       60.4
8:06              199       11.3         85       13.3      108.8       11.5       16.1       10.9     1008.5       13.3        9.3        0.0        0.0        0.8       0.00       22.0       2.66       0.00       60.4
8:08              190       22.5         84       13.4      108.8       10.9       16.1       10.8     1008.4       13.4        9.3        0.0        0.0        0.8       0.00       22.4       2.66       0.00       60.4
8:10              195       17.7         84       13.6      108.8       10.3       16.2       10.9     1008.5       13.6        9.3        0.0        0.0        0.8       0.00       22.7       2.66       0.00       60.4
8:12              202       16.1         84       13.6      108.8       10.4       16.3       11.0     1008.5       13.6        9.3        0.0        0.0        0.8       0.00       23.1       2.66       0.00       60.4
8:14              202       14.5         83       13.7      108.8       10.5       16.3       10.9     1008.4       13.7        9.3        0.0        0.0        0.8       0.00       23.5       2.66       0.00       60.4
8:16              221       16.1         83       13.8      108.8       12.8       16.4       11.0     1008.5       13.8        9.3        0.0        0.0        0.8       0.00       24.0       2.71       0.00       60.4
8:18              205       14.5         83       13.9      108.8       12.9       16.5       11.1     1008.5       13.9        9.3        0.0        0.0        0.8       0.00       24.4       2.71       0.00       60.4
8:20              197       16.1         83       14.1      108.8       12.3       16.6       11.2     1008.5       14.1        9.3        0.0        0.0        0.8       0.00       24.7       2.71       0.00       60.4
8:22              213       14.5         83       14.2      108.8       11.0       16.7       11.3     1008.5       14.2        9.3        0.0        0.0        0.8       0.00       25.2       2.71       0.00       60.4
8:24              209       14.5         82       14.2      108.8       11.8       16.7       11.2     1008.5       14.2        9.3        0.0        0.0        0.8       0.00       25.5       2.71       0.00       60.4
8:26              191        9.7         82       14.3      108.8       12.6       16.8       11.3     1008.5       14.3        9.3        0.0        0.0        0.8       0.00       25.9       2.71       0.00       60.4
8:28              186       22.5         82       14.4      108.8       12.7       16.9       11.4     1008.5       14.4        9.3        0.0        0.0        0.8       0.00       26.2       2.71       0.00       60.4
8:30              182       16.1         82       14.5      108.8       10.1       17.0       11.5     1008.6       14.5        9.3        0.0        0.0        0.8       0.00       26.6       2.71       0.00       60.4
8:32              181       14.5         81       14.6      108.8       10.8       17.0       11.3     1008.6       14.6        9.3        0.0        0.0        0.8       0.00       27.0       2.74       0.00       60.4
8:34              186       22.5         81       14.6      108.8        9.5       17.0       11.4     1008.6       14.6        9.3        0.0        0.0        0.8       0.00       27.5       2.74       0.00       60.4
8:36              204       20.9         81       14.7      108.8       12.3       17.1       11.4     1008.6       14.7        9.3        0.0        0.0        0.8       0.00       28.0       2.74       0.00       60.4
8:38              217       20.9         80       14.7      108.8       11.0       17.1       11.3     1008.6       14.7        9.3        0.0        0.0        0.8       0.00       28.4       2.74       0.00       60.4
8:40              216       25.7         80       14.8      108.8        9.0       17.1       11.4     1008.5       14.8        9.3        0.0        0.0        0.8       0.00       28.8       2.74       0.00       60.4
8:42              180       27.4         80       14.8      108.8       11.8       17.2       11.4     1008.6       14.8        9.3        0.0        0.0        0.8       0.00       29.4       2.74       0.00       60.4
8:44              205       19.3         79       14.9      108.8       12.6       17.2       11.3     1008.5       14.9        9.3        0.0        0.0        0.8       0.00       29.9       2.74       0.00       60.4
8:46              167       22.5         79       14.9      108.8        9.8       17.2       11.3     1008.5       14.9        9.3        0.0        0.0        0.8       0.00       30.4       2.78       0.00       60.4
8:48              200       27.4         79       14.9      108.8       10.6       17.2       11.3     1008.5       14.9        9.3        0.0        0.0        0.8       0.00       30.9       2.78       0.00       60.4
8:50              217       16.1         78       15.0      108.8       15.0       17.2       11.2     1008.6       15.0        9.3        0.0        0.0        0.8       0.00       31.4       2.78       0.00       60.4
8:52              188       19.3         78       15.1      108.8       10.1       17.3       11.3     1008.6       15.1        9.3        0.0        0.0        0.8       0.00       31.8       2.78       0.00       60.4
8:54              206       25.7         78       15.1      108.8       13.5       17.3       11.3     1008.5       15.1        9.3        0.0        0.0        0.8       0.00       32.3       2.78       0.00       60.4
8:56              219       20.9         78       15.1      108.8       13.5       17.3       11.3     1008.6       15.1        9.3        0.0        0.0        0.8       0.00       32.8       2.78       0.00       60.4
8:58              202       17.7         77       15.2      108.8       12.9       17.3       11.2     1008.6       15.2        9.3        0.0        0.0        0.8       0.00       33.2       2.78       0.00       60.4
9:00              186       17.7         77       15.2      108.8       12.9       17.3       11.2     1008.5       15.2        9.3        0.0        0.0        0.8       0.00       33.6       2.78       0.00       60.4
9:02              224       16.1         76       15.2      108.8       11.0       17.3       11.0     1008.6       15.2        9.3        0.0        0.0        0.8       0.00       34.1       2.80       0.00       60.4
9:04              171       24.1         76       15.3      108.8       11.7       17.3       11.1     1008.6       15.3        9.3        0.0        0.0        0.8       0.00       34.7       2.80       0.00       60.4
9:06              222       24.1         75       15.3      108.8       10.7       17.3       10.9     1008.7       15.3        9.3        0.0        0.0        0.8       0.00       35.2       2.80       0.00       60.4
9:08              179       25.7         75       15.3      108.8       13.1       17.3       10.9     1008.6       15.3        9.3        0.0        0.0        0.8       0.00       35.7       2.80       0.00       60.4
9:10              182       17.7         74       15.4      108.8       14.4       17.3       10.8     1008.7       15.4        9.3        0.0        0.0        0.8       0.00       36.2       2.80       0.00       60.4
9:12              209       29.0         74       15.4      108.8        9.5       17.4       10.8     1008.8       15.4        9.3        0.0        0.0        0.8       0.00       36.7       2.80       0.00       60.4
9:14              198       25.7         74       15.4      108.8       14.5       17.4       10.8     1008.7       15.4        9.3        0.0        0.0        0.8       0.00       37.4       2.80       0.00       60.4
9:16              207       30.6         74       15.4      108.8       10.2       17.4       10.8     1008.8       15.4        9.3        0.0        0.0        0.8       0.00       38.0       2.83       0.00       60.4
9:18              221       25.7         74       15.4      108.8       10.2       17.4       10.8     1008.8       15.5        9.3        0.0        0.0        0.8       0.00       38.7       2.83       0.00       60.4
9:20              210       24.1         74       15.4      108.8       11.3       17.4       10.8     1008.8       15.5        9.3        0.0        0.0        0.8       0.00       39.2       2.83       0.00       60.4
9:22              176       35.4         74       15.5      108.8        7.6       17.4       10.9     1008.8       15.5        9.3        0.0        0.0        0.8       0.00       39.8       2.83       0.00       60.4
9:24              210       29.0         74       15.5      108.8       10.6       17.4       10.9     1008.8       15.5        9.3        0.0        0.0        0.8       0.00       40.5       2.83       0.00       60.4
9:26              190       32.2         74       15.5      108.8       11.0       17.4       10.9     1008.8       15.5        9.3        0.0        0.0        0.8       0.00       41.1       2.83       0.00       60.4
9:28              204       27.4         73       15.5      108.8       10.6       17.3       10.7     1008.8       15.5        9.3        0.0        0.0        0.8       0.00       41.7       2.83       0.00       60.4
9:30              168       30.6         74       15.6      108.8       10.4       17.5       10.9     1008.8       15.6        9.3        0.0        0.0        0.8       0.00       42.3       2.83       0.00       60.4
9:32              204       30.6         74       15.6      108.8        9.6       17.5       10.9     1008.9       15.6        9.3        0.0        0.0        0.8       0.00       43.0       2.86       0.00       60.4
9:34              188       30.6         74       15.5      108.8        9.9       17.4       10.9     1009.0       15.6        9.3        0.0        0.0        0.8       0.00       43.8       2.86       0.00       60.4
9:36              218       32.2         74       15.5      108.8        9.6       17.4       10.9     1008.9       15.6        9.3        0.0        0.0        0.8       0.00       44.4       2.86       0.00       60.4
9:38              198       29.0         75       15.4      108.8        9.2       17.4       11.0     1008.9       15.6        9.3        0.0        0.0        0.8       0.00       45.2       2.86       0.00       60.4
9:40              199       30.6         75       15.4      108.8        8.2       17.4       11.0     1009.0       15.6        9.3        0.0        0.0        0.8       0.00       45.8       2.86       0.00       60.4
9:42              205       25.7         76       15.4      108.8       10.9       17.5       11.2     1009.0       15.6        9.3        0.0        0.0        0.8       0.00       46.4       2.86       0.00       60.4
9:44              190       17.7         77       15.3      108.8       11.1       17.5       11.3     1009.0       15.6        9.3        0.0        0.0        0.8       0.00       46.9       2.86       0.00       60.4
9:46              211       29.0         77       15.3      108.8        9.0       17.5       11.3     1009.1       15.6        9.3        0.0        0.0        0.8       0.00       47.4       2.88       0.00       60.4
9:48              193       20.9         79       15.3      108.8       11.1       17.6       11.7     1009.1       15.6        9.3        0.0        0.0        0.8       0.00       48.0       2.88       0.00       60.4
9:50              170       30.6         79       15.2      108.8       10.6       17.5       11.6     1009.0       15.6        9.3        0.0        0.0        0.8       0.00       48.7       2.88       0.00       60.4
9:52              184       37.0         79       15.2      108.8       12.3       17.5       11.6     1009.1       15.6        9.3        0.0        0.0        0.8       0.00       49.2       2.88       0.00       60.4
9:54              195       11.3         79       15.2      108.8       15.2       17.5       11.6     1009.1       15.6        9.3        0.0        0.0        0.8       0.00       49.7       2.88       0.00       60.4
9:56              211       22.5         79       15.3      108.8       12.3       17.6       11.7     1009.1       15.6        9.3        0.0        0.0        0.8       0.00       50.1       2.88       0.00       60.4
9:58              198       17.7         78       15.3      108.8       15.3       17.5       11.5     1009.1       15.6        9.3        0.0        0.0        0.8       0.00       50.5       2.88       0.00       60.4
10:00             222       29.0         78       15.4      108.8        8.4       17.6       11.6     1009.2       15.6        9.3        0.0        0.0        0.8       0.00       51.0       2.88       0.00       60.4
10:02             218       30.6         77       15.4      108.8       12.5       17.6       11.4     1009.1       15.6        9.3        0.0        0.0        0.8       0.00       51.6       2.91       0.00       60.4
10:04             232       20.9         77       15.6      108.8       11.4       17.7       11.5     1009.2       15.6        9.3        0.0        0.0        0.8       0.00       52.1       2.91       0.00       60.4
10:06             202       27.4         77       15.6      108.8       15.6       17.7       11.5     1009.2       15.6        9.3        0.0        0.0        0.8       0.00       52.7       2.91       0.00       60.4
10:08             221       27.4         77       15.6      108.8       14.0       17.7       11.6     1009.3       15.6        9.3        0.0        0.0        0.8       0.00       53.3       2.91       0.00       60.4
10:10             194       16.1         77       15.7      108.8       12.1       17.8       11.7     1009.3       15.7        9.3        0.0        0.0        0.8       0.00       53.7       2.91       0.00       60.4
10:12             209       25.7         78       15.6      108.8       13.4       17.8       11.8     1009.2       15.7        9.3        0.0        0.0        0.8       0.00       54.2       2.91       0.00       60.4
10:14             203       38.6         78       15.5      108.8       10.6       17.7       11.7     1009.3       15.7        9.3        0.0        0.0        0.8       0.00       55.0       2.91       0.00       60.4
10:16             198       19.3         79       15.4      108.8       11.8       17.7       11.8     1009.4       15.7        9.3        0.0        0.0        0.8       0.00       55.7       2.94       0.00       60.4
10:18             217       19.3         80       15.3      108.8       10.7       17.6       11.9     1009.3       15.7        9.3        0.0        0.0        0.8       0.00       56.2       2.94       0.00       60.4
10:20             202       19.3         80       15.2      108.8       10.2       17.5       11.7     1009.3       15.7        9.3        0.0        0.0        0.8       0.00       56.7       2.94       0.00       60.4
10:22             234       33.8         80       15.1      108.8        7.2       17.5       11.7     1009.3       15.7        9.3        0.0        0.0        0.8       0.00       57.4       2.94       0.00       60.4
10:24             207       24.1         81       15.1      108.8       11.4       17.5       11.8     1009.4       15.7        9.3        0.0        0.0        0.8       0.00       58.0       2.94       0.00       60.4
10:26             196       19.3         81       15.1      108.8       12.1       17.5       11.9     1009.4       15.7        9.3        0.0        0.0        0.8       0.00       58.5       2.94       0.00       60.4
10:28             195       30.6         81       15.1      108.8       10.8       17.5       11.9     1009.4       15.7        9.3        0.0        0.0        0.8       0.00       59.1       2.94       0.00       60.4
10:30             183       20.9         81       15.1      108.8       11.4       17.5       11.8     1009.3       15.7        9.3        0.0        0.0        0.8       0.00       59.6       2.94       0.00       60.4
10:32             219       35.4         81       14.9      108.8       10.6       17.4       11.7     1009.3       15.7        9.3        0.0        0.0        0.4       0.00       60.3       2.97       0.00       60.4
10:34             178       17.7         81       14.9      108.8       11.3       17.4       11.7     1009.3       15.7        9.3        0.0        0.0        0.4       0.00       60.8       2.97       0.00       60.4
10:36             215       16.1         81       14.9      108.8       13.3       17.4       11.7     1009.4       15.7        9.3        0.0        0.0        0.4       0.00       61.3       2.97       0.00       60.4
10:38             202       20.9         81       14.9      108.8       12.6       17.4       11.7     1009.3       15.7        9.3        0.0        0.0        0.4       0.00       61.6       2.97       0.00       60.4
10:40             192       32.2         81       15.0      108.8       12.0       17.4       11.8     1009.3       15.7        9.3        0.0        0.0        0.4       0.00       62.2       2.97       0.00       60.4
10:42             213       24.1         81       15.1      108.8        9.7       17.5       11.8     1009.3       15.7        9.3        0.0        0.0        0.4       0.00       62.8       2.97       0.00       60.4
10:44             217       29.0         81       15.1      108.8       11.4       17.5       11.8     1009.3       15.7        9.3        0.0        0.0        0.4       0.00       63.4       2.97       0.00       60.4
10:46             189       32.2         81       15.1      108.8        9.7       17.5       11.8     1009.4       15.7        9.3        0.0        0.0        0.4       0.00       64.0       3.00       0.00       60.4
10:48             200       24.1         82       15.1      108.8       12.7       17.6       12.0     1009.4       15.7        9.3        0.0        0.0        0.4       0.00       64.6       3.00       0.00       60.4
10:50             231       27.4         82       15.0      109.0       10.4       17.5       12.0     1009.4       15.7        9.3        0.2        0.2        0.6       0.00       65.2       3.00       0.00       60.6
10:52             210       35.4         83       14.9      109.0       10.3       17.5       12.1     1009.5       15.7        9.3        0.2        0.2        0.6       0.00       65.8       3.00       0.00       60.6
10:54             211       20.9         82       14.8      109.2       11.8       17.3       11.8     1009.4       15.7        9.3        0.4        0.4        0.8       2.60       66.3       3.00       0.00       60.8
10:56             188       14.5         82       14.8      109.2       11.1       17.3       11.8     1009.3       15.7        9.3        0.4        0.4        0.8       2.60       67.0       3.00       0.00       60.8
10:58             222       29.0         82       14.8      109.2        7.7       17.3       11.8     1009.5       15.7        9.3        0.4        0.4        0.8       2.20       67.6       3.00       0.00       60.8
11:00             207       32.2         81       14.8      109.2        9.8       17.3       11.6     1009.3       15.7        9.3        0.4        0.4        0.8       1.60       68.5       3.00       0.00       60.8
11:02             205       14.5         81       14.9      109.2       13.9       17.3       11.7     1009.4       15.7        9.3        0.4        0.4        0.8       1.20       68.9       3.03       0.00       60.8
11:04             215       32.2         81       14.9      109.2        9.1       17.3       11.7     1009.4       15.7        9.3        0.4        0.4        0.8       1.00       69.4       3.03       0.00       60.8
11:06             182       25.7         81       14.9      109.2        8.7       17.3       11.7     1009.4       15.7        9.3        0.4        0.4        0.8       0.80       70.1       3.03       0.00       60.8
11:08             178       25.7         81       14.9      109.2       11.9       17.3       11.7     1009.3       15.7        9.3        0.4        0.4        0.8       0.80       70.7       3.03       0.00       60.8
11:10             212       17.7         81       14.9      109.2       11.2       17.3       11.7     1009.4       15.7        9.3        0.4        0.4        0.8       0.00       71.3       3.03       0.00       60.8
11:12             205       19.3         81       14.9      109.2        9.9       17.4       11.7     1009.4       15.7        9.3        0.4        0.4        0.8       0.00       71.8       3.03       0.00       60.8
11:14             213       14.5         81       14.9      109.2       14.9       17.4       11.7     1009.4       15.7        9.3        0.4        0.4        0.8       0.00       72.3       3.03       0.00       60.8
11:16             213       16.1         82       14.9      109.2       12.6       17.4       11.9     1009.4       15.7        9.3        0.4        0.4        0.8       0.00       72.7       3.06       0.00       60.8
11:18             208       38.6         82       14.9      109.2        7.0       17.4       11.9     1009.4       15.7        9.3        0.4        0.4        0.8       0.00       73.3       3.06       0.00       60.8
11:20             204       24.1         82       14.9      109.2        9.8       17.4       11.8     1009.4       15.7        9.3        0.4        0.4        0.8       0.00       74.1       3.06       0.00       60.8
11:22             221       40.2         82       14.9      109.2        7.5       17.4       11.9     1009.5       15.7        9.3        0.4        0.4        0.8       0.00       74.8       3.06       0.00       60.8
11:24             227       24.1         83       14.9      109.4       13.9       17.5       12.0     1009.5       15.7        9.3        0.6        0.6        1.0       0.00       75.5       3.06       0.00       61.0
11:26             231       37.0         83       14.8      109.6        7.3       17.4       11.9     1009.5       15.7        9.3        0.8        0.8        1.2       6.60       76.4       3.06       0.00       61.2
11:28             206       29.0         84       14.6      109.6       10.9       17.3       11.9     1009.4       15.7        9.3        0.8        0.8        1.2       3.20       77.1       3.06       0.00       61.2
11:30             213       24.1         85       14.5      109.6       11.4       17.2       12.0     1009.4       15.7        9.3        0.8        0.8        1.2       2.00       77.7       3.06       0.00       61.2
11:32             207       22.5         86       14.5      109.6        9.0       17.3       12.2     1009.5       15.7        9.3        0.8        0.8        0.8       1.60       78.3       3.10       0.00       61.2
11:34             214       16.1         87       14.5      109.6       10.1       17.4       12.4     1009.4       15.7        9.3        0.8        0.8        0.8       1.20       78.8       3.10       0.00       61.2
11:36             223       22.5         87       14.5      109.6        8.6       17.4       12.4     1009.4       15.7        9.3        0.8        0.8        0.8       1.00       79.5       3.10       0.00       61.2
11:38             202       33.8         87       14.5      109.6        8.2       17.4       12.4     1009.3       15.7        9.3        0.8        0.8        0.8       0.80       80.1       3.10       0.00       61.2
11:40             226       30.6         87       14.6      109.6        8.0       17.4       12.4     1009.4       15.7        9.3        0.8        0.8        0.8       0.80       80.8       3.10       0.00       61.2
11:42             217       19.3         88       14.7      109.6       10.3       17.6       12.7     1009.4       15.7        9.3        0.8        0.8        0.8       0.00       81.3       3.10       0.00       61.2
11:44             208       25.7         88       14.9      109.6       11.9       17.9       12.9     1009.2       15.7        9.3        0.8        0.8        0.8       0.00       81.8       3.10       0.00       61.2
11:46             184       27.4         88       15.1      109.6        9.3       18.0       13.1     1009.3       15.7        9.3        0.8        0.8        0.8       0.00       82.5       3.13       0.00       61.2
11:48             175       37.0         87       15.2      109.6        9.2       18.1       13.1     1009.2       15.7        9.3        0.8        0.8        0.8       0.00       83.2       3.13       0.00       61.2
11:50             168       32.2         86       15.3      109.6        9.0       18.1       13.0     1009.2       15.7        9.3        0.8        0.8        0.8       0.00       83.9       3.13       0.00       61.2
11:52             208       30.6         86       15.5      109.6        9.2       18.3       13.2     1009.3       15.7        9.3        0.8        0.8        0.8       0.00       84.6       3.13       0.00       61.2
11:54             202       25.7         85       15.7      109.6       10.8       18.4       13.2     1009.3       15.7        9.3        0.8        0.8        0.8       0.00       85.2       3.13       0.00       61.2
11:56             225       37.0         83       15.8      109.6       14.2       18.4       12.9     1009.1       15.8        9.3        0.8        0.8        0.8       0.00       86.0       3.13       0.00       61.2
11:58             235       43.4         82       15.8      109.6        7.3       18.3       12.8     1009.1       15.8        9.3        0.8        0.8        0.8       0.00       86.7       3.13       0.00       61.2
12:00             192       46.7         81       15.9      109.6       10.4       18.3       12.6     1009.0       15.9        9.3        0.8        0.8        0.8       0.00       87.5       3.13       0.00       61.2
12:02             220       35.4         81       16.0      109.6        9.3       18.4       12.7     1008.9       16.0        9.3        0.8        0.4        0.8       0.00       88.3       3.15       0.00       61.2
12:04             209       29.0         80       16.1      109.6        9.4       18.4       12.6     1008.9       16.1        9.3        0.8        0.4        0.8       0.00       89.0       3.15       0.00       61.2
12:06             230       19.3         79       16.1      109.6       11.4       18.4       12.5     1008.9       16.1        9.3        0.8        0.4        0.8       0.00       89.7       3.15       0.00       61.2
12:08             211       29.0         79       16.2      109.6        9.6       18.5       12.6     1008.9       16.2        9.3        0.8        0.4        0.8       0.00       90.3       3.15       0.00       61.2
12:10             211       32.2         78       16.3      109.6       10.4       18.5       12.5     1008.8       16.3        9.3        0.8        0.4        0.8       0.00       91.1       3.15       0.00       61.2
12:12             214       33.8         77       16.4      109.6       13.1       18.6       12.4     1008.8       16.4        9.3        0.8        0.4        0.8       0.00       91.9       3.15       0.00       61.2
12:14             183       33.8         76       16.5      109.6       10.9       18.6       12.3     1008.9       16.5        9.3        0.8        0.4        0.8       0.00       92.7       3.15       0.00       61.2
12:16             213       27.4         75       16.6      109.6       12.0       18.5       12.1     1008.9       16.6        9.3        0.8        0.4        0.8       0.00       93.5       3.17       0.00       61.2
12:18             206       37.0         76       16.6      109.8       10.1       18.6       12.3     1008.9       16.6        9.3        1.0        0.6        1.0       0.00       94.3       3.17       0.00       61.4
12:20             191       33.8         77       16.4      109.8        9.8       18.5       12.4     1009.0       16.6        9.3        1.0        0.6        1.0       0.00       95.1       3.17       0.00       61.4
12:22             215       17.7         78       16.2      110.0       14.1       18.4       12.4     1009.1       16.6        9.3        1.2        0.8        1.2       3.00       95.7       3.17       0.00       61.6
12:24             190       30.6         79       16.1      110.2        9.1       18.3       12.4     1009.2       16.6        9.3        1.4        1.0        1.4       5.20       96.4       3.17       0.00       61.8
12:26             209       38.6         80       15.9      110.4        7.9       18.2       12.4     1009.3       16.6        9.3        1.6        1.2        1.6       8.00       97.2       3.17       0.00       62.0
12:28             236       29.0         81       15.7      110.6       11.2       18.1       12.4     1009.4       16.6        9.3        1.8        1.4        1.8       5.20       97.9       3.17       0.00       62.2
12:30             238       25.7         82       15.4      110.8       10.1       17.9       12.3     1009.4       16.6        9.3        2.0        1.6        2.0       6.80       98.7       3.17       0.00       62.4
12:32             229       30.6         84       15.1      111.0       14.1       17.8       12.4     1009.4       16.6        9.3        2.2        1.4        2.2       3.40       99.5       3.20       0.00       62.6
12:34             239       33.8         84       14.9      111.0        7.5       17.6       12.3     1009.4       16.6        9.3        2.2        1.4        2.2       3.40      100.1       3.20       0.00       62.6
12:36             246       25.7         85       14.8      111.2        8.3       17.5       12.3     1009.5       16.6        9.3        2.4        1.6        2.4       3.60      100.9       3.20       0.00       62.8
12:38             223       17.7         87       14.7      111.2       14.7       17.6       12.5     1009.5       16.6        9.3        2.4        1.6        2.4       3.60      101.4       3.20       0.00       62.8
12:40             222       27.4         87       14.7      111.2       11.0       17.6       12.6     1009.6       16.6        9.3        2.4        1.6        2.4       2.40      101.9       3.20       0.00       62.8
12:42             250       30.6         88       14.7      111.2        7.2       17.7       12.8     1009.6       16.6        9.3        2.4        1.6        2.4       1.80      102.6       3.20       0.00       62.8
12:44             234       32.2         88       14.7      111.2        8.4       17.6       12.7     1009.5       16.6        9.3        2.4        1.6        2.4       1.40      103.6       3.20       0.00       62.8
12:46             232       40.2         88       14.6      111.2        6.5       17.6       12.6     1009.5       16.6        9.3        2.4        1.6        2.4       1.00      104.7       3.23       0.00       62.8
12:48             194       29.0         88       14.6      111.2        9.5       17.6       12.6     1009.6       16.6        9.3        2.4        1.6        2.4       1.00      105.5       3.23       0.00       62.8
12:50             235       25.7         88       14.7      111.2        9.2       17.6       12.7     1009.7       16.6        9.3        2.4        1.6        2.4       0.80      106.2       3.23       0.00       62.8
12:52             214       38.6         89       14.7      111.2        6.9       17.8       12.9     1009.4       16.6        9.3        2.4        1.6        2.4       0.80      106.8       3.23       0.00       62.8
12:54             174       29.0         89       14.7      111.2        7.9       17.8       12.9     1009.5       16.6        9.3        2.4        1.6        2.4       0.00      107.8       3.23       0.00       62.8
12:56             209       45.1         88       14.8      111.2        5.6       17.7       12.8     1009.5       16.6        9.3        2.4        1.6        2.4       0.00      108.6       3.23       0.00       62.8
12:58             212       40.2         89       14.8      111.2        6.6       17.8       13.0     1009.6       16.6        9.3        2.4        1.6        2.4       0.00      109.5       3.23       0.00       62.8
13:00             196       27.4         88       14.8      111.2       10.4       17.7       12.8     1009.5       16.6        9.3        2.4        1.6        2.4       0.00      110.4       3.23       0.00       62.8
13:02             210       37.0         89       14.9      111.2        7.1       17.9       13.1     1009.6       16.6        9.3        2.4        1.6        2.4       0.00      111.0       3.27       0.00       62.8
13:04             223       33.8         88       14.9      111.2        8.1       17.9       12.9     1009.4       16.6        9.3        2.4        1.6        2.4       0.00      111.9       3.27       0.00       62.8
13:06             225       30.6         88       14.9      111.2       11.2       17.9       12.9     1009.4       16.6        9.3        2.4        1.6        2.4       0.00      112.8       3.27       0.00       62.8
13:08             191       32.2         88       15.0      111.2       12.7       18.0       13.0     1009.5       16.6        9.3        2.4        1.6        2.4       0.00      113.4       3.27       0.00       62.8
13:10             213       27.4         88       15.2      111.2        9.5       18.1       13.2     1009.4       16.6        9.3        2.4        1.6        2.4       0.00      114.2       3.27       0.00       62.8
13:12             176       32.2         88       15.3      111.2        7.7       18.2       13.3     1009.4       16.6        9.3        2.4        1.6        2.4       0.00      114.9       3.27       0.00       62.8
13:14             172       43.4         87       15.4      111.2        6.9       18.3       13.2     1009.3       16.6        9.3        2.4        1.6        2.4       0.00      115.9       3.27       0.00       62.8
13:16             209       33.8         87       15.4      111.2       11.8       18.3       13.2     1009.4       16.6        9.3        2.4        1.6        2.4       0.00      116.7       3.29       0.00       62.8
13:18             225       32.2         86       15.4      111.2       10.8       18.2       13.1     1009.4       16.6        9.3        2.4        1.6        2.4       0.00      117.5       3.29       0.00       62.8
13:20             182       38.6         86       15.4      111.2        9.4       18.2       13.1     1009.3       16.6        9.3        2.4        1.6        2.4       0.00      118.3       3.29       0.00       62.8
13:22             213       37.0         86       15.4      111.2        7.3       18.2       13.1     1009.4       16.6        9.3        2.4        1.6        2.4       0.00      119.2       3.29       0.00       62.8
13:24             201       48.3         86       15.3      111.2        6.8       18.1       13.0     1009.4       16.6        9.3        2.4        1.6        2.4       0.00      120.2       3.29       0.00       62.8
13:26             208       35.4         86       15.3      111.2       12.3       18.1       13.0     1009.4       16.6        9.3        2.4        1.6        2.4       0.00      121.0       3.29       0.00       62.8
13:28             215       30.6         86       15.3      111.2        8.0       18.1       13.0     1009.5       16.6        9.3        2.4        1.6        2.4       0.00      121.6       3.29       0.00       62.8
13:30             198       29.0         86       15.3      111.2        8.4       18.1       13.0     1009.4       16.6        9.3        2.4        1.6        2.4       0.00      122.4       3.29       0.00       62.8
13:32             216       41.8         86       15.3      111.2        7.7       18.1       13.0     1009.4       16.6        9.3        2.4        0.4        2.4       0.00      123.2       3.32       0.00       62.8
13:34             190       29.0         86       15.4      111.2       13.8       18.2       13.1     1009.4       16.6        9.3        2.4        0.4        2.4       0.00      124.0       3.32       0.00       62.8
13:36             194       24.1         86       15.4      111.2       11.8       18.2       13.1     1009.4       16.6        9.3        2.4        0.4        2.4       0.00      124.9       3.32       0.00       62.8
13:38             203       24.1         86       15.4      111.2       11.8       18.2       13.1     1009.4       16.6        9.3        2.4        0.4        2.4       0.00      125.5       3.32       0.00       62.8
13:40             209       27.4         86       15.3      111.4        9.3       18.1       13.0     1009.4       16.6        9.3        2.6        0.6        2.6       0.00      126.4       3.32       0.00       63.0
13:42             208       17.7         87       15.2      111.6       12.9       18.1       13.1     1009.4       16.6        9.3        2.8        0.8        2.8       6.40      127.0       3.32       0.00       63.2
13:44             236       37.0         87       15.1      111.6        8.1       18.0       13.0     1009.5       16.6        9.3        2.8        0.8        2.8       3.20      127.7       3.32       0.00       63.2
13:46             213       27.4         87       14.9      111.8       11.9       17.8       12.8     1009.6       16.6        9.3        3.0        0.6        3.0       2.40      128.5       3.35       0.00       63.4
13:48             231       20.9         88       14.7      111.8       11.7       17.7       12.8     1009.7       16.6        9.3        3.0        0.6        3.0       2.40      129.2       3.35       0.00       63.4
13:50             210       29.0         88       14.6      111.8        7.4       17.6       12.6     1009.7       16.6        9.3        3.0        0.6        3.0       2.40      129.9       3.35       0.00       63.4
13:52             173       30.6         89       14.6      112.0        8.3       17.6       12.8     1009.6       16.6        9.3        3.2        0.8        3.2       2.00      130.6       3.35       0.00       63.6
13:54             223       25.7         89       14.4      112.0        7.7       17.4       12.6     1009.7       16.6        9.3        3.2        0.8        3.2       2.00      131.5       3.35       0.00       63.6
13:56             215       27.4         89       14.3      112.0        7.3       17.4       12.5     1009.7       16.6        9.3        3.2        0.8        3.2       2.00      132.2       3.35       0.00       63.6
13:58             215       29.0         90       14.3      112.2        9.9       17.5       12.7     1009.6       16.6        9.3        3.4        1.0        3.4       2.20      132.9       3.35       0.00       63.8
14:00             211       14.5         90       14.3      112.2       12.6       17.4       12.7     1009.5       16.6        9.3        3.4        1.0        3.4       2.20      133.5       3.35       0.00       63.8
14:02             203       22.5         90       14.3      112.2        9.5       17.5       12.7     1009.5       16.6        9.3        3.4        1.0        3.4       2.20      134.0       3.39       0.00       63.8
14:04             215       29.0         90       14.3      112.2       12.6       17.5       12.7     1009.6       16.6        9.3        3.4        1.0        3.4       1.60      134.6       3.39       0.00       63.8
14:06             225       30.6         90       14.3      112.2        6.6       17.5       12.7     1009.6       16.6        9.3        3.4        1.0        3.4       1.40      135.2       3.39       0.00       63.8
14:08             211       35.4         91       14.3      112.4        5.9       17.5       12.9     1009.6       16.6        9.3        3.6        1.2        3.6       1.20      135.9       3.39       0.00       64.0
14:10             229       20.9         91       14.3      112.4       10.5       17.5       12.9     1009.6       16.6        9.3        3.6        1.2        3.6       1.20      136.6       3.39       0.00       64.0
14:12             209       38.6         91       14.4      112.4        5.7       17.7       13.0     1009.6       16.6        9.3        3.6        1.2        3.6       1.20      137.4       3.39       0.00       64.0
14:14             198       17.7         91       14.4      112.4       10.0       17.7       13.0     1009.6       16.6        9.3        3.6        1.2        3.6       1.20      138.0       3.39       0.00       64.0
14:16             214       32.2         91       14.6      112.4        6.6       17.8       13.1     1009.5       16.6        9.3        3.6        1.2        3.6       1.20      138.8       3.43       0.00       64.0
14:18             202       33.8         91       14.6      112.4        6.4       17.8       13.1     1009.6       16.6        9.3        3.6        1.2        3.6       1.20      139.9       3.43       0.00       64.0
14:20             211       22.5         92       14.7      112.4       11.7       18.0       13.4     1009.5       16.6        9.3        3.6        1.2        3.6       1.00      140.7       3.43       0.00       64.0
14:22             192       14.5         91       14.7      112.4       11.0       17.9       13.3     1009.5       16.6        9.3        3.6        1.2        3.6       0.80      141.4       3.43       0.00       64.0
14:24             209       20.9         92       14.8      112.4       10.5       18.1       13.5     1009.4       16.6        9.3        3.6        1.2        3.6       0.80      141.9       3.43       0.00       64.0
14:26             213        9.7         92       14.9      112.4       13.3       18.2       13.7     1009.4       16.6        9.3        3.6        1.2        3.6       0.00      142.4       3.43       0.00       64.0
14:28             213        9.7         92       14.9      112.4       13.3       18.2       13.7     1009.3       16.6        9.3        3.6        1.2        3.6       0.00      142.7       3.43       0.00       64.0
14:30             213        9.7         92       14.9      112.4       13.3       18.2       13.7     1009.3       16.6        9.3        3.6        1.2        3.6       0.00      143.0       3.43       0.00       64.0
14:32             213        9.7         92       14.9      112.4       13.3       18.2       13.7     1009.3       16.6        9.3        3.6        1.2        3.6       0.00      143.3       3.46       0.00       64.0
14:34             188       24.1         92       14.9      112.4        8.8       18.2       13.7     1009.2       16.6        9.3        3.6        1.2        3.6       0.00      144.1       3.46       0.00       64.0
14:36             188       24.1         92       14.9      112.4        8.8       18.2       13.7     1009.2       16.6        9.3        3.6        1.2        3.6       0.00      144.9       3.46       0.00       64.0
14:38             188       24.1         92       14.9      112.4        8.8       18.2       13.7     1009.2       16.6        9.3        3.6        1.2        3.6       0.00      145.7       3.46       0.00       64.0
14:40             186       25.7         90       15.5      112.4        9.2       18.6       13.9     1009.2       16.6        9.3        3.6        1.2        3.6       0.00      146.5       3.46       0.00       64.0
14:42             186       25.7         90       15.5      112.4        9.2       18.6       13.9     1009.3       16.6        9.3        3.6        1.2        3.6       0.00      147.3       3.46       0.00       64.0
14:44             200       43.4         89       15.6      112.4       10.4       18.7       13.8     1009.1       16.6        9.3        3.6        1.2        3.6       0.00      148.2       3.46       0.00       64.0
14:46             181       24.1         88       15.6      112.4       11.1       18.6       13.6     1009.1       16.6        9.3        3.6        0.8        3.6       0.00      148.8       3.48       0.00       64.0
14:48             182       35.4         88       15.6      112.4        9.6       18.5       13.6     1009.3       16.6        9.3        3.6        0.8        3.6       0.00      149.7       3.48       0.00       64.0
14:50             201       22.5         88       15.5      112.4       11.9       18.5       13.5     1009.3       16.6        9.3        3.6        0.8        3.6       0.00      150.5       3.48       0.00       64.0
14:52             209       24.1         88       15.5      112.4       14.5       18.5       13.5     1009.3       16.6        9.3        3.6        0.8        3.6       0.00      151.1       3.48       0.00       64.0
14:54             206       40.2         88       15.4      112.8       14.4       18.4       13.4     1009.4       16.6        9.3        4.0        1.2        4.0      11.20      151.9       3.48       0.00       64.4
14:56             192       49.9         88       15.2      112.8       10.3       18.2       13.3     1009.5       16.6        9.3        4.0        1.2        4.0       5.00      152.8       3.48       0.00       64.4
14:58             236       25.7         88       15.1      112.8        9.3       18.0       13.1     1009.5       16.6        9.3        4.0        1.2        4.0       2.80      153.6       3.48       0.00       64.4
15:00             192       35.4         89       15.0      112.8       10.7       18.1       13.2     1009.5       16.6        9.3        4.0        1.2        4.0       1.80      154.2       3.48       0.00       64.4
15:02             220       30.6         89       14.9      113.0        8.5       18.0       13.1     1009.3       16.6        9.3        4.2        0.8        4.2       1.60      155.0       3.51       0.00       64.6
15:04             211       17.7         89       14.8      113.0       13.8       17.9       13.0     1009.4       16.6        9.3        4.2        0.8        4.2       1.60      155.5       3.51       0.00       64.6
15:06             205       30.6         90       14.8      113.0        9.3       17.9       13.2     1009.4       16.6        9.3        4.2        0.8        4.2       1.60      156.1       3.51       0.00       64.6
15:08             212       20.9         90       14.7      113.0       12.4       17.9       13.1     1009.2       16.6        9.3        4.2        0.8        4.2       1.60      156.8       3.51       0.00       64.6
15:10             220       29.0         90       14.7      113.0       12.4       17.9       13.1     1009.3       16.6        9.3        4.2        0.8        4.2       1.40      157.4       3.51       0.00       64.6
15:12             190       30.6         90       14.7      113.0        9.9       17.8       13.0     1009.3       16.6        9.3        4.2        0.8        4.2       1.20      158.0       3.51       0.00       64.6
15:14             212       27.4         90       14.7      113.0        7.8       17.8       13.0     1009.3       16.6        9.3        4.2        0.8        4.2       1.00      158.7       3.51       0.00       64.6
15:16             194       33.8         91       14.7      113.0        6.7       17.9       13.3     1009.3       16.6        9.3        4.2        0.6        4.2       0.80      159.2       3.55       0.00       64.6
15:18             206       32.2         91       14.7      113.0        8.5       17.9       13.3     1009.2       16.6        9.3        4.2        0.6        4.2       0.80      159.9       3.55       0.00       64.6
15:20             200       17.7         91       14.7      113.0       11.7       17.9       13.3     1009.3       16.6        9.3        4.2        0.6        4.2       0.00      160.4       3.55       0.00       64.6
15:22             208       20.9         91       14.8      113.0        9.3       18.0       13.3     1009.3       16.6        9.3        4.2        0.6        4.2       0.00      161.0       3.55       0.00       64.6
15:24             211       33.8         91       14.8      113.0        9.3       18.0       13.3     1009.3       16.6        9.3        4.2        0.6        4.2       0.00      161.7       3.55       0.00       64.6
15:26             215       30.6         91       14.8      113.2        8.0       18.0       13.4     1009.4       16.6        9.3        4.4        0.8        4.4       0.00      162.3       3.55       0.00       64.8
15:28             196       22.5         91       14.8      113.2       13.2       18.0       13.4     1009.4       16.6        9.3        4.4        0.8        4.4       0.00      162.8       3.55       0.00       64.8
15:30             221       33.8         91       14.8      113.2        8.7       18.0       13.4     1009.2       16.6        9.3        4.4        0.8        4.4       0.00      163.6       3.55       0.00       64.8
15:32             198       22.5         91       14.8      113.2        9.8       18.0       13.4     1009.3       16.6        9.3        4.4        0.8        4.4       0.00      164.1       3.58       0.00       64.8
15:34             184       29.0         91       14.8      113.4       10.1       18.0       13.4     1009.2       16.6        9.3        4.6        1.0        4.6       1.60      165.0       3.58       0.00       65.0
15:36             202       32.2         91       14.8      113.4       10.4       18.0       13.3     1009.4       16.6        9.3        4.6        1.0        4.6       1.60      165.8       3.58       0.00       65.0
15:38             193       30.6         91       14.8      113.4       10.1       18.0       13.3     1009.3       16.6        9.3        4.6        1.0        4.6       1.60      166.6       3.58       0.00       65.0
15:40             213       40.2         91       14.8      113.4       10.1       18.0       13.4     1009.3       16.6        9.3        4.6        1.0        4.6       1.60      167.3       3.58       0.00       65.0
15:42             211       51.5         91       14.8      113.6        7.9       18.0       13.3     1009.3       16.6        9.3        4.8        1.2        4.8       1.80      168.2       3.58       0.00       65.2
15:44             227       25.7         91       14.7      113.8       13.7       17.9       13.2     1009.4       16.6        9.3        5.0        1.4        5.0       3.60      169.0       3.58       0.00       65.4
15:46             226       29.0         91       14.6      114.0        8.0       17.8       13.2     1009.4       16.6        9.3        5.2        1.6        5.2       5.40      169.6       3.62       0.00       65.6
15:48             227       29.0         91       14.5      114.0        7.2       17.7       13.1     1009.4       16.6        9.3        5.2        1.6        5.2       4.60      170.3       3.62       0.00       65.6
15:50             184       17.7         91       14.4      114.0       12.7       17.6       12.9     1009.5       16.6        9.3        5.2        1.6        5.2       2.60      171.0       3.62       0.00       65.6
15:52             190       40.2         91       14.3      114.0        7.7       17.5       12.9     1009.3       16.6        9.3        5.2        1.6        5.2       1.80      171.8       3.62       0.00       65.6
15:54             206       32.2         91       14.3      114.0        8.3       17.5       12.8     1009.4       16.6        9.3        5.2        1.6        5.2       1.40      172.7       3.62       0.00       65.6
15:56             217       32.2         92       14.2      114.2        7.8       17.5       12.9     1009.4       16.6        9.3        5.4        1.8        5.4       1.40      173.4       3.62       0.00       65.8
15:58             179       29.0         92       14.2      114.2        8.2       17.5       12.9     1009.4       16.6        9.3        5.4        1.8        5.4       1.40      174.1       3.62       0.00       65.8
16:00             200       32.2         92       14.2      114.2       12.5       17.5       12.9     1009.5       16.6        9.3        5.4        1.8        5.4       1.40      174.7       3.62       0.00       65.8
16:02             207       40.2         92       14.3      114.2       11.2       17.6       13.0     1009.5       16.6        9.3        5.4        1.4        5.4       1.40      175.3       3.66       0.00       65.8
16:04             196       17.7         92       14.3      114.4       11.9       17.6       13.0     1009.4       16.6        9.3        5.6        1.6        5.6       1.60      175.9       3.66       0.00       66.0
16:06             222       33.8         92       14.3      114.6        7.9       17.6       13.0     1009.4       16.6        9.3        5.8        1.8        5.8       3.60      176.5       3.66       0.00       66.2
16:08             209       22.5         92       14.3      114.6        9.9       17.6       13.1     1009.4       16.6        9.3        5.8        1.8        5.8       3.60      177.2       3.66       0.00       66.2
16:10             182       20.9         92       14.3      114.8       10.5       17.6       13.1     1009.5       16.6        9.3        6.0        2.0        6.0       3.00      177.8       3.66       0.00       66.4
16:12             205       25.7         92       14.4      114.8        7.7       17.7       13.1     1009.5       16.6        9.3        6.0        2.0        6.0       3.00      178.3       3.66       0.00       66.4
16:14             219       32.2         93       14.4      114.8        9.6       17.8       13.3     1009.5       16.6        9.3        6.0        2.0        6.0       2.80      179.0       3.66       0.00       66.4
16:16             218       35.4         93       14.4      114.8        6.0       17.8       13.3     1009.5       16.6        9.3        6.0        1.8        6.0       1.80      179.6       3.69       0.00       66.4
16:18             212       14.5         93       14.4      114.8       10.6       17.8       13.3     1009.5       16.6        9.3        6.0        1.8        6.0       1.40      180.2       3.69       0.00       66.4
16:20             194       24.1         93       14.4      114.8       10.7       17.8       13.3     1009.4       16.6        9.3        6.0        1.8        6.0       1.20      180.7       3.69       0.00       66.4
16:22             196       17.7         93       14.5      114.8       11.4       17.9       13.4     1009.4       16.6        9.3        6.0        1.8        6.0       1.00      181.1       3.69       0.00       66.4
16:24             233       25.7         93       14.6      114.8       11.5       17.9       13.4     1009.4       16.6        9.3        6.0        1.8        6.0       0.80      181.7       3.69       0.00       66.4
16:26             202       29.0         93       14.6      114.8       11.5       17.9       13.4     1009.4       16.6        9.3        6.0        1.8        6.0       0.80      182.4       3.69       0.00       66.4
16:28             202       16.1         93       14.6      114.8       14.6       18.0       13.5     1009.5       16.6        9.3        6.0        1.8        6.0       0.00      182.8       3.69       0.00       66.4
16:30             209       17.7         93       14.6      114.8        9.9       18.0       13.5     1009.5       16.6        9.3        6.0        1.8        6.0       0.00      183.3       3.69       0.00       66.4
16:32             209       17.7         93       14.7      114.8       13.0       18.0       13.5     1009.5       16.6        9.3        6.0        1.6        6.0       0.00      183.6       3.73       0.00       66.4
16:34             196       22.5         93       14.7      114.8       10.9       18.0       13.5     1009.5       16.6        9.3        6.0        1.6        6.0       0.00      184.1       3.73       0.00       66.4
16:36             225       25.7         93       14.7      114.8       11.7       18.1       13.6     1009.6       16.6        9.3        6.0        1.6        6.0       0.00      184.7       3.73       0.00       66.4
16:38             219       29.0         93       14.7      114.8       10.4       18.1       13.6     1009.5       16.6        9.3        6.0        1.6        6.0       0.00      185.2       3.73       0.00       66.4
16:40             187       35.4         93       14.8      114.8       12.4       18.2       13.7     1009.5       16.6        9.3        6.0        1.6        6.0       0.00      185.8       3.73       0.00       66.4
16:42             201       29.0         93       14.8      114.8        9.7       18.2       13.7     1009.4       16.6        9.3        6.0        1.6        6.0       0.00      186.3       3.73       0.00       66.4
16:44             206       30.6         93       14.8      114.8       10.5       18.2       13.7     1009.5       16.6        9.3        6.0        1.6        6.0       0.00      187.0       3.73       0.00       66.4
16:46             203       33.8         93       14.8      114.8       12.5       18.2       13.7     1009.5       16.6        9.3        6.0        1.0        6.0       0.00      187.7       3.76       0.00       66.4
16:48             202       33.8         93       14.9      114.8        9.5       18.3       13.8     1009.4       16.6        9.3        6.0        1.0        6.0       0.00      188.3       3.76       0.00       66.4
16:50             207       37.0         93       14.9      114.8       10.2       18.3       13.8     1009.5       16.6        9.3        6.0        1.0        6.0       0.00      188.9       3.76       0.00       66.4
16:52             190       22.5         93       14.9      114.8       10.2       18.3       13.8     1009.4       16.6        9.3        6.0        1.0        6.0       0.00      189.4       3.76       0.00       66.4
16:54             200       35.4         93       14.9      114.8       11.2       18.3       13.8     1009.5       16.6        9.3        6.0        1.0        6.0       0.00      190.1       3.76       0.00       66.4
16:56             211       35.4         93       14.9      114.8        7.1       18.3       13.8     1009.4       16.6        9.3        6.0        1.0        6.0       0.00      190.7       3.76       0.00       66.4
16:58             187       32.2         92       14.9      114.8        8.7       18.2       13.6     1009.3       16.6        9.3        6.0        1.0        6.0       0.00      191.6       3.76       0.00       66.4
17:00             178       16.1         92       14.9      114.8       14.0       18.2       13.7     1009.4       16.6        9.3        6.0        1.0        6.0       0.00      192.1       3.76       0.00       66.4
17:02             213       40.2         92       15.0      114.8        6.7       18.3       13.7     1009.5       16.6        9.3        6.0        0.6        6.0       0.00      192.6       3.79       0.00       66.4
17:04             202       35.4         92       15.0      114.8        7.6       18.3       13.7     1009.4       16.6        9.3        6.0        0.6        6.0       0.00      193.3       3.79       0.00       66.4
17:06             211       14.5         92       15.1      114.8       11.4       18.4       13.8     1009.5       16.6        9.3        6.0        0.6        6.0       0.00      193.9       3.79       0.00       66.4
17:08             163       33.8         92       15.1      114.8        7.3       18.4       13.8     1009.4       16.6        9.3        6.0        0.6        6.0       0.00      194.6       3.79       0.00       66.4
17:10             213       35.4         92       15.1      114.8        8.3       18.4       13.8     1009.4       16.6        9.3        6.0        0.6        6.0       0.00      195.2       3.79       0.00       66.4
17:12             202       37.0         92       15.1      114.8       10.1       18.4       13.8     1009.4       16.6        9.3        6.0        0.6        6.0       0.00      196.0       3.79       0.00       66.4
17:14             201       14.5         92       15.2      114.8       11.5       18.5       13.9     1009.5       16.6        9.3        6.0        0.6        6.0       0.00      196.6       3.79       0.00       66.4
17:16             219       32.2         91       15.2      114.8        9.1       18.4       13.7     1009.4       16.6        9.3        6.0        0.0        6.0       0.00      197.4       3.82       0.00       66.4
17:18             212       19.3         91       15.2      115.0       10.3       18.4       13.8     1009.4       16.6        9.3        6.2        0.2        6.2       0.00      197.9       3.82       0.00       66.6
17:20             187       24.1         91       15.3      115.0        9.3       18.5       13.8     1009.5       16.6        9.3        6.2        0.2        6.2       0.00      198.5       3.82       0.00       66.6
17:22             217       17.7         91       15.3      115.0       12.3       18.5       13.8     1009.5       16.6        9.3        6.2        0.2        6.2       0.00      199.2       3.82       0.00       66.6
17:24             225       41.8         91       15.3      115.0        7.0       18.5       13.9     1009.5       16.6        9.3        6.2        0.2        6.2       0.00      199.9       3.82       0.00       66.6
17:26             213       33.8         91       15.3      115.0        9.0       18.5       13.9     1009.4       16.6        9.3        6.2        0.2        6.2       0.00      200.6       3.82       0.00       66.6
17:28             215       25.7         91       15.4      115.0        9.4       18.6       13.9     1009.5       16.6        9.3        6.2        0.2        6.2       0.00      201.2       3.82       0.00       66.6
17:30             208       27.4         90       15.4      115.0       10.8       18.5       13.8     1009.5       16.6        9.3        6.2        0.2        6.2       0.00      201.9       3.82       0.00       66.6
17:32             219       20.9         90       15.4      115.0       11.3       18.6       13.8     1009.5       16.6        9.3        6.2        0.2        6.2       0.00      202.4       3.85       0.00       66.6
17:37             200       11.3         90       15.4      115.0       13.2       18.6       13.8     1009.5       16.6        9.3        6.2        0.2        6.2       0.00        0.0       3.85       0.00       66.6
17:39             204       40.2         90       15.4      115.0        7.4       18.6       13.8     1009.5       16.6        9.3        6.2        0.2        6.2       0.00      203.3       3.85       0.00       66.6
17:42             155       37.0         89       15.4      115.0        7.7       18.5       13.6     1009.5       16.6        9.3        6.2        0.2        6.2       0.00      204.1       3.85       0.00       66.6
17:44             180       38.6         89       15.4      115.0       10.1       18.4       13.6     1009.5       16.6        9.3        6.2        0.2        6.2       0.00      204.9       3.85       0.00       66.6
17:45             188       22.5         89       15.4      115.0       10.5       18.4       13.6     1009.5       16.6        9.3        6.2        0.2        6.2       0.00      205.6       3.88       0.00       66.6
17:48             193       27.4         89       15.4      115.0       10.9       18.5       13.6     1009.5       16.6        9.3        6.2        0.2        6.2       0.00      206.3       3.88       0.00       66.6
17:50             212       32.2         89       15.4      115.0        9.5       18.5       13.6     1009.6       16.6        9.3        6.2        0.2        6.2       0.00      206.8       3.88       0.00       66.6
17:51             212       24.1         89       15.4      115.0        9.5       18.5       13.6     1009.6       16.6        9.3        6.2        0.2        6.2       0.00      207.4       3.88       0.00       66.6
17:54             216       32.2         89       15.4      115.0        7.9       18.5       13.6     1009.6       16.6        9.3        6.2        0.2        6.2       0.00      207.9       3.88       0.00       66.6
17:56             219       30.6         89       15.4      115.0        8.4       18.4       13.6     1009.6       16.6        9.3        6.2        0.2        6.2       0.00      208.6       3.88       0.00       66.6
17:58             213       27.4         89       15.4      115.0       10.8       18.4       13.6     1009.5       16.6        9.3        6.2        0.2        6.2       0.00      209.2       3.88       0.00       66.6
18:00             219       17.7         89       15.4      115.0       13.8       18.4       13.6     1009.5       16.6        9.3        6.2        0.2        6.2       0.00      209.7       3.88       0.00       66.6
18:02             240       24.1         89       15.4      115.0        9.4       18.4       13.6     1009.4       16.6        9.3        6.2        0.2        6.2       0.00      210.2       3.90       0.00       66.6
18:04             208       22.5         89       15.4      115.0       10.8       18.4       13.6     1009.5       16.6        9.3        6.2        0.2        6.2       0.00      210.7       3.90       0.00       66.6
18:06             217       27.4         89       15.4      115.0        8.8       18.4       13.6     1009.5       16.6        9.3        6.2        0.2        6.2       0.00      211.3       3.90       0.00       66.6
18:08             207       22.5         89       15.3      115.0       10.8       18.4       13.5     1009.5       16.6        9.3        6.2        0.2        6.2       0.00      212.0       3.90       0.00       66.6
18:10             214       30.6         89       15.3      115.0       10.4       18.4       13.5     1009.6       16.6        9.3        6.2        0.2        6.2       0.00      212.5       3.90       0.00       66.6
18:12             185       25.7         89       15.3      115.0       10.1       18.4       13.5     1009.5       16.6        9.3        6.2        0.2        6.2       0.00      213.1       3.90       0.00       66.6
18:14             205       20.9         89       15.3      115.0       15.3       18.4       13.5     1009.5       16.6        9.3        6.2        0.2        6.2       0.00      213.6       3.90       0.00       66.6
18:16             215       30.6         89       15.3      115.0        8.1       18.4       13.5     1009.5       16.6        9.3        6.2        0.2        6.2       0.00      214.2       3.93       0.00       66.6
18:17             205       27.4         89       15.3      115.0        8.6       18.3       13.5     1009.5       16.6        9.3        6.2        0.2        6.2       0.00      215.0       3.93       0.00       66.6
18:20             212       19.3         89       15.3      115.0       12.3       18.3       13.5     1009.5       16.6        9.3        6.2        0.2        6.2       0.00      215.4       3.93       0.00       66.6
18:22             212       19.3         89       15.3      115.0       11.1       18.3       13.5     1009.6       16.6        9.3        6.2        0.2        6.2       0.00      216.0       3.93       0.00       66.6
18:23             194       27.4         90       15.3      115.0       10.3       18.4       13.6     1009.6       16.6        9.3        6.2        0.2        6.2       0.00      216.6       3.93       0.00       66.6
18:26             200       19.3         90       15.3      115.0       14.4       18.5       13.7     1009.8       16.6        9.3        6.2        0.2        6.2       0.00      217.2       3.93       0.00       66.6
18:28             180       25.7         90       15.3      115.0       10.3       18.4       13.6     1009.7       16.6        9.3        6.2        0.2        6.2       0.00      217.7       3.93       0.00       66.6
18:30             196       16.1         90       15.3      115.0       14.4       18.5       13.7     1009.6       16.6        9.3        6.2        0.2        6.2       0.00      218.1       3.93       0.00       66.6
18:32             210       24.1         90       15.3      115.0        9.3       18.4       13.6     1009.8       16.6        9.3        6.2        0.0        6.2       0.00      218.5       3.96       0.00       66.6
18:34             190       27.4         90       15.3      115.0       13.7       18.4       13.6     1009.7       16.6        9.3        6.2        0.0        6.2       0.00      219.2       3.96       0.00       66.6
18:36             201       33.8         90       15.3      115.0       10.8       18.5       13.7     1009.5       16.6        9.3        6.2        0.0        6.2       0.00      219.9       3.96       0.00       66.6
18:38             175       17.7         90       15.3      115.0       13.0       18.4       13.6     1009.7       16.6        9.3        6.2        0.0        6.2       0.00      220.4       3.96       0.00       66.6
18:40             209       22.5         90       15.3      115.0       12.3       18.4       13.6     1009.7       16.6        9.3        6.2        0.0        6.2       0.00      220.9       3.96       0.00       66.6
18:42             188       29.0         90       15.2      115.0        8.2       18.4       13.6     1009.7       16.6        9.3        6.2        0.0        6.2       0.00      221.4       3.96       0.00       66.6
18:44             188       41.8         90       15.2      115.0       10.3       18.4       13.6     1009.7       16.6        9.3        6.2        0.0        6.2       0.00      222.3       3.96       0.00       66.6
18:46             207       17.7         91       15.2      115.0       12.9       18.4       13.8     1009.8       16.6        9.3        6.2        0.0        6.2       0.00      222.8       3.99       0.00       66.6
18:48             227       27.4         91       15.2      115.0        8.5       18.4       13.8     1009.8       16.6        9.3        6.2        0.0        6.2       0.00      223.4       3.99       0.00       66.6
18:50             203       20.9         91       15.2      115.2       10.2       18.4       13.7     1009.7       16.6        9.3        6.4        0.2        6.4       0.00      223.9       3.99       0.00       66.8
18:52             201       24.1         91       15.1      115.2       12.8       18.3       13.7     1009.6       16.6        9.3        6.4        0.2        6.4       0.00      224.5       3.99       0.00       66.8
18:54             185       20.9         91       15.1      115.2       12.8       18.3       13.7     1009.7       16.6        9.3        6.4        0.2        6.4       0.00      225.2       3.99       0.00       66.8
18:56             211       22.5         91       15.1      115.2       12.8       18.3       13.7     1009.7       16.6        9.3        6.4        0.2        6.4       0.00      225.7       3.99       0.00       66.8
18:58             193       32.2         91       15.1      115.2        8.4       18.3       13.7     1009.7       16.6        9.3        6.4        0.2        6.4       0.00      226.3       3.99       0.00       66.8
19:00             190       24.1         91       15.1      115.2       10.5       18.3       13.7     1009.7       16.6        9.3        6.4        0.2        6.4       0.00      226.9       3.99       0.00       66.8
19:02             194       22.5         91       15.1      115.2        9.4       18.3       13.7     1009.6       16.6        9.3        6.4        0.2        6.4       0.00      227.4       4.02       0.00       66.8
19:04             223       24.1         91       15.1      115.4       10.8       18.3       13.6     1009.7       16.6        9.3        6.6        0.4        6.6       0.80      228.0       4.02       0.00       67.0
19:06             209       14.5         91       15.1      115.4       11.4       18.3       13.6     1009.8       16.6        9.3        6.6        0.4        6.6       0.80      228.6       4.02       0.00       67.0
19:07             218       38.6         92       15.1      115.6        8.6       18.4       13.8     1009.7       16.6        9.3        6.8        0.4        6.6       2.40      229.2       4.02       0.00       67.2
19:10             221       24.1         92       15.1      115.6        9.0       18.4       13.8     1009.7       16.6        9.3        6.8        0.6        6.8       2.40      229.9       4.02       0.00       67.2
19:12             205       29.0         92       15.0      115.8       13.3       18.3       13.7     1009.7       16.6        9.3        7.0        0.8        7.0       3.20      230.4       4.02       0.00       67.4
19:13             240       25.7         92       15.0      115.8        8.6       18.3       13.7     1009.9       16.6        9.3        7.0        0.8        7.0       3.20      230.9       4.02       0.00       67.4
19:16             190       27.4         92       15.0      115.8       10.4       18.3       13.7     1009.8       16.6        9.3        7.0        0.8        7.0       2.60      231.5       4.05       0.00       67.4
19:18             213       30.6         92       15.0      116.0       10.4       18.3       13.7     1009.9       16.6        9.3        7.2        1.0        7.2       1.80      232.3       4.05       0.00       67.6
19:20             202       30.6         92       15.0      116.0        8.2       18.3       13.7     1009.9       16.6        9.3        7.2        1.0        7.2       1.80      233.0       4.05       0.00       67.6
19:21             195       20.9         92       15.0      116.0       10.4       18.3       13.7     1010.0       16.6        9.3        7.2        1.0        7.2       1.80      233.6       4.05       0.00       67.6
19:24             176       30.6         92       15.0      116.0       10.7       18.3       13.7     1010.0       16.6        9.3        7.2        1.0        7.2       1.80      234.4       4.05       0.00       67.6
19:26             214       30.6         92       14.9      116.0        9.6       18.2       13.7     1009.9       16.6        9.3        7.2        1.0        7.2       1.40      235.0       4.05       0.00       67.6
19:28             214       33.8         92       15.0      116.0        7.6       18.3       13.7     1009.9       16.6        9.3        7.2        1.0        7.2       1.20      235.6       4.05       0.00       67.6
19:30             217       22.5         92       15.0      116.0       12.0       18.3       13.7     1010.1       16.6        9.3        7.2        1.0        7.2       1.00      236.2       4.05       0.00       67.6
19:32             215       17.7         92       15.0      116.0       13.3       18.3       13.7     1010.0       16.6        9.3        7.2        1.0        7.2       0.80      236.8       4.08       0.00       67.6
19:34             194       32.2         93       14.9      116.0       10.3       18.3       13.8     1010.3       16.6        9.3        7.2        1.0        7.2       0.80      237.3       4.08       0.00       67.6
19:36             186       30.6         93       15.0      116.0        9.6       18.4       13.9     1010.1       16.6        9.3        7.2        1.0        7.2       0.00      238.0       4.08       0.00       67.6
19:38             220       22.5         93       14.9      116.0        9.2       18.3       13.8     1010.1       16.6        9.3        7.2        1.0        7.2       0.00      238.5       4.08       0.00       67.6
19:40             227       29.0         93       14.9      116.2       11.9       18.3       13.8     1010.1       16.6        9.3        7.4        1.2        7.4       0.00      239.0       4.08       0.00       67.8
19:42             209       11.3         93       14.9      116.2       14.9       18.3       13.8     1010.1       16.6        9.3        7.4        1.2        7.4       0.00      239.4       4.08       0.00       67.8
19:43             221       14.5         93       14.9      116.2       12.6       18.3       13.8     1010.2       16.6        9.3        7.4        1.2        7.4       0.00      239.8       4.08       0.00       67.8
19:46             219       14.5         93       14.9      116.2       14.9       18.3       13.8     1010.2       16.6        9.3        7.4        1.2        7.4       0.00      240.1       4.11       0.00       67.8
19:48             192       20.9         93       14.9      116.4       10.6       18.3       13.8     1010.2       16.6        9.3        7.6        1.4        7.6       1.40      240.5       4.11       0.00       68.0
19:50             217       19.3         93       14.9      116.4       10.6       18.3       13.8     1010.3       16.6        9.3        7.6        1.4        7.6       1.40      241.1       4.11       0.00       68.0
19:51             223       30.6         93       14.9      116.4       12.6       18.3       13.8     1010.3       16.6        9.3        7.6        1.4        7.6       1.40      241.6       4.11       0.00       68.0
19:53             215       20.9         93       14.9      116.4       13.3       18.3       13.8     1010.2       16.6        9.3        7.6        1.4        7.6       1.40      242.1       4.11       0.00       68.0
19:56             211       16.1         93       14.9      116.4       11.9       18.3       13.8     1010.3       16.6        9.3        7.6        1.4        7.6       1.40      242.4       4.11       0.00       68.0
19:57             247       29.0         93       14.9      116.4        8.4       18.3       13.8     1010.2       16.6        9.3        7.6        1.4        7.6       1.20      242.9       4.11       0.00       68.0
20:00             238       22.5         93       14.9      116.4        9.6       18.3       13.8     1010.2       16.6        9.3        7.6        1.4        7.6       1.00      243.4       4.11       0.00       68.0
20:02             216       20.9         93       14.9      116.4       10.3       18.3       13.8     1010.3       16.6        9.3        7.6        1.2        7.6       0.80      244.0       4.15       0.00       68.0
20:04             225        9.7         93       14.9      116.4       14.9       18.3       13.8     1010.3       16.6        9.3        7.6        1.2        7.6       0.80      244.3       4.15       0.00       68.0
20:06             220       11.3         93       14.9      116.4       14.0       18.3       13.8     1010.3       16.6        9.3        7.6        1.2        7.6       0.00      244.6       4.15       0.00       68.0
20:08             215       19.3         93       14.9      116.4       13.3       18.3       13.8     1010.3       16.6        9.3        7.6        1.2        7.6       0.00      245.0       4.15       0.00       68.0
20:10             213       14.5         93       14.9      116.6       14.9       18.3       13.8     1010.4       16.6        9.3        7.8        1.4        7.8       0.00      245.3       4.15       0.00       68.2
20:12             247       20.9         93       14.9      117.2       10.3       18.3       13.8     1010.4       16.6        9.3        8.4        2.0        8.4      40.60      245.7       4.15       0.00       68.8
20:14             217       12.9         93       14.9      117.4       12.6       18.3       13.8     1010.4       16.6        9.3        8.6        2.2        8.6       6.00      246.2       4.15       0.00       69.0
20:16             196       35.4         93       14.9      118.0       11.3       18.3       13.8     1010.3       16.6        9.3        9.2        2.2        9.2      22.40      246.6       4.18       0.00       69.6
20:18             227       22.5         93       14.9      119.2        9.5       18.3       13.8     1010.4       16.6        9.3       10.4        3.4       10.4      33.60      247.2       4.18       0.00       70.8
20:20             243       24.1         93       14.8      120.4       13.1       18.2       13.7     1010.5       16.6        9.3       11.6        4.6       11.6      21.40      247.9       4.18       0.00       72.0
20:22             223       29.0         93       14.7      121.2       12.4       18.1       13.6     1010.5       16.6        9.3       12.4        5.4       12.4      31.00      248.5       4.18       0.00       72.8
20:24             246       27.4         93       14.7      121.4       11.7       18.1       13.6     1010.5       16.6        9.3       12.6        5.6       12.6       9.40      248.9       4.18       0.00       73.0
20:26             212       12.9         93       14.8      121.4       14.8       18.2       13.7     1010.5       16.6        9.3       12.6        5.6       12.6       3.60      249.2       4.18       0.00       73.0
20:28             229       17.7         94       14.8      121.4       13.2       18.3       13.9     1010.5       16.6        9.3       12.6        5.6       12.6       2.40      249.5       4.18       0.00       73.0
20:30             236       19.3         94       14.9      121.6       12.6       18.4       13.9     1010.5       16.6        9.3       12.8        5.8       12.8       2.00      249.9       4.18       0.00       73.2
20:32             222       25.7         94       14.9      121.6       10.6       18.4       13.9     1010.6       16.6        9.3       12.8        5.6       12.8       2.00      250.5       4.21       0.00       73.2
20:34             227       20.9         94       14.9      121.6       12.6       18.4       14.0     1010.6       16.6        9.3       12.8        5.6       12.8       2.00      251.1       4.21       0.00       73.2
20:35             213       17.7         94       14.9      121.6       11.9       18.4       14.0     1010.6       16.6        9.3       12.8        5.6       12.8       1.60      251.5       4.21       0.00       73.2
20:38             229       22.5         94       14.9      121.6        9.2       18.4       14.0     1010.6       16.6        9.3       12.8        5.6       12.8       1.20      252.2       4.21       0.00       73.2
20:40             208       19.3         94       14.9      121.6       11.9       18.4       14.0     1010.6       16.6        9.3       12.8        5.6       12.8       1.00      252.6       4.21       0.00       73.2
20:42             205       27.4         94       14.9      121.6       10.6       18.4       14.0     1010.6       16.6        9.3       12.8        5.6       12.8       1.00      252.9       4.21       0.00       73.2
20:44             213       27.4         94       15.0      121.6        8.2       18.5       14.0     1010.7       16.6        9.3       12.8        5.6       12.8       0.80      253.4       4.21       0.00       73.2
20:46             224       17.7         94       15.0      121.6       15.0       18.5       14.0     1010.6       16.6        9.3       12.8        5.4       12.8       0.00      253.9       4.24       0.00       73.2
20:47             217       17.7         94       15.0      121.8       10.4       18.5       14.0     1010.7       16.6        9.3       13.0        5.6       13.0       0.00      254.3       4.24       0.00       73.4
20:50             196       29.0         94       15.0      121.8        9.6       18.5       14.0     1010.6       16.6        9.3       13.0        5.6       13.0       0.00      254.8       4.24       0.00       73.4
20:52             227       16.1         94       15.0      121.8       13.3       18.5       14.0     1010.7       16.6        9.3       13.0        5.6       13.0       0.00      255.3       4.24       0.00       73.4
20:54             209       16.1         94       15.0      121.8       15.0       18.5       14.0     1010.6       16.6        9.3       13.0        5.6       13.0       0.00      255.8       4.24       0.00       73.4
20:56             221       24.1         94       15.0      121.8       12.0       18.5       14.0     1010.8       16.6        9.3       13.0        5.6       13.0       0.00      256.3       4.24       0.00       73.4
20:58             215       19.3         94       15.0      121.8       11.3       18.5       14.0     1010.9       16.6        9.3       13.0        5.6       13.0       0.00      256.8       4.24       0.00       73.4
21:00             208       27.4         94       15.0      121.8        8.2       18.5       14.0     1010.8       16.6        9.3       13.0        5.6       13.0       0.00      257.2       4.24       0.00       73.4
21:02             216       22.5         94       15.0      121.8        9.3       18.5       14.0     1010.8       16.6        9.3       13.0        5.4       13.0       0.00      257.7       4.27       0.00       73.4
21:04             209       14.5         94       14.9      121.8       13.3       18.4       14.0     1010.9       16.6        9.3       13.0        5.4       13.0       0.00      258.2       4.27       0.00       73.4
21:06             221       29.0         94       15.0      121.8        9.3       18.5       14.0     1010.9       16.6        9.3       13.0        5.4       13.0       0.00      258.8       4.27       0.00       73.4
21:08             224       20.9         94       14.9      121.8       12.6       18.4       14.0     1010.9       16.6        9.3       13.0        5.4       13.0       0.00      259.3       4.27       0.00       73.4
21:10             202       16.1         94       14.9      121.8       14.9       18.4       14.0     1011.0       16.6        9.3       13.0        5.4       13.0       0.00      259.7       4.27       0.00       73.4
21:12             205       22.5         94       14.9      121.8       10.3       18.4       14.0     1010.8       16.6        9.3       13.0        5.4       13.0       0.00      260.2       4.27       0.00       73.4
21:14             240       22.5         94       14.9      121.8        9.6       18.4       14.0     1011.0       16.6        9.3       13.0        5.4       13.0       0.00      260.8       4.27       0.00       73.4
21:16             211       24.1         94       14.9      121.8       10.3       18.4       14.0     1011.0       16.6        9.3       13.0        4.2       13.0       0.00      261.4       4.30       0.00       73.4
21:18             223       14.5         94       14.9      121.8       13.3       18.4       14.0     1010.9       16.6        9.3       13.0        4.2       13.0       0.00      261.9       4.30       0.00       73.4
21:20             225       20.9         94       14.9      121.8       10.3       18.4       14.0     1011.0       16.6        9.3       13.0        4.2       13.0       0.00      262.4       4.30       0.00       73.4
21:22             231       19.3         94       14.9      121.8       14.0       18.4       14.0     1011.1       16.6        9.3       13.0        4.2       13.0       0.00      262.9       4.30       0.00       73.4
21:24             213       14.5         94       14.9      121.8       11.3       18.4       14.0     1011.0       16.6        9.3       13.0        4.2       13.0       0.00      263.3       4.30       0.00       73.4
21:25             202       20.9         94       14.9      121.8       12.6       18.4       14.0     1011.1       16.6        9.3       13.0        4.2       13.0       0.00      263.7       4.30       0.00       73.4
21:27             213       17.7         94       14.9      121.8       12.6       18.4       13.9     1011.0       16.6        9.3       13.0        4.2       13.0       0.00      264.2       4.30       0.00       73.4
21:30             215       17.7         94       14.9      121.8       10.6       18.4       14.0     1011.1       16.6        9.3       13.0        4.2       13.0       0.00      264.6       4.30       0.00       73.4
21:31             209       14.5         94       14.9      121.8       14.9       18.4       14.0     1011.0       16.6        9.3       13.0        0.2       13.0       0.00      265.1       4.34       0.00       73.4
21:34             221       11.3         94       14.9      121.8       14.9       18.4       14.0     1011.1       16.6        9.3       13.0        0.2       13.0       0.00      265.5       4.34       0.00       73.4
21:36             232       17.7         94       14.9      121.8       10.3       18.4       14.0     1011.2       16.6        9.3       13.0        0.2       13.0       0.00      265.9       4.34       0.00       73.4
21:38             212       20.9         94       14.9      121.8        9.9       18.4       14.0     1011.2       16.6        9.3       13.0        0.2       13.0       0.00      266.4       4.34       0.00       73.4
21:40             215       24.1         94       14.9      121.8       10.6       18.4       14.0     1011.2       16.6        9.3       13.0        0.2       13.0       0.00      266.9       4.34       0.00       73.4
21:42             207       27.4         94       14.9      121.8        9.6       18.4       14.0     1010.9       16.6        9.3       13.0        0.2       13.0       0.00      267.4       4.34       0.00       73.4
21:44             224       16.1         94       14.9      121.8       10.6       18.4       14.0     1011.1       16.6        9.3       13.0        0.2       13.0       0.00      268.0       4.34       0.00       73.4
21:46             212       29.0         94       14.9      121.8        9.6       18.4       14.0     1011.1       16.6        9.3       13.0        0.2       13.0       0.00      268.5       4.37       0.00       73.4
21:48             208       24.1         94       15.0      121.8        9.3       18.5       14.0     1011.2       16.6        9.3       13.0        0.2       13.0       0.00      269.1       4.37       0.00       73.4
21:50             215       25.7         94       15.0      121.8        8.9       18.5       14.0     1011.2       16.6        9.3       13.0        0.2       13.0       0.00      269.6       4.37       0.00       73.4
21:52             215       16.1         94       15.0      121.8       12.7       18.5       14.0     1011.3       16.6        9.3       13.0        0.2       13.0       0.00      270.0       4.37       0.00       73.4
21:54             212       30.6         94       15.0      121.8        8.2       18.5       14.0     1011.1       16.6        9.3       13.0        0.2       13.0       0.00      270.5       4.37       0.00       73.4
21:56             215       20.9         94       15.1      121.8       10.8       18.5       14.1     1011.2       16.6        9.3       13.0        0.2       13.0       0.00      271.0       4.37       0.00       73.4
21:58             217       16.1         94       15.1      121.8       12.1       18.5       14.1     1011.2       16.6        9.3       13.0        0.2       13.0       0.00      271.5       4.37       0.00       73.4
22:00             234       27.4         94       15.1      121.8        9.7       18.5       14.1     1011.2       16.6        9.3       13.0        0.2       13.0       0.00      271.9       4.37       0.00       73.4
22:01             225       30.6         94       15.1      121.8        7.7       18.5       14.1     1011.2       16.6        9.3       13.0        0.0       13.0       0.00      272.5       4.40       0.00       73.4
22:04             210       24.1         94       15.1      121.8       11.4       18.5       14.1     1011.2       16.6        9.3       13.0        0.0       13.0       0.00      273.1       4.40       0.00       73.4
22:06             202       20.9         94       15.0      121.8       12.0       18.5       14.0     1011.2       16.6        9.3       13.0        0.0       13.0       0.00      273.7       4.40       0.00       73.4
22:08             242       19.3         94       15.0      121.8       12.0       18.5       14.0     1011.1       16.6        9.3       13.0        0.0       13.0       0.00      274.3       4.40       0.00       73.4
22:09             202       19.3         94       15.0      121.8       10.0       18.5       14.0     1011.2       16.6        9.3       13.0        0.0       13.0       0.00      274.7       4.40       0.00       73.4
22:12             211       27.4         94       15.0      121.8        8.6       18.5       14.0     1011.2       16.6        9.3       13.0        0.0       13.0       0.00      275.5       4.40       0.00       73.4
22:14             205       27.4         94       14.9      121.8       11.9       18.4       14.0     1011.0       16.6        9.3       13.0        0.0       13.0       0.00      275.9       4.40       0.00       73.4
22:15             194       27.4         94       14.9      121.8        9.9       18.4       14.0     1011.0       16.6        9.3       13.0        0.0       13.0       0.00      276.4       4.43       0.00       73.4
22:18             211       20.9         94       14.9      121.8        9.6       18.4       14.0     1010.9       16.6        9.3       13.0        0.0       13.0       0.00      276.9       4.43       0.00       73.4
22:20             201       14.5         94       14.9      121.8       14.0       18.4       14.0     1010.9       16.6        9.3       13.0        0.0       13.0       0.00      277.3       4.43       0.00       73.4
22:22             204       12.9         94       14.9      121.8       14.0       18.4       14.0     1011.0       16.6        9.3       13.0        0.0       13.0       0.00      277.7       4.43       0.00       73.4
22:24             223       19.3         94       14.9      121.8       14.9       18.4       13.9     1011.0       16.6        9.3       13.0        0.0       13.0       0.00      278.3       4.43       0.00       73.4
22:26             211       25.7         94       14.9      121.8        8.4       18.4       13.9     1010.9       16.6        9.3       13.0        0.0       13.0       0.00      278.9       4.43       0.00       73.4
22:27             203       33.8         94       14.9      121.8        8.4       18.4       13.9     1010.9       16.6        9.3       13.0        0.0       13.0       0.00      279.6       4.43       0.00       73.4
22:30             213       27.4         94       14.9      121.8       10.6       18.4       13.9     1011.1       16.6        9.3       13.0        0.0       13.0       0.00      280.2       4.43       0.00       73.4
22:32             218       19.3         94       14.9      121.8        9.8       18.4       13.9     1010.9       16.6        9.3       13.0        0.0       13.0       0.00      280.6       4.46       0.00       73.4
22:34             196       20.9         94       14.8      121.8       14.8       18.3       13.9     1011.0       16.6        9.3       13.0        0.0       13.0       0.00      281.2       4.46       0.00       73.4
22:36             203       14.5         94       14.9      121.8       12.6       18.4       13.9     1010.9       16.6        9.3       13.0        0.0       13.0       0.00      281.6       4.46       0.00       73.4
22:38             194       29.0         94       14.9      121.8       11.2       18.4       13.9     1010.9       16.6        9.3       13.0        0.0       13.0       0.00      282.1       4.46       0.00       73.4
22:40             220       22.5         94       14.9      121.8       13.2       18.4       13.9     1010.8       16.6        9.3       13.0        0.0       13.0       0.00      282.6       4.46       0.00       73.4
22:42             211       17.7         94       14.8      121.8       11.8       18.3       13.9     1010.9       16.6        9.3       13.0        0.0       13.0       0.00      283.0       4.46       0.00       73.4
22:44             215       32.2         94       14.8      122.0       13.8       18.3       13.9     1010.8       16.6        9.3       13.2        0.2       13.2       0.00      283.7       4.46       0.00       73.6
22:46             215       20.9         94       14.8      122.0       12.5       18.3       13.9     1010.8       16.6        9.3       13.2        0.2       13.2       0.00      284.2       4.50       0.00       73.6
22:48             211       24.1         94       14.8      122.0        9.8       18.3       13.9     1010.8       16.6        9.3       13.2        0.2       13.2       0.00      284.7       4.50       0.00       73.6
22:50             223       20.9         93       14.8      122.0        9.8       18.2       13.7     1010.9       16.6        9.3       13.2        0.2       13.2       0.00      285.3       4.50       0.00       73.6
22:52             227       16.1         94       14.8      122.0       12.5       18.3       13.9     1010.9       16.6        9.3       13.2        0.2       13.2       0.00      285.8       4.50       0.00       73.6
22:53             265       20.9         94       14.8      122.0        9.8       18.3       13.9     1011.0       16.6        9.3       13.2        0.2       13.2       0.00      286.4       4.50       0.00       73.6
22:56             226       30.6         94       14.8      122.0        8.0       18.3       13.9     1011.0       16.6        9.3       13.2        0.2       13.2       0.00      286.9       4.50       0.00       73.6
22:58             234       16.1         94       14.8      122.0       11.1       18.2       13.8     1010.9       16.6        9.3       13.2        0.2       13.2       0.00      287.5       4.50       0.00       73.6
23:00             240       17.7         94       14.8      122.0       10.1       18.2       13.8     1011.1       16.6        9.3       13.2        0.2       13.2       0.00      288.0       4.50       0.00       73.6
23:02             196       29.0         94       14.8      122.0        9.7       18.2       13.8     1011.1       16.6        9.3       13.2        0.2       13.2       0.00      288.5       4.53       0.00       73.6
23:04             212       30.6         93       14.7      122.0        7.2       18.1       13.6     1011.0       16.6        9.3       13.2        0.2       13.2       0.00      289.0       4.53       0.00       73.6
23:06             215       22.5         93       14.7      122.0       10.4       18.1       13.6     1011.1       16.6        9.3       13.2        0.2       13.2       0.00      289.4       4.53       0.00       73.6
23:08             231        9.7         93       14.7      122.0       13.7       18.0       13.5     1011.1       16.6        9.3       13.2        0.2       13.2       0.00      289.9       4.53       0.00       73.6
23:09             229       17.7         93       14.6      122.0       10.9       18.0       13.5     1011.1       16.6        9.3       13.2        0.2       13.2       0.00      290.3       4.53       0.00       73.6
23:12             223       12.9         94       14.6      122.0       11.6       18.1       13.7     1011.2       16.6        9.3       13.2        0.2       13.2       0.00      290.7       4.53       0.00       73.6
23:14             213       17.7         94       14.6      122.0       13.6       18.1       13.7     1011.2       16.6        9.3       13.2        0.2       13.2       0.00      291.0       4.53       0.00       73.6
23:16             219       16.1         94       14.6      122.0       10.2       18.0       13.6     1011.2       16.6        9.3       13.2        0.2       13.2       0.00      291.3       4.56       0.00       73.6
23:18             219       16.1         94       14.6      122.0       12.2       18.0       13.6     1011.2       16.6        9.3       13.2        0.2       13.2       0.00      291.7       4.56       0.00       73.6
23:20             215       14.5         94       14.6      122.0       10.8       18.0       13.6     1011.2       16.6        9.3       13.2        0.2       13.2       0.00      292.1       4.56       0.00       73.6
23:22             230       17.7         94       14.6      122.0       14.6       18.0       13.6     1011.2       16.6        9.3       13.2        0.2       13.2       0.00      292.5       4.56       0.00       73.6
23:24             217       16.1         94       14.5      122.0       11.4       18.0       13.5     1011.1       16.6        9.3       13.2        0.2       13.2       0.00      292.8       4.56       0.00       73.6
23:26             232       12.9         94       14.5      122.0       11.4       18.0       13.5     1011.2       16.6        9.3       13.2        0.2       13.2       0.00      293.1       4.56       0.00       73.6
23:28             210       16.1         94       14.6      122.0       10.2       18.0       13.6     1011.2       16.6        9.3       13.2        0.2       13.2       0.00      293.4       4.56       0.00       73.6
23:30             215       14.5         94       14.5      122.0       11.4       18.0       13.5     1011.2       16.6        9.3       13.2        0.2       13.2       0.00      293.7       4.56       0.00       73.6
23:32             202       12.9         94       14.5      122.0       12.1       18.0       13.5     1011.2       16.6        9.3       13.2        0.2       13.2       0.00      294.1       4.60       0.00       73.6
23:34             227       19.3         94       14.5      122.0       12.1       18.0       13.5     1011.2       16.6        9.3       13.2        0.2       13.2       0.00      294.5       4.60       0.00       73.6
23:36             227       14.5         94       14.5      122.0       12.1       18.0       13.5     1011.2       16.6        9.3       13.2        0.2       13.2       0.00      294.9       4.60       0.00       73.6
23:38             215       17.7         94       14.5      122.0       10.1       18.0       13.5     1011.2       16.6        9.3       13.2        0.2       13.2       0.00      295.3       4.60       0.00       73.6
23:40             222       12.9         94       14.5      122.0       14.5       18.0       13.5     1011.2       16.6        9.3       13.2        0.2       13.2       0.00      295.6       4.60       0.00       73.6
23:42             202        8.0         94       14.5      122.0       13.5       18.0       13.5     1011.2       16.6        9.3       13.2        0.2       13.2       0.00      295.9       4.60       0.00       73.6
23:43             206       17.7         94       14.5      122.0       13.5       18.0       13.5     1011.2       16.6        9.3       13.2        0.2       13.2       0.00      296.3       4.60       0.00       73.6
23:46             237       17.7         94       14.5      122.0       14.5       18.0       13.5     1011.2       16.6        9.3       13.2        0.0       13.2       0.00      296.7       4.64       0.00       73.6
23:48             237       24.1         94       14.5      122.0        9.7       18.0       13.5     1011.3       16.6        9.3       13.2        0.0       13.2       0.00      297.0       4.64       0.00       73.6
23:49             211       22.5         94       14.5      122.0       12.1       18.0       13.5     1011.2       16.6        9.3       13.2        0.0       13.2       0.00      297.4       4.64       0.00       73.6
23:52             213       12.9         94       14.5      122.0       13.5       18.0       13.5     1011.1       16.6        9.3       13.2        0.0       13.2       0.00      297.8       4.64       0.00       73.6
23:54             217       19.3         94       14.6      122.0       13.5       18.0       13.6     1011.2       16.6        9.3       13.2        0.0       13.2       0.00      298.1       4.64       0.00       73.6
23:56             217       16.1         94       14.5      122.0       14.5       18.0       13.5     1011.2       16.6        9.3       13.2        0.0       13.2       0.00      298.4       4.64       0.00       73.6
23:58             225        9.7         94       14.5      122.0       13.5       18.0       13.5     1011.2       16.6        9.3       13.2        0.0       13.2       0.00      298.7       4.64       0.00       73.6


Detalle de hace 2 das:

23/4/19
Time         Wind Dir  Wind Gust   Humidity       Temp   Tot Rain Wind Chill Heat Index  Dew Point   Barom SL Temp Out H Temp Out L  DailyRain   HourRain   24HrRain   RainRate   Wind Run   Deg Heat   Deg Cool  MonthRain
                          km/hr          %         C         mm         C         C         C         mb         C         C         mm         mm         mm      mm/hr         km         C         C         mm
0:00              226       11.3         80       14.4      100.0       14.4       16.7       11.0     1001.2       14.4       14.4        0.0        0.0        0.0       0.00      177.9       2.08       0.20       51.6
0:02              213       11.3         80       14.4      100.0       14.4       16.7       11.0     1001.1       14.4       14.3        0.0        0.0        0.0       0.00        0.3       0.04       0.00       51.6
0:04              217       11.3         80       14.4      100.0       13.4       16.7       11.0     1001.1       14.4       14.3        0.0        0.0        0.0       0.00        0.6       0.04       0.00       51.6
0:06              226        9.7         80       14.4      100.0       14.4       16.7       11.0     1000.9       14.4       14.3        0.0        0.0        0.0       0.00        0.8       0.04       0.00       51.6
0:08              220        9.7         80       14.4      100.0       13.4       16.7       11.0     1001.0       14.4       14.3        0.0        0.0        0.0       0.00        1.1       0.04       0.00       51.6
0:10              219        9.7         80       14.4      100.0       13.4       16.7       11.0     1001.0       14.4       14.3        0.0        0.0        0.0       0.00        1.3       0.04       0.00       51.6
0:12              218       12.9         80       14.4      100.0       14.4       16.7       11.0     1001.0       14.4       14.3        0.0        0.0        0.0       0.00        1.6       0.04       0.00       51.6
0:14              217       12.9         80       14.4      100.0       14.4       16.7       11.0     1000.9       14.4       14.3        0.0        0.0        0.0       0.00        1.8       0.04       0.00       51.6
0:16              221        9.7         80       14.4      100.0       14.4       16.7       11.0     1000.9       14.4       14.3        0.0        0.0        0.0       0.00        2.0       0.08       0.00       51.6
0:18              213       11.3         80       14.4      100.0       13.4       16.7       11.0     1001.0       14.4       14.3        0.0        0.0        0.0       0.00        2.2       0.08       0.00       51.6
0:20              213        9.7         80       14.3      100.0       12.6       16.7       10.9     1000.9       14.4       14.3        0.0        0.0        0.0       0.00        2.4       0.08       0.00       51.6
0:22              211        6.4         81       14.4      100.0       14.4       16.8       11.2     1000.8       14.4       14.3        0.0        0.0        0.0       0.00        2.7       0.08       0.00       51.6
0:24              202        8.0         81       14.3      100.0       14.3       16.8       11.1     1000.9       14.4       14.3        0.0        0.0        0.0       0.00        2.9       0.08       0.00       51.6
0:26              209        8.0         81       14.3      100.0       13.3       16.8       11.1     1000.8       14.4       14.3        0.0        0.0        0.0       0.00        3.1       0.08       0.00       51.6
0:28              209        4.8         81       14.3      100.0       14.3       16.8       11.1     1000.8       14.4       14.3        0.0        0.0        0.0       0.00        3.3       0.08       0.00       51.6
0:30              200        4.8         81       14.3      100.0       14.3       16.8       11.1     1000.8       14.4       14.3        0.0        0.0        0.0       0.00        3.5       0.08       0.00       51.6
0:32              198       14.5         81       14.3      100.0       14.3       16.8       11.1     1000.7       14.4       14.3        0.0        0.0        0.0       0.00        3.7       0.11       0.00       51.6
0:34              210       12.9         81       14.3      100.0       14.3       16.8       11.1     1000.8       14.4       14.3        0.0        0.0        0.0       0.00        4.0       0.11       0.00       51.6
0:36              211        4.8         81       14.3      100.0       14.3       16.8       11.1     1000.7       14.4       14.3        0.0        0.0        0.0       0.00        4.1       0.11       0.00       51.6
0:38              211        9.7         81       14.3      100.0       14.3       16.8       11.1     1000.7       14.4       14.3        0.0        0.0        0.0       0.00        4.3       0.11       0.00       51.6
0:40              217       11.3         81       14.3      100.0       14.3       16.8       11.1     1000.7       14.4       14.3        0.0        0.0        0.0       0.00        4.6       0.11       0.00       51.6
0:42              217       12.9         82       14.3      100.0       11.2       16.8       11.3     1000.7       14.4       14.3        0.0        0.0        0.0       0.00        4.8       0.11       0.00       51.6
0:44              221        6.4         82       14.3      100.0       14.3       16.8       11.3     1000.6       14.4       14.3        0.0        0.0        0.0       0.00        5.0       0.11       0.00       51.6
0:46              215        8.0         82       14.3      100.0       14.3       16.8       11.3     1000.6       14.4       14.3        0.0        0.0        0.0       0.00        5.2       0.15       0.00       51.6
0:48              207        9.7         82       14.3      100.0       14.3       16.8       11.3     1000.6       14.4       14.3        0.0        0.0        0.0       0.00        5.5       0.15       0.00       51.6
0:50              204       11.3         83       14.3      100.0       14.3       16.9       11.5     1000.6       14.4       14.3        0.0        0.0        0.0       0.00        5.7       0.15       0.00       51.6
0:52              207        8.0         83       14.3      100.0       14.3       16.9       11.5     1000.5       14.4       14.3        0.0        0.0        0.0       0.00        5.8       0.15       0.00       51.6
0:54              215       17.7         83       14.3      100.0       14.3       16.9       11.5     1000.4       14.4       14.3        0.0        0.0        0.0       0.00        6.1       0.15       0.00       51.6
0:56              219        8.0         83       14.3      100.0       14.3       16.9       11.4     1000.4       14.4       14.3        0.0        0.0        0.0       0.00        6.5       0.15       0.00       51.6
0:58              217        8.0         84       14.3      100.0       13.3       16.9       11.6     1000.4       14.4       14.3        0.0        0.0        0.0       0.00        6.6       0.15       0.00       51.6
1:00              213       12.9         84       14.3      100.0       11.2       16.9       11.6     1000.3       14.4       14.3        0.0        0.0        0.0       0.00        6.9       0.15       0.00       51.6
1:02              211       11.3         84       14.3      100.0       13.3       16.9       11.6     1000.4       14.4       14.3        0.0        0.0        0.0       0.00        7.1       0.19       0.00       51.6
1:04              210        9.7         84       14.3      100.0       14.3       16.9       11.6     1000.3       14.4       14.3        0.0        0.0        0.0       0.00        7.3       0.19       0.00       51.6
1:06              204        8.0         84       14.3      100.0       14.3       16.9       11.6     1000.3       14.4       14.3        0.0        0.0        0.0       0.00        7.5       0.19       0.00       51.6
1:08              209        8.0         84       14.3      100.0       14.3       16.9       11.6     1000.3       14.4       14.3        0.0        0.0        0.0       0.00        7.7       0.19       0.00       51.6
1:10              210        9.7         85       14.3      100.0       14.3       17.1       11.8     1000.3       14.4       14.3        0.0        0.0        0.0       0.00        7.9       0.19       0.00       51.6
1:12              212        9.7         85       14.3      100.0       14.3       17.0       11.8     1000.1       14.4       14.3        0.0        0.0        0.0       0.00        8.1       0.19       0.00       51.6
1:14              201        8.0         85       14.3      100.0       14.3       17.0       11.8     1000.2       14.4       14.3        0.0        0.0        0.0       0.00        8.3       0.19       0.00       51.6
1:16              219        8.0         85       14.3      100.0       14.3       17.0       11.8     1000.1       14.4       14.3        0.0        0.0        0.0       0.00        8.6       0.23       0.00       51.6
1:18              221        9.7         85       14.2      100.0       13.2       17.0       11.7     1000.2       14.4       14.2        0.0        0.0        0.0       0.00        8.9       0.23       0.00       51.6
1:20              223       11.3         85       14.2      100.0       12.5       17.0       11.7     1000.1       14.4       14.2        0.0        0.0        0.0       0.00        9.2       0.23       0.00       51.6
1:22              222        6.4         85       14.2      100.0       14.2       17.0       11.7     1000.1       14.4       14.2        0.0        0.0        0.0       0.00        9.3       0.23       0.00       51.6
1:24              212       11.3         85       14.2      100.0       12.5       17.0       11.7     1000.1       14.4       14.2        0.0        0.0        0.0       0.00        9.6       0.23       0.00       51.6
1:26              212       11.3         86       14.2      100.0       13.2       17.0       11.9     1000.0       14.4       14.2        0.0        0.0        0.0       0.00        9.9       0.23       0.00       51.6
1:28              215        6.4         86       14.2      100.0       14.2       17.0       11.9      999.9       14.4       14.2        0.0        0.0        0.0       0.00       10.0       0.23       0.00       51.6
1:30              214        4.8         86       14.2      100.0       14.2       17.0       11.9      999.8       14.4       14.2        0.0        0.0        0.0       0.00       10.2       0.23       0.00       51.6
1:32              214        6.4         86       14.2      100.0       14.2       17.0       11.9      999.7       14.4       14.2        0.0        0.0        0.0       0.00       10.3       0.27       0.00       51.6
1:34              206       11.3         86       14.2      100.0       13.1       17.0       11.9      999.5       14.4       14.2        0.0        0.0        0.0       0.00       10.5       0.27       0.00       51.6
1:36              191        9.7         86       14.1      100.0       14.1       16.9       11.8      999.5       14.4       14.1        0.0        0.0        0.0       0.00       10.8       0.27       0.00       51.6
1:38              195       11.3         86       14.1      100.2       12.4       16.9       11.8      999.5       14.4       14.1        0.2        0.2        0.2       0.00       11.1       0.27       0.00       51.8
1:40              191        6.4         86       14.1      100.4       14.1       16.9       11.8      999.5       14.4       14.1        0.4        0.4        0.4       6.40       11.3       0.27       0.00       52.0
1:42              213       11.3         86       14.1      100.4       14.1       16.9       11.8      999.4       14.4       14.1        0.4        0.4        0.4       3.40       11.6       0.27       0.00       52.0
1:44              210       11.3         86       14.0      100.6       14.0       16.8       11.7      999.3       14.4       14.0        0.6        0.6        0.6       3.40       11.8       0.27       0.00       52.2
1:46              204       11.3         87       14.0      100.6       11.6       16.9       11.9      999.3       14.4       14.0        0.6        0.6        0.6       3.00       12.0       0.31       0.00       52.2
1:48              198       12.9         87       14.0      100.6       12.3       16.9       11.9      999.2       14.4       14.0        0.6        0.6        0.6       2.00       12.3       0.31       0.00       52.2
1:50              209       14.5         87       13.9      100.6       10.8       16.8       11.8      999.2       14.4       13.9        0.6        0.6        0.6       1.60       12.6       0.31       0.00       52.2
1:52              202       12.9         87       13.9      100.8       10.7       16.8       11.8      999.3       14.4       13.9        0.8        0.8        0.8       1.60       12.9       0.31       0.00       52.4
1:54              202        8.0         87       13.9      100.8       13.9       16.8       11.8      999.2       14.4       13.9        0.8        0.8        0.8       1.60       13.1       0.31       0.00       52.4
1:56              194        8.0         87       13.9      100.8       13.9       16.8       11.8      999.2       14.4       13.8        0.8        0.8        0.8       1.60       13.3       0.31       0.00       52.4
1:58              188       11.3         88       13.8      100.8       13.8       16.8       11.9      999.2       14.4       13.8        0.8        0.8        0.8       1.40       13.6       0.31       0.00       52.4
2:00              186        9.7         88       13.8      100.8       13.8       16.8       11.9      999.2       14.4       13.8        0.8        0.8        0.8       1.20       13.9       0.31       0.00       52.4
2:02              194       14.5         88       13.8      100.8       13.8       16.8       11.9      999.1       14.4       13.8        0.8        0.8        0.8       1.00       14.2       0.35       0.00       52.4
2:04              186       11.3         88       13.8      100.8       11.3       16.7       11.8      999.0       14.4       13.8        0.8        0.8        0.8       0.80       14.4       0.35       0.00       52.4
2:06              194       11.3         88       13.8      100.8       13.8       16.7       11.8      998.9       14.4       13.8        0.8        0.8        0.8       0.80       14.7       0.35       0.00       52.4
2:08              193        8.0         88       13.8      100.8       13.8       16.7       11.8      998.8       14.4       13.8        0.8        0.8        0.8       0.00       15.0       0.35       0.00       52.4
2:10              187        9.7         89       13.8      100.8       13.8       16.8       12.0      998.8       14.4       13.8        0.8        0.8        0.8       0.00       15.2       0.35       0.00       52.4
2:12              188        8.0         89       13.7      100.8       13.7       16.8       11.9      998.7       14.4       13.7        0.8        0.8        0.8       0.00       15.4       0.35       0.00       52.4
2:14              201       12.9         88       13.7      100.8       13.7       16.7       11.8      998.6       14.4       13.7        0.8        0.8        0.8       0.00       15.7       0.35       0.00       52.4
2:16              195        9.7         89       13.7      100.8       12.7       16.8       11.9      998.6       14.4       13.7        0.8        0.8        0.8       0.00       15.9       0.40       0.00       52.4
2:18              194        6.4         89       13.7      100.8       13.7       16.7       11.9      998.5       14.4       13.7        0.8        0.8        0.8       0.00       16.1       0.40       0.00       52.4
2:20              189       11.3         89       13.7      100.8       13.7       16.8       11.9      998.5       14.4       13.7        0.8        0.8        0.8       0.00       16.3       0.40       0.00       52.4
2:22              196        9.7         89       13.7      100.8       12.0       16.8       11.9      998.5       14.4       13.7        0.8        0.8        0.8       0.00       16.6       0.40       0.00       52.4
2:24              194       11.3         89       13.7      100.8       11.2       16.7       11.9      998.5       14.4       13.7        0.8        0.8        0.8       0.00       16.8       0.40       0.00       52.4
2:26              200        6.4         89       13.7      100.8       13.7       16.7       11.9      998.5       14.4       13.7        0.8        0.8        0.8       0.00       17.0       0.40       0.00       52.4
2:28              204       14.5         89       13.7      100.8        9.7       16.7       11.9      998.4       14.4       13.7        0.8        0.8        0.8       0.00       17.2       0.40       0.00       52.4
2:30              194        6.4         89       13.7      100.8       13.7       16.8       11.9      998.4       14.4       13.7        0.8        0.8        0.8       0.00       17.5       0.40       0.00       52.4
2:32              200        8.0         89       13.7      100.8       12.6       16.7       11.9      998.4       14.4       13.7        0.8        0.8        0.8       0.00       17.7       0.44       0.00       52.4
2:34              206        8.0         90       13.7      101.2       12.7       16.9       12.1      998.5       14.4       13.7        1.2        1.2        1.2      15.60       18.0       0.44       0.00       52.8
2:36              205        8.0         90       13.7      101.4       12.7       16.9       12.1      998.3       14.4       13.7        1.4        1.4        1.4       5.40       18.1       0.44       0.00       53.0
2:38              178       17.7         90       13.7      101.6       10.5       16.9       12.1      998.3       14.4       13.7        1.6        1.6        1.6       8.60       18.4       0.44       0.00       53.2
2:40              194       16.1         90       13.7      101.6       10.5       16.8       12.1      998.3       14.4       13.7        1.6        1.6        1.6       4.00       18.7       0.44       0.00       53.2
2:42              200       16.1         90       13.7      102.2       11.2       16.8       12.1      998.3       14.4       13.7        2.2        2.2        2.2       9.20       19.1       0.44       0.00       53.8
2:44              207        9.7         90       13.7      102.4       12.0       16.9       12.1      998.3       14.4       13.7        2.4        2.4        2.4       5.80       19.3       0.44       0.00       54.0
2:46              199       11.3         90       13.7      102.4       12.7       16.9       12.1      998.3       14.4       13.7        2.4        1.8        2.4       5.60       19.6       0.49       0.00       54.0
2:48              198        9.7         90       13.7      102.4       12.0       16.9       12.1      998.2       14.4       13.7        2.4        1.8        2.4       2.80       19.8       0.49       0.00       54.0
2:50              196        8.0         91       13.7      102.4       13.7       16.9       12.3      998.2       14.4       13.7        2.4        1.8        2.4       2.00       20.0       0.49       0.00       54.0
2:52              194        9.7         91       13.7      102.4       13.7       16.9       12.3      998.3       14.4       13.7        2.4        1.8        2.4       1.40       20.3       0.49       0.00       54.0
2:54              201       12.9         91       13.7      102.4       13.7       16.9       12.3      998.3       14.4       13.7        2.4        1.8        2.4       1.20       20.6       0.49       0.00       54.0
2:56              214       12.9         91       13.7      102.4       10.5       16.9       12.3      998.3       14.4       13.7        2.4        1.8        2.4       1.00       20.9       0.49       0.00       54.0
2:58              212       12.9         91       13.7      102.6       11.2       16.9       12.3      998.2       14.4       13.7        2.6        2.0        2.6       0.80       21.1       0.49       0.00       54.2
3:00              216       14.5         91       13.7      102.8       12.7       16.9       12.3      998.3       14.4       13.7        2.8        2.2        2.8       9.60       21.4       0.49       0.00       54.4
3:02              205       14.5         91       13.7      103.2       13.7       16.9       12.3      998.2       14.4       13.7        3.2        2.4        3.2       9.00       21.7       0.53       0.00       54.8
3:04              190       14.5         91       13.7      103.4        9.8       16.9       12.3      998.2       14.4       13.7        3.4        2.6        3.4       7.20       22.0       0.53       0.00       55.0
3:06              188       17.7         91       13.7      103.6        9.8       16.9       12.3      998.2       14.4       13.7        3.6        2.8        3.6       5.80       22.4       0.53       0.00       55.2
3:08              202       14.5         91       13.7      103.6        9.8       16.9       12.3      998.1       14.4       13.7        3.6        2.8        3.6       4.80       22.7       0.53       0.00       55.2
3:10              199       14.5         91       13.7      103.8       12.0       16.9       12.3      998.1       14.4       13.7        3.8        3.0        3.8       3.80       23.1       0.53       0.00       55.4
3:12              220        6.4         91       13.7      104.0       13.7       16.9       12.3      998.1       14.4       13.7        4.0        3.2        4.0       7.20       23.4       0.53       0.00       55.6
3:14              249       20.9         91       13.7      104.4       11.2       16.9       12.3      998.3       14.4       13.7        4.4        3.6        4.4      11.00       23.8       0.53       0.00       56.0
3:16              259       25.7         91       13.6      104.4        8.1       16.8       12.1      998.3       14.4       13.6        4.4        3.6        4.4       4.20       24.3       0.58       0.00       56.0
3:18              246       14.5         90       13.2      104.6        9.2       16.4       11.6      998.3       14.4       13.2        4.6        3.8        4.6       2.80       24.7       0.58       0.00       56.2
3:20              265        9.7         90       12.9      104.6       12.9       16.0       11.3      998.3       14.4       12.9        4.6        3.8        4.6       2.80       25.1       0.58       0.00       56.2
3:22              269        4.8         90       12.8      104.6       12.8       15.9       11.2      998.3       14.4       12.8        4.6        3.8        4.6       2.60       25.3       0.58       0.00       56.2
3:24              273       20.9         91       12.7      104.8       10.9       15.9       11.3      998.3       14.4       12.7        4.8        4.0        4.8       2.20       25.6       0.58       0.00       56.4
3:26              267       12.9         91       12.6      104.8       10.7       15.8       11.2      998.4       14.4       12.6        4.8        4.0        4.8       2.20       26.1       0.58       0.00       56.4
3:28              288       19.3         91       12.6      104.8       12.6       15.8       11.2      998.3       14.4       12.6        4.8        4.0        4.8       2.20       26.4       0.58       0.00       56.4
3:30              282       16.1         91       12.6      105.0       10.7       15.8       11.1      998.3       14.4       12.6        5.0        4.2        5.0       1.80       26.8       0.58       0.00       56.6
3:32              268       19.3         91       12.5      105.0        6.8       15.7       11.1      998.4       14.4       12.5        5.0        4.2        5.0       1.80       27.2       0.63       0.00       56.6
3:34              284       20.9         91       12.4      105.0        6.7       15.7       11.0      998.4       14.4       12.4        5.0        4.2        5.0       1.80       27.7       0.63       0.00       56.6
3:36              268       12.9         91       12.4      105.2        9.7       15.6       11.0      998.5       14.4       12.4        5.2        4.4        5.2       1.80       28.1       0.63       0.00       56.8
3:38              271       20.9         91       12.4      105.2        7.5       15.6       11.0      998.4       14.4       12.3        5.2        4.4        5.2       1.80       28.6       0.63       0.00       56.8
3:40              269        9.7         91       12.3      105.4       12.3       15.5       10.9      998.3       14.4       12.3        5.4        4.6        5.4       3.20       29.0       0.63       0.00       57.0
3:42              305       19.3         91       12.3      105.6        6.5       15.5       10.9      998.3       14.4       12.3        5.6        4.8        5.6       6.40       29.3       0.63       0.00       57.2
3:44              284       16.1         91       12.2      105.6       12.2       15.4       10.8      998.4       14.4       12.2        5.6        4.8        5.6       4.60       29.7       0.63       0.00       57.2
3:46              285       14.5         91       12.2      105.8        7.9       15.4       10.7      998.4       14.4       12.2        5.8        3.4        5.8       2.80       29.9       0.70       0.00       57.4
3:48              274        9.7         91       12.1      105.8       10.2       15.3       10.7      998.6       14.4       12.1        5.8        3.4        5.8       2.80       30.2       0.70       0.00       57.4
3:50              271       27.4         91       12.1      106.0        4.9       15.3       10.6      998.9       14.4       12.1        6.0        3.6        6.0       3.00       30.7       0.70       0.00       57.6
3:52              279       25.7         91       11.9      106.0        9.2       15.2       10.5      999.0       14.4       11.9        6.0        3.6        6.0       3.00       31.3       0.70       0.00       57.6
3:54              267       19.3         91       11.8      106.2        6.7       15.0       10.4      999.1       14.4       11.8        6.2        3.8        6.2       3.80       31.8       0.70       0.00       57.8
3:56              285       20.9         91       11.6      106.4        5.7       14.8       10.2      999.1       14.4       11.6        6.4        4.0        6.4       6.00       32.3       0.70       0.00       58.0
3:58              283       17.7         91       11.4      106.4       11.4       14.7       10.0      999.1       14.4       11.4        6.4        4.0        6.4       3.60       32.9       0.70       0.00       58.0
4:00              276       12.9         91       11.4      106.6        9.4       14.6       10.0      999.1       14.4       11.4        6.6        4.2        6.6       3.00       33.3       0.70       0.00       58.2
4:02              293       22.5         91       11.3      107.0       10.1       14.5        9.9      999.1       14.4       11.3        7.0        4.2        7.0      11.60       33.9       0.76       0.00       58.6
4:04              292       24.1         91       11.2      107.2        3.8       14.4        9.8      999.0       14.4       11.2        7.2        4.4        7.2       7.00       34.3       0.76       0.00       58.8
4:06              290       20.9         91       11.2      107.4       11.2       14.4        9.8      998.8       14.4       11.2        7.4        4.6        7.4       4.60       34.8       0.76       0.00       59.0
4:08              284        4.8         91       11.1      107.4       11.1       14.3        9.6      998.8       14.4       11.1        7.4        4.6        7.4       4.00       35.2       0.76       0.00       59.0
4:10              310       11.3         91       11.0      107.6       11.0       14.2        9.6      998.6       14.4       11.0        7.6        4.8        7.6       3.40       35.5       0.76       0.00       59.2
4:12              283        9.7         91       10.9      107.6        8.9       14.2        9.5      998.6       14.4       10.9        7.6        4.8        7.6       3.20       35.7       0.76       0.00       59.2
4:14              281        4.8         91       10.9      107.8       10.9       14.1        9.5      998.3       14.4       10.9        7.8        5.0        7.8       2.80       35.9       0.76       0.00       59.4
4:16              290        6.4         91       10.9      107.8       10.9       14.1        9.5      998.3       14.4       10.9        7.8        3.4        7.8       2.80       36.0       0.84       0.00       59.4
4:18              300       12.9         91       10.8      107.8       10.8       14.0        9.4      998.3       14.4       10.8        7.8        3.4        7.8       2.20       36.3       0.84       0.00       59.4
4:20              307        8.0         91       10.8      107.8       10.8       14.0        9.4      998.3       14.4       10.8        7.8        3.4        7.8       1.60       36.5       0.84       0.00       59.4
4:22              298        8.0         91       10.7      108.0       10.7       13.9        9.3      998.2       14.4       10.7        8.0        3.6        8.0       1.40       36.7       0.84       0.00       59.6
4:24              298        8.0         91       10.7      108.0       10.7       13.9        9.3      998.0       14.4       10.7        8.0        3.6        8.0       1.40       36.9       0.84       0.00       59.6
4:26              313        4.8         91       10.7      108.0       10.7       13.9        9.3      997.8       14.4       10.7        8.0        3.6        8.0       1.40       37.1       0.84       0.00       59.6
4:28              323       12.9         91       10.7      108.0        7.0       13.9        9.3      997.6       14.4       10.6        8.0        3.6        8.0       1.40       37.2       0.84       0.00       59.6
4:30              322        3.2         91       10.7      108.0       10.7       13.9        9.3      997.4       14.4       10.6        8.0        3.6        8.0       1.40       37.3       0.84       0.00       59.6
4:32              323        9.7         91       10.7      108.0        8.6       13.9        9.3      997.3       14.4       10.6        8.0        3.0        8.0       1.00       37.4       0.91       0.00       59.6
4:34              317        6.4         91       10.6      108.0       10.6       13.8        9.2      997.8       14.4       10.6        8.0        3.0        8.0       1.00       37.6       0.91       0.00       59.6
4:36              285        6.4         91       10.6      108.0       10.6       13.8        9.2      998.2       14.4       10.6        8.0        3.0        8.0       0.80       37.7       0.91       0.00       59.6
4:38              284       11.3         91       10.6      108.0       10.6       13.8        9.2      998.3       14.4       10.6        8.0        3.0        8.0       0.00       37.9       0.91       0.00       59.6
4:40              271        4.8         91       10.6      108.0       10.6       13.8        9.2      998.2       14.4       10.6        8.0        3.0        8.0       0.00       38.1       0.91       0.00       59.6
4:42              271       11.3         91       10.6      108.0       10.6       13.8        9.2      998.3       14.4       10.6        8.0        3.0        8.0       0.00       38.3       0.91       0.00       59.6
4:44              261       14.5         91       10.5      108.0        8.4       13.7        9.1      998.3       14.4       10.5        8.0        3.0        8.0       0.00       38.4       0.91       0.00       59.6
4:46              261        6.4         91       10.5      108.0       10.5       13.7        9.1      998.3       14.4       10.5        8.0        2.4        8.0       0.00       38.6       0.99       0.00       59.6
4:48              266        6.4         91       10.5      108.0       10.5       13.7        9.1      998.4       14.4       10.4        8.0        2.4        8.0       0.00       38.7       0.99       0.00       59.6
4:50              265        6.4         91       10.5      108.0       10.5       13.7        9.1      998.5       14.4       10.4        8.0        2.4        8.0       0.00       38.9       0.99       0.00       59.6
4:52              265        6.4         91       10.5      108.0       10.5       13.7        9.1      998.5       14.4       10.4        8.0        2.4        8.0       0.00       39.0       0.99       0.00       59.6
4:54              263        3.2         91       10.5      108.0       10.5       13.7        9.1      998.5       14.4       10.4        8.0        2.4        8.0       0.00       39.2       0.99       0.00       59.6
4:56              261        4.8         91       10.5      108.0       10.5       13.7        9.1      998.4       14.4       10.4        8.0        2.4        8.0       0.00       39.3       0.99       0.00       59.6
4:58              261        4.8         91       10.5      108.0       10.5       13.7        9.1      998.6       14.4       10.4        8.0        2.4        8.0       0.00       39.5       0.99       0.00       59.6
5:00              259       11.3         91       10.5      108.0       10.5       13.7        9.1      998.7       14.4       10.4        8.0        2.4        8.0       0.00       39.7       0.99       0.00       59.6
5:02              259        9.7         91       10.5      108.0        8.4       13.7        9.1      998.8       14.4       10.4        8.0        1.4        8.0       0.00       39.8       1.07       0.00       59.6
5:04              256        8.0         91       10.5      108.0       10.5       13.7        9.1      998.8       14.4       10.4        8.0        1.4        8.0       0.00       40.0       1.07       0.00       59.6
5:06              254        4.8         91       10.5      108.0       10.5       13.7        9.1      998.8       14.4       10.4        8.0        1.4        8.0       0.00       40.2       1.07       0.00       59.6
5:08              254        3.2         91       10.5      108.0       10.5       13.7        9.1      998.8       14.4       10.4        8.0        1.4        8.0       0.00       40.4       1.07       0.00       59.6
5:10              254        6.4         91       10.6      108.0       10.6       13.8        9.2      999.0       14.4       10.4        8.0        1.4        8.0       0.00       40.5       1.07       0.00       59.6
5:12              254        4.8         91       10.6      108.0       10.6       13.8        9.2      999.1       14.4       10.4        8.0        1.4        8.0       0.00       40.6       1.07       0.00       59.6
5:14              253        6.4         91       10.6      108.0       10.6       13.8        9.2      999.1       14.4       10.4        8.0        1.4        8.0       0.00       40.8       1.07       0.00       59.6
5:16              250        4.8         91       10.5      108.0       10.5       13.7        9.1      999.2       14.4       10.4        8.0        0.2        8.0       0.00       40.9       1.15       0.00       59.6
5:18              250        6.4         91       10.5      108.0       10.5       13.7        9.1      999.2       14.4       10.4        8.0        0.2        8.0       0.00       41.1       1.15       0.00       59.6
5:20              240        4.8         91       10.5      108.0       10.5       13.7        9.1      999.2       14.4       10.4        8.0        0.2        8.0       0.00       41.2       1.15       0.00       59.6
5:22              236        4.8         91       10.5      108.0       10.5       13.7        9.1      999.2       14.4       10.4        8.0        0.2        8.0       0.00       41.4       1.15       0.00       59.6
5:24              236        3.2         91       10.5      108.0       10.5       13.7        9.1      999.3       14.4       10.4        8.0        0.2        8.0       0.00       41.5       1.15       0.00       59.6
5:26              235        4.8         91       10.5      108.0       10.5       13.7        9.1      999.2       14.4       10.4        8.0        0.2        8.0       0.00       41.6       1.15       0.00       59.6
5:28              236        4.8         91       10.5      108.0       10.5       13.7        9.1      999.3       14.4       10.4        8.0        0.2        8.0       0.00       41.7       1.15       0.00       59.6
5:30              238        9.7         91       10.5      108.0       10.5       13.7        9.1      999.2       14.4       10.4        8.0        0.2        8.0       0.00       41.8       1.15       0.00       59.6
5:31              239        6.4         91       10.5      108.0       10.5       13.7        9.1      999.5       14.4       10.4        8.0        0.0        8.0       0.00       42.0       1.23       0.00       59.6
5:34              242        4.8         91       10.4      108.0       10.4       13.7        9.0      999.5       14.4       10.4        8.0        0.0        8.0       0.00       42.1       1.23       0.00       59.6
5:36              241        6.4         91       10.4      108.0       10.4       13.7        9.0      999.5       14.4       10.4        8.0        0.0        8.0       0.00       42.3       1.23       0.00       59.6
5:38              232        3.2         91       10.4      108.0       10.4       13.7        9.0      999.6       14.4       10.4        8.0        0.0        8.0       0.00       42.4       1.23       0.00       59.6
5:40              232        6.4         91       10.4      108.0       10.4       13.7        9.0      999.6       14.4       10.4        8.0        0.0        8.0       0.00       42.5       1.23       0.00       59.6
5:42              236        6.4         91       10.4      108.0       10.4       13.6        9.0      999.6       14.4       10.4        8.0        0.0        8.0       0.00       42.7       1.23       0.00       59.6
5:44              239        8.0         91       10.3      108.0       10.3       13.5        8.9      999.8       14.4       10.3        8.0        0.0        8.0       0.00       42.9       1.23       0.00       59.6
5:46              238        9.7         91       10.3      108.0       10.3       13.5        8.9      999.9       14.4       10.3        8.0        0.0        8.0       0.00       43.1       1.31       0.00       59.6
5:48              240        8.0         91       10.3      108.0        9.1       13.5        8.9      999.9       14.4       10.3        8.0        0.0        8.0       0.00       43.2       1.31       0.00       59.6
5:50              244        8.0         91       10.3      108.0       10.3       13.5        8.9      999.8       14.4       10.3        8.0        0.0        8.0       0.00       43.4       1.31       0.00       59.6
5:52              244        3.2         91       10.3      108.0       10.3       13.5        8.9      999.9       14.4       10.3        8.0        0.0        8.0       0.00       43.5       1.31       0.00       59.6
5:54              244        6.4         91       10.3      108.0       10.3       13.5        8.9      999.9       14.4       10.3        8.0        0.0        8.0       0.00       43.6       1.31       0.00       59.6
5:56              244        6.4         91       10.3      108.0       10.3       13.5        8.9      999.9       14.4       10.3        8.0        0.0        8.0       0.00       43.8       1.31       0.00       59.6
5:58              245        6.4         91       10.3      108.0       10.3       13.5        8.9      999.9       14.4       10.2        8.0        0.0        8.0       0.00       43.9       1.31       0.00       59.6
6:00              244       11.3         91       10.2      108.0       10.2       13.4        8.8      999.9       14.4       10.2        8.0        0.0        8.0       0.00       44.0       1.31       0.00       59.6
6:02              245        4.8         91       10.2      108.0       10.2       13.4        8.8      999.9       14.4       10.2        8.0        0.0        8.0       0.00       44.2       1.39       0.00       59.6
6:04              248        4.8         91       10.2      108.0       10.2       13.4        8.8      999.9       14.4       10.2        8.0        0.0        8.0       0.00       44.3       1.39       0.00       59.6
6:06              248        6.4         91       10.2      108.0       10.2       13.4        8.8      999.8       14.4       10.2        8.0        0.0        8.0       0.00       44.4       1.39       0.00       59.6
6:08              250        8.0         91       10.2      108.0       10.2       13.4        8.8      999.8       14.4       10.2        8.0        0.0        8.0       0.00       44.6       1.39       0.00       59.6
6:10              250        4.8         91       10.2      108.0       10.2       13.4        8.8      999.9       14.4       10.2        8.0        0.0        8.0       0.00       44.6       1.39       0.00       59.6
6:12              251        6.4         91       10.2      108.0       10.2       13.4        8.8      999.9       14.4       10.2        8.0        0.0        8.0       0.00       44.8       1.39       0.00       59.6
6:14              250        4.8         91       10.2      108.0       10.2       13.4        8.8     1000.0       14.4       10.2        8.0        0.0        8.0       0.00       44.9       1.39       0.00       59.6
6:16              250        8.0         91       10.2      108.0        9.0       13.4        8.8     1000.0       14.4       10.2        8.0        0.0        8.0       0.00       45.1       1.47       0.00       59.6
6:18              250        6.4         91       10.2      108.0       10.2       13.4        8.8     1000.0       14.4       10.2        8.0        0.0        8.0       0.00       45.2       1.47       0.00       59.6
6:20              251        8.0         91       10.2      108.0        9.0       13.4        8.8     1000.1       14.4       10.2        8.0        0.0        8.0       0.00       45.4       1.47       0.00       59.6
6:22              246        4.8         91       10.2      108.0       10.2       13.4        8.8     1000.1       14.4       10.2        8.0        0.0        8.0       0.00       45.6       1.47       0.00       59.6
6:24              246        6.4         91       10.2      108.0       10.2       13.4        8.8     1000.2       14.4       10.2        8.0        0.0        8.0       0.00       45.7       1.47       0.00       59.6
6:26              252        4.8         91       10.2      108.0       10.2       13.4        8.8     1000.2       14.4       10.2        8.0        0.0        8.0       0.00       45.9       1.47       0.00       59.6
6:28              258        6.4         91       10.2      108.0       10.2       13.4        8.8     1000.2       14.4       10.2        8.0        0.0        8.0       0.00       46.0       1.47       0.00       59.6
6:30              252       11.3         91       10.3      108.0        7.3       13.5        8.9     1000.3       14.4       10.2        8.0        0.0        8.0       0.00       46.2       1.47       0.00       59.6
6:32              249        8.0         91       10.2      108.0       10.2       13.4        8.8     1000.4       14.4       10.2        8.0        0.0        8.0       0.00       46.5       1.55       0.00       59.6
6:34              252        8.0         91       10.3      108.0       10.3       13.5        8.9     1000.5       14.4       10.2        8.0        0.0        8.0       0.00       46.6       1.55       0.00       59.6
6:36              253        8.0         91       10.3      108.0       10.3       13.5        8.9     1000.6       14.4       10.2        8.0        0.0        8.0       0.00       46.8       1.55       0.00       59.6
6:38              245       11.3         91       10.3      108.0       10.3       13.5        8.9     1000.7       14.4       10.2        8.0        0.0        8.0       0.00       46.9       1.55       0.00       59.6
6:40              247        6.4         91       10.3      108.0       10.3       13.5        8.9     1000.7       14.4       10.2        8.0        0.0        8.0       0.00       47.1       1.55       0.00       59.6
6:42              246        8.0         91       10.3      108.0       10.3       13.5        8.9     1000.7       14.4       10.2        8.0        0.0        8.0       0.00       47.3       1.55       0.00       59.6
6:44              247        4.8         91       10.3      108.0       10.3       13.5        8.9     1000.8       14.4       10.2        8.0        0.0        8.0       0.00       47.4       1.55       0.00       59.6
6:46              246        8.0         91       10.3      108.0       10.3       13.5        8.9     1000.8       14.4       10.2        8.0        0.0        8.0       0.00       47.6       1.63       0.00       59.6
6:48              246        8.0         91       10.3      108.0       10.3       13.5        8.9     1000.9       14.4       10.2        8.0        0.0        8.0       0.00       47.7       1.63       0.00       59.6
6:50              246        4.8         91       10.3      108.0       10.3       13.5        8.9     1000.9       14.4       10.2        8.0        0.0        8.0       0.00       47.8       1.63       0.00       59.6
6:52              250        8.0         91       10.3      108.0       10.3       13.5        8.9     1000.9       14.4       10.2        8.0        0.0        8.0       0.00       48.0       1.63       0.00       59.6
6:54              250        4.8         91       10.3      108.0       10.3       13.5        8.9     1000.9       14.4       10.2        8.0        0.0        8.0       0.00       48.2       1.63       0.00       59.6
6:56              250        8.0         91       10.3      108.0       10.3       13.5        8.9     1001.0       14.4       10.2        8.0        0.0        8.0       0.00       48.3       1.63       0.00       59.6
6:58              250        6.4         91       10.3      108.0       10.3       13.5        8.9     1001.0       14.4       10.2        8.0        0.0        8.0       0.00       48.5       1.63       0.00       59.6
7:00              245        4.8         91       10.3      108.0       10.3       13.5        8.9     1001.1       14.4       10.2        8.0        0.0        8.0       0.00       48.7       1.63       0.00       59.6
7:02              245        6.4         91       10.3      108.0       10.3       13.5        8.9     1001.1       14.4       10.2        8.0        0.0        8.0       0.00       48.8       1.71       0.00       59.6
7:04              244        8.0         91       10.3      108.0       10.3       13.5        8.9     1001.2       14.4       10.2        8.0        0.0        8.0       0.00       48.9       1.71       0.00       59.6
7:06              245        6.4         91       10.3      108.0       10.3       13.5        8.9     1001.2       14.4       10.2        8.0        0.0        8.0       0.00       49.1       1.71       0.00       59.6
7:08              251        8.0         91       10.3      108.0       10.3       13.5        8.9     1001.3       14.4       10.2        8.0        0.0        8.0       0.00       49.3       1.71       0.00       59.6
7:10              250        8.0         91       10.3      108.0       10.3       13.5        8.9     1001.4       14.4       10.2        8.0        0.0        8.0       0.00       49.5       1.71       0.00       59.6
7:12              250        3.2         91       10.3      108.0       10.3       13.5        8.9     1001.5       14.4       10.2        8.0        0.0        8.0       0.00       49.6       1.71       0.00       59.6
7:14              250       11.3         91       10.4      108.0        9.2       13.6        9.0     1001.6       14.4       10.2        8.0        0.0        8.0       0.00       49.8       1.71       0.00       59.6
7:16              249        6.4         91       10.4      108.0       10.4       13.6        9.0     1001.7       14.4       10.2        8.0        0.0        8.0       0.00       49.9       1.79       0.00       59.6
7:18              252       14.5         91       10.4      108.0        6.6       13.6        9.0     1001.4       14.4       10.2        8.0        0.0        8.0       0.00       50.1       1.79       0.00       59.6
7:20              253        6.4         91       10.4      108.0       10.4       13.6        9.0     1001.3       14.4       10.2        8.0        0.0        8.0       0.00       50.2       1.79       0.00       59.6
7:22              254        3.2         91       10.4      108.0       10.4       13.6        9.0     1001.4       14.4       10.2        8.0        0.0        8.0       0.00       50.3       1.79       0.00       59.6
7:24              254        8.0         91       10.4      108.0       10.4       13.7        9.0     1001.5       14.4       10.2        8.0        0.0        8.0       0.00       50.5       1.79       0.00       59.6
7:26              256        6.4         91       10.5      108.0       10.5       13.7        9.1     1001.5       14.4       10.2        8.0        0.0        8.0       0.00       50.6       1.79       0.00       59.6
7:28              257        8.0         91       10.5      108.0       10.5       13.7        9.1     1001.4       14.4       10.2        8.0        0.0        8.0       0.00       50.7       1.79       0.00       59.6
7:30              261        6.4         91       10.6      108.0       10.6       13.8        9.2     1001.5       14.4       10.2        8.0        0.0        8.0       0.00       50.9       1.79       0.00       59.6
7:32              263        3.2         91       10.7      108.0       10.7       13.9        9.3     1001.4       14.4       10.2        8.0        0.0        8.0       0.00       51.0       1.87       0.00       59.6
7:34              262        3.2         91       10.7      108.0       10.7       13.9        9.3     1001.4       14.4       10.2        8.0        0.0        8.0       0.00       51.2       1.87       0.00       59.6
7:36              260        9.7         91       10.7      108.0       10.7       13.9        9.3     1001.4       14.4       10.2        8.0        0.0        8.0       0.00       51.5       1.87       0.00       59.6
7:38              261        6.4         91       10.8      108.0       10.8       14.0        9.4     1001.5       14.4       10.2        8.0        0.0        8.0       0.00       51.6       1.87       0.00       59.6
7:40              266        3.2         91       10.8      108.0       10.8       14.0        9.4     1001.5       14.4       10.2        8.0        0.0        8.0       0.00       51.8       1.87       0.00       59.6
7:42              251        6.4         90       10.9      108.0       10.9       14.0        9.3     1001.4       14.4       10.2        8.0        0.0        8.0       0.00       52.0       1.87       0.00       59.6
7:44              267        9.7         90       10.9      108.0       10.9       14.0        9.3     1001.6       14.4       10.2        8.0        0.0        8.0       0.00       52.3       1.87       0.00       59.6
7:46              257       11.3         90       10.9      108.0        9.7       14.1        9.4     1001.5       14.4       10.2        8.0        0.0        8.0       0.00       52.5       1.94       0.00       59.6
7:48              257        6.4         90       11.0      108.0       11.0       14.1        9.4     1001.6       14.4       10.2        8.0        0.0        8.0       0.00       52.7       1.94       0.00       59.6
7:50              277        9.7         89       11.0      108.0       11.0       14.1        9.3     1001.6       14.4       10.2        8.0        0.0        8.0       0.00       53.0       1.94       0.00       59.6
7:52              277        6.4         89       11.1      108.0       11.1       14.1        9.3     1001.6       14.4       10.2        8.0        0.0        8.0       0.00       53.1       1.94       0.00       59.6
7:54              263       11.3         89       11.2      108.0       11.2       14.2        9.4     1001.6       14.4       10.2        8.0        0.0        8.0       0.00       53.3       1.94       0.00       59.6
7:56              267        6.4         88       11.2      108.0       11.2       14.2        9.3     1001.6       14.4       10.2        8.0        0.0        8.0       0.00       53.4       1.94       0.00       59.6
7:58              272       12.9         88       11.2      108.0        9.2       14.2        9.3     1001.6       14.4       10.2        8.0        0.0        8.0       0.00       53.7       1.94       0.00       59.6
8:00              270        9.7         88       11.2      108.0       11.2       14.2        9.3     1001.6       14.4       10.2        8.0        0.0        8.0       0.00       53.9       1.94       0.00       59.6
8:02              254       14.5         87       11.3      108.0        8.5       14.2        9.3     1001.6       14.4       10.2        8.0        0.0        8.0       0.00       54.1       2.01       0.00       59.6
8:04              281       14.5         86       11.4      108.0        8.6       14.2        9.1     1001.7       14.4       10.2        8.0        0.0        8.0       0.00       54.4       2.01       0.00       59.6
8:06              279       11.3         86       11.4      108.0        9.4       14.2        9.1     1001.8       14.4       10.2        8.0        0.0        8.0       0.00       54.7       2.01       0.00       59.6
8:08              273        4.8         85       11.5      108.0       11.5       14.2        9.1     1001.8       14.4       10.2        8.0        0.0        8.0       0.00       54.9       2.01       0.00       59.6
8:10              275        4.8         86       11.6      108.0       11.6       14.4        9.4     1001.8       14.4       10.2        8.0        0.0        8.0       0.00       55.0       2.01       0.00       59.6
8:12              285        9.7         85       11.7      108.0       11.7       14.5        9.3     1001.7       14.4       10.2        8.0        0.0        8.0       0.00       55.2       2.01       0.00       59.6
8:14              247       11.3         84       11.7      108.0       11.7       14.4        9.1     1001.7       14.4       10.2        8.0        0.0        8.0       0.00       55.5       2.01       0.00       59.6
8:16              254       14.5         84       11.7      108.0        8.2       14.4        9.1     1001.8       14.4       10.2        8.0        0.0        8.0       0.00       55.8       2.07       0.00       59.6
8:18              269       12.9         82       11.7      108.0        9.0       14.2        8.8     1001.8       14.4       10.2        8.0        0.0        8.0       0.00       56.1       2.07       0.00       59.6
8:20              256       16.1         83       11.8      108.0        6.7       14.4        9.0     1001.8       14.4       10.2        8.0        0.0        8.0       0.00       56.4       2.07       0.00       59.6
8:22              244       20.9         82       11.8      108.0        6.7       14.3        8.8     1001.7       14.4       10.2        8.0        0.0        8.0       0.00       56.8       2.07       0.00       59.6
8:24              275       11.3         81       11.8      108.0        9.1       14.3        8.7     1001.9       14.4       10.2        8.0        0.0        8.0       0.00       57.2       2.07       0.00       59.6
8:26              261       19.3         80       11.8      108.0        7.5       14.2        8.5     1001.9       14.4       10.2        8.0        0.0        8.0       0.00       57.5       2.07       0.00       59.6
8:28              317       20.9         79       11.9      108.0       10.7       14.2        8.4     1001.9       14.4       10.2        8.0        0.0        8.0       0.00       58.0       2.07       0.00       59.6
8:30              290       17.7         77       11.9      108.0        6.5       14.1        8.0     1001.9       14.4       10.2        8.0        0.0        8.0       0.00       58.4       2.07       0.00       59.6
8:32              246        8.0         76       12.0      108.0       12.0       14.1        7.9     1001.9       14.4       10.2        8.0        0.0        8.0       0.00       58.7       2.14       0.00       59.6
8:34              267       19.3         77       12.1      108.0       10.2       14.2        8.2     1001.9       14.4       10.2        8.0        0.0        8.0       0.00       59.0       2.14       0.00       59.6
8:36              279       16.1         77       12.2      108.0        9.5       14.3        8.3     1001.9       14.4       10.2        8.0        0.0        8.0       0.00       59.2       2.14       0.00       59.6
8:38              306       19.3         77       12.2      108.0        7.3       14.4        8.3     1001.9       14.4       10.2        8.0        0.0        8.0       0.00       59.6       2.14       0.00       59.6
8:40              288       17.7         73       12.2      108.0        8.8       14.1        7.5     1001.9       14.4       10.2        8.0        0.0        8.0       0.00       60.1       2.14       0.00       59.6
8:42              267        4.8         73       12.2      108.0       12.2       14.1        7.5     1001.9       14.4       10.2        8.0        0.0        8.0       0.00       60.4       2.14       0.00       59.6
8:44              263       20.9         74       12.3      108.0        7.0       14.2        7.8     1002.0       14.4       10.2        8.0        0.0        8.0       0.00       60.6       2.14       0.00       59.6
8:46              275       16.1         72       12.3      108.0        9.7       14.1        7.4     1002.0       14.4       10.2        8.0        0.0        8.0       0.00       61.1       2.20       0.00       59.6
8:48              279       14.5         70       12.3      108.0       10.4       13.9        7.0     1002.0       14.4       10.2        8.0        0.0        8.0       0.00       61.6       2.20       0.00       59.6
8:50              246       16.1         70       12.3      108.0        8.1       13.9        7.0     1002.0       14.4       10.2        8.0        0.0        8.0       0.00       61.9       2.20       0.00       59.6
8:52              265       12.9         71       12.3      108.0       10.4       14.0        7.2     1001.9       14.4       10.2        8.0        0.0        8.0       0.00       62.2       2.20       0.00       59.6
8:54              268       11.3         72       12.4      108.0       12.4       14.2        7.5     1002.0       14.4       10.2        8.0        0.0        8.0       0.00       62.5       2.20       0.00       59.6
8:56              277        6.4         72       12.5      108.0       12.5       14.3        7.6     1002.0       14.4       10.2        8.0        0.0        8.0       0.00       62.6       2.20       0.00       59.6
8:58              236       14.5         72       12.6      108.0        8.5       14.4        7.7     1002.0       14.4       10.2        8.0        0.0        8.0       0.00       62.8       2.20       0.00       59.6
9:00              271       16.1         70       12.7      108.0       10.9       14.4        7.4     1001.9       14.4       10.2        8.0        0.0        8.0       0.00       63.3       2.20       0.00       59.6
9:02              283       12.9         69       12.7      108.0       12.7       14.3        7.2     1002.0       14.4       10.2        8.0        0.0        8.0       0.00       63.5       2.25       0.00       59.6
9:04              277        6.4         70       12.8      108.0       12.8       14.5        7.5     1002.0       14.4       10.2        8.0        0.0        8.0       0.00       63.8       2.25       0.00       59.6
9:06              280       20.9         70       12.8      108.0        8.0       14.5        7.5     1002.0       14.4       10.2        8.0        0.0        8.0       0.00       64.0       2.25       0.00       59.6
9:08              284       16.1         70       12.8      108.0        9.5       14.5        7.5     1002.0       14.4       10.2        8.0        0.0        8.0       0.00       64.4       2.25       0.00       59.6
9:10              280       11.3         68       12.8      108.0       12.8       14.3        7.1     1002.0       14.4       10.2        8.0        0.0        8.0       0.00       64.6       2.25       0.00       59.6
9:12              263       20.9         70       12.9      108.0        8.8       14.5        7.6     1002.0       14.4       10.2        8.0        0.0        8.0       0.00       64.8       2.25       0.00       59.6
9:14              300       11.3         67       12.9      108.0       10.4       14.4        7.0     1002.1       14.4       10.2        8.0        0.0        8.0       0.00       65.1       2.25       0.00       59.6
9:16              259       14.5         67       13.0      108.0       11.2       14.4        7.0     1002.0       14.4       10.2        8.0        0.0        8.0       0.00       65.4       2.30       0.00       59.6
9:18              272        9.7         67       13.1      108.0       13.1       14.5        7.1     1002.1       14.4       10.2        8.0        0.0        8.0       0.00       65.8       2.30       0.00       59.6
9:20              261       16.1         67       13.1      108.0       13.1       14.5        7.1     1002.1       14.4       10.2        8.0        0.0        8.0       0.00       66.2       2.30       0.00       59.6
9:22              263       16.1         68       13.1      108.0       11.2       14.6        7.3     1002.1       14.4       10.2        8.0        0.0        8.0       0.00       66.4       2.30       0.00       59.6
9:24              272       14.5         68       13.1      108.0       13.1       14.6        7.3     1002.2       14.4       10.2        8.0        0.0        8.0       0.00       66.7       2.30       0.00       59.6
9:26              264       14.5         67       13.2      108.0       13.2       14.6        7.2     1002.2       14.4       10.2        8.0        0.0        8.0       0.00       67.0       2.30       0.00       59.6
9:28              269       12.9         68       13.2      108.0       10.6       14.7        7.4     1002.2       14.4       10.2        8.0        0.0        8.0       0.00       67.3       2.30       0.00       59.6
9:30              276        9.7         67       13.2      108.0       13.2       14.7        7.2     1002.3       14.4       10.2        8.0        0.0        8.0       0.00       67.7       2.30       0.00       59.6
9:32              269        9.7         68       13.3      108.0       11.5       14.8        7.5     1002.3       14.4       10.2        8.0        0.0        8.0       0.00       67.9       2.35       0.00       59.6
9:34              266       16.1         65       13.3      108.0       10.8       14.6        6.9     1002.2       14.4       10.2        8.0        0.0        8.0       0.00       68.2       2.35       0.00       59.6
9:36              241       11.3         66       13.3      108.0       13.3       14.7        7.1     1002.4       14.4       10.2        8.0        0.0        8.0       0.00       68.5       2.35       0.00       59.6
9:38              269       16.1         66       13.3      108.0       13.3       14.7        7.1     1002.4       14.4       10.2        8.0        0.0        8.0       0.00       68.7       2.35       0.00       59.6
9:40              263       11.3         67       13.3      108.0       10.8       14.8        7.3     1002.4       14.4       10.2        8.0        0.0        8.0       0.00       69.0       2.35       0.00       59.6
9:42              256        9.7         65       13.3      108.0       12.3       14.6        6.9     1002.4       14.4       10.2        8.0        0.0        8.0       0.00       69.4       2.35       0.00       59.6
9:44              283       14.5         65       13.3      108.0       13.3       14.6        6.9     1002.5       14.4       10.2        8.0        0.0        8.0       0.00       69.7       2.35       0.00       59.6
9:46              273        9.7         64       13.4      108.0       11.6       14.6        6.7     1002.5       14.4       10.2        8.0        0.0        8.0       0.00       70.1       2.40       0.00       59.6
9:48              262       16.1         62       13.3      108.0       10.8       14.5        6.2     1002.6       14.4       10.2        8.0        0.0        8.0       0.00       70.5       2.40       0.00       59.6
9:50              256        8.0         62       13.3      108.0       13.3       14.5        6.2     1002.4       14.4       10.2        8.0        0.0        8.0       0.00       70.7       2.40       0.00       59.6
9:52              275        6.4         62       13.3      108.0       13.3       14.5        6.2     1002.4       14.4       10.2        8.0        0.0        8.0       0.00       70.9       2.40       0.00       59.6
9:54              219       11.3         64       13.4      108.0       11.6       14.6        6.7     1002.4       14.4       10.2        8.0        0.0        8.0       0.00       71.1       2.40       0.00       59.6
9:56              227        6.4         64       13.4      108.0       13.4       14.7        6.8     1002.5       14.4       10.2        8.0        0.0        8.0       0.00       71.3       2.40       0.00       59.6
9:58              207       16.1         65       13.5      108.0       13.5       14.8        7.1     1002.4       14.4       10.2        8.0        0.0        8.0       0.00       71.5       2.40       0.00       59.6
10:00             226        9.7         65       13.6      108.0       11.8       14.9        7.2     1002.5       14.4       10.2        8.0        0.0        8.0       0.00       71.8       2.40       0.00       59.6
10:02             252        6.4         65       13.7      108.0       13.7       15.0        7.2     1002.5       14.4       10.2        8.0        0.0        8.0       0.00       72.0       2.45       0.00       59.6
10:04             266       17.7         63       13.7      108.0        9.8       14.9        6.8     1002.5       14.4       10.2        8.0        0.0        8.0       0.00       72.4       2.45       0.00       59.6
10:06             300        8.0         62       13.8      108.0       12.7       14.9        6.6     1002.6       14.4       10.2        8.0        0.0        8.0       0.00       72.8       2.45       0.00       59.6
10:08             275       11.3         63       13.8      108.0       11.3       15.0        6.9     1002.5       14.4       10.2        8.0        0.0        8.0       0.00       73.1       2.45       0.00       59.6
10:10             259       12.9         63       13.8      108.0       11.4       15.0        6.9     1002.5       14.4       10.2        8.0        0.0        8.0       0.00       73.4       2.45       0.00       59.6
10:12             269        9.7         63       13.9      108.0       12.2       15.1        7.0     1002.5       14.4       10.2        8.0        0.0        8.0       0.00       73.6       2.45       0.00       59.6
10:14             265       14.5         61       14.0      108.0       10.1       15.1        6.6     1002.6       14.4       10.2        8.0        0.0        8.0       0.00       74.0       2.45       0.00       59.6
10:16             265       17.7         61       13.9      108.0       11.5       15.0        6.6     1002.7       14.4       10.2        8.0        0.0        8.0       0.00       74.3       2.49       0.00       59.6
10:18             290       24.1         63       13.8      108.0        8.1       15.0        6.9     1002.8       14.4       10.2        8.0        0.0        8.0       0.00       74.6       2.49       0.00       59.6
10:20             286       20.9         63       13.7      108.0        8.4       14.9        6.8     1003.0       14.4       10.2        8.0        0.0        8.0       0.00       75.1       2.49       0.00       59.6
10:22             292       22.5         68       13.4      108.2        8.8       15.0        7.7     1003.1       14.4       10.2        8.2        0.2        8.2       0.00       75.7       2.49       0.00       59.8
10:24             307        6.4         70       12.9      108.2       12.9       14.6        7.6     1003.0       14.4       10.2        8.2        0.2        8.2       0.00       76.0       2.49       0.00       59.8
10:26             285       11.3         72       12.6      108.4       10.0       14.4        7.7     1003.0       14.4       10.2        8.4        0.4        8.4       4.00       76.2       2.49       0.00       60.0
10:28             304        6.4         74       12.4      108.4       12.4       14.3        7.9     1003.0       14.4       10.2        8.4        0.4        8.4       3.40       76.4       2.49       0.00       60.0
10:30             311        4.8         75       12.3      108.4       12.3       14.3        8.0     1003.0       14.4       10.2        8.4        0.4        8.4       2.20       76.5       2.49       0.00       60.0
10:32             298        6.4         76       12.3      108.4       12.3       14.3        8.2     1003.0       14.4       10.2        8.4        0.4        8.4       1.60       76.7       2.55       0.00       60.0
10:34             298        4.8         77       12.3      108.4       12.3       14.5        8.4     1002.9       14.4       10.2        8.4        0.4        8.4       1.20       76.9       2.55       0.00       60.0
10:36             305       12.9         77       12.3      108.4       12.3       14.5        8.4     1002.8       14.4       10.2        8.4        0.4        8.4       1.00       77.1       2.55       0.00       60.0
10:38             303        6.4         77       12.4      108.4       12.4       14.6        8.5     1002.7       14.4       10.2        8.4        0.4        8.4       0.80       77.2       2.55       0.00       60.0
10:40             305        4.8         76       12.5      108.4       12.5       14.6        8.4     1002.6       14.4       10.2        8.4        0.4        8.4       0.80       77.4       2.55       0.00       60.0
10:42             261       20.9         76       12.6      108.4        7.8       14.7        8.5     1002.6       14.4       10.2        8.4        0.4        8.4       0.00       77.8       2.55       0.00       60.0
10:44             266       14.5         73       12.7      108.4       12.7       14.5        8.0     1002.8       14.4       10.2        8.4        0.4        8.4       0.00       78.1       2.55       0.00       60.0
10:46             265        4.8         72       12.7      108.4       12.7       14.5        7.8     1002.7       14.4       10.2        8.4        0.4        8.4       0.00       78.3       2.61       0.00       60.0
10:48             263        6.4         74       12.9      108.4       12.9       14.9        8.4     1002.7       14.4       10.2        8.4        0.4        8.4       0.00       78.5       2.61       0.00       60.0
10:50             279       17.7         73       13.1      108.4        8.4       15.0        8.4     1002.7       14.4       10.2        8.4        0.4        8.4       0.00       78.7       2.61       0.00       60.0
10:52             241       17.7         70       13.2      108.4        8.1       14.9        7.9     1002.8       14.4       10.2        8.4        0.4        8.4       0.00       79.0       2.61       0.00       60.0
10:54             232        8.0         67       13.2      108.4       13.2       14.7        7.2     1002.7       14.4       10.2        8.4        0.4        8.4       0.00       79.4       2.61       0.00       60.0
10:56             205       16.1         67       13.3      108.4       11.5       14.7        7.3     1002.6       14.4       10.2        8.4        0.4        8.4       0.00       79.6       2.61       0.00       60.0
10:58             259        6.4         65       13.4      108.4       13.4       14.7        7.0     1002.9       14.4       10.2        8.4        0.4        8.4       0.00       80.0       2.61       0.00       60.0
11:00             259        6.4         66       13.5      108.4       13.5       14.9        7.3     1002.6       14.4       10.2        8.4        0.4        8.4       0.00       80.1       2.61       0.00       60.0
11:02             269        9.7         64       13.6      108.4       13.6       14.9        6.9     1002.7       14.4       10.2        8.4        0.4        8.4       0.00       80.3       2.65       0.00       60.0
11:04             270       17.7         62       13.7      108.4       13.7       14.8        6.5     1002.7       14.4       10.2        8.4        0.4        8.4       0.00       80.6       2.65       0.00       60.0
11:06             265       11.3         63       13.7      108.4       11.2       14.9        6.8     1002.7       14.4       10.2        8.4        0.4        8.4       0.00       80.9       2.65       0.00       60.0
11:08             267       19.3         62       13.6      108.4        8.2       14.7        6.5     1002.9       14.4       10.2        8.4        0.4        8.4       0.00       81.3       2.65       0.00       60.0
11:10             282       29.0         62       13.5      108.4        5.8       14.6        6.4     1003.1       14.4       10.2        8.4        0.4        8.4       0.00       82.0       2.65       0.00       60.0
11:11             292       29.0         64       12.9      108.4        5.0       14.1        6.3     1003.3       14.4       10.2        8.4        0.4        8.4       0.00       82.8       2.65       0.00       60.0
11:14             336        8.0         70       12.3      108.4       12.3       13.9        7.0     1003.2       14.4       10.2        8.4        0.4        8.4       0.00       83.3       2.65       0.00       60.0
11:16             321        8.0         73       11.8      108.4       10.7       13.7        7.2     1003.2       14.4       10.2        8.4        0.4        8.4       0.00       83.8       2.71       0.00       60.0
11:18             311       17.7         74       11.4      108.4        7.8       13.3        6.9     1003.2       14.4       10.2        8.4        0.4        8.4       0.00       84.1       2.71       0.00       60.0
11:20             326        6.4         76       11.1      108.4       11.1       13.2        7.0     1003.3       14.4       10.2        8.4        0.4        8.4       0.00       84.3       2.71       0.00       60.0
11:22             317        3.2         77       10.9      108.6       10.9       13.1        7.1     1003.2       14.4       10.2        8.6        0.6        8.6       0.00       84.5       2.71       0.00       60.2
11:24             325        4.8         79       10.9      108.8       10.9       13.2        7.4     1003.1       14.4       10.2        8.8        0.8        8.8       5.60       84.6       2.71       0.00       60.4
11:26             325        3.2         79       10.8      108.8       10.8       13.1        7.3     1003.0       14.4       10.2        8.8        0.8        8.8       3.00       84.7       2.71       0.00       60.4
11:28             325        3.2         79       10.7      108.8       10.7       13.0        7.2     1003.0       14.4       10.2        8.8        0.8        8.8       2.00       84.7       2.71       0.00       60.4
11:30             325        8.0         79       10.8      108.8       10.8       13.1        7.3     1003.0       14.4       10.2        8.8        0.8        8.8       1.40       84.8       2.71       0.00       60.4
11:32             324        4.8         81       10.8      108.8       10.8       13.3        7.7     1002.9       14.4       10.2        8.8        0.4        8.8       1.20       84.9       2.79       0.00       60.4
11:34             324        8.0         81       10.9      108.8       10.9       13.4        7.8     1002.9       14.4       10.2        8.8        0.4        8.8       1.00       85.1       2.79       0.00       60.4
11:36             322        4.8         80       11.1      108.8       11.1       13.4        7.7     1002.9       14.4       10.2        8.8        0.4        8.8       0.80       85.2       2.79       0.00       60.4
11:38             321        4.8         80       11.2      108.8       11.2       13.6        7.9     1002.9       14.4       10.2        8.8        0.4        8.8       0.80       85.3       2.79       0.00       60.4
11:40             321        6.4         80       11.4      108.8       11.4       13.8        8.1     1002.9       14.4       10.2        8.8        0.4        8.8       0.00       85.4       2.79       0.00       60.4
11:42             292        8.0         80       11.7      108.8       11.7       14.0        8.3     1002.8       14.4       10.2        8.8        0.4        8.8       0.00       85.6       2.79       0.00       60.4
11:44             309       12.9         79       11.9      108.8       10.7       14.2        8.4     1002.8       14.4       10.2        8.8        0.4        8.8       0.00       85.7       2.79       0.00       60.4
11:46             268       14.5         78       12.2      108.8        8.7       14.4        8.4     1002.7       14.4       10.2        8.8        0.4        8.8       0.00       85.9       2.85       0.00       60.4
11:48             252       11.3         76       12.3      108.8       12.3       14.4        8.2     1002.6       14.4       10.2        8.8        0.4        8.8       0.00       86.2       2.85       0.00       60.4
11:50             262        1.6         74       12.5      108.8       12.5       14.4        8.0     1002.6       14.4       10.2        8.8        0.4        8.8       0.00       86.3       2.85       0.00       60.4
11:52             269        6.4         74       12.7      108.8       12.7       14.6        8.2     1002.5       14.4       10.2        8.8        0.4        8.8       0.00       86.4       2.85       0.00       60.4
11:54             238        4.8         74       12.9      108.8       12.9       14.9        8.4     1002.5       14.4       10.2        8.8        0.4        8.8       0.00       86.6       2.85       0.00       60.4
11:56             264        3.2         73       13.2      108.8       13.2       15.1        8.5     1002.5       14.4       10.2        8.8        0.4        8.8       0.00       86.8       2.85       0.00       60.4
11:58             265       11.3         73       13.4      108.8       13.4       15.2        8.7     1002.5       14.4       10.2        8.8        0.4        8.8       0.00       87.1       2.85       0.00       60.4
12:00             267       16.1         70       13.6      108.8       11.0       15.2        8.2     1002.4       14.4       10.2        8.8        0.4        8.8       0.00       87.3       2.85       0.00       60.4
12:02             263       14.5         68       13.8      108.8       13.8       15.3        8.0     1002.6       14.4       10.2        8.8        0.4        8.8       0.00       87.6       2.90       0.00       60.4
12:04             277        4.8         67       14.0      108.8       14.0       15.4        8.0     1002.5       14.4       10.2        8.8        0.4        8.8       0.00       87.9       2.90       0.00       60.4
12:06             273        1.6         67       14.3      108.8       14.3       15.7        8.2     1002.5       14.4       10.2        8.8        0.4        8.8       0.00       88.0       2.90       0.00       60.4
12:08             266        4.8         65       14.5      108.8       14.5       15.8        8.0     1002.5       14.5       10.2        8.8        0.4        8.8       0.00       88.2       2.90       0.00       60.4
12:10             289        6.4         65       14.6      108.8       14.6       15.9        8.1     1002.4       14.6       10.2        8.8        0.4        8.8       0.00       88.4       2.90       0.00       60.4
12:12             264        6.4         66       14.8      108.8       14.8       16.2        8.5     1002.4       14.8       10.2        8.8        0.4        8.8       0.00       88.5       2.90       0.00       60.4
12:14             264        6.4         63       14.8      108.8       14.8       16.0        7.9     1002.4       14.8       10.2        8.8        0.4        8.8       0.00       88.7       2.90       0.00       60.4
12:16             264       17.7         62       14.8      108.8       11.8       16.0        7.6     1002.5       14.8       10.2        8.8        0.4        8.8       0.00       89.1       2.93       0.00       60.4
12:18             270       22.5         60       14.8      108.8        9.7       15.8        7.1     1002.4       14.8       10.2        8.8        0.4        8.8       0.00       89.5       2.93       0.00       60.4
12:20             297        8.0         61       14.7      108.8       14.7       15.8        7.3     1002.6       14.8       10.2        8.8        0.4        8.8       0.00       89.9       2.93       0.00       60.4
12:22             284       16.1         61       14.6      108.8       14.6       15.7        7.2     1002.8       14.8       10.2        8.8        0.4        8.8       0.00       90.4       2.93       0.00       60.4
12:24             329       25.7         61       14.6      108.8        8.0       15.6        7.1     1002.8       14.8       10.2        8.8        0.4        8.8       0.00       90.9       2.93       0.00       60.4
12:26             277       27.4         61       14.2      108.8        7.1       15.2        6.8     1002.8       14.8       10.2        8.8        0.4        8.8       0.00       91.4       2.93       0.00       60.4
12:28             309       12.9         63       13.8      108.8       13.8       15.0        6.9     1003.0       14.8       10.2        8.8        0.4        8.8       0.00       91.9       2.93       0.00       60.4
12:30             296       14.5         65       13.4      108.8       10.9       14.7        7.0     1003.0       14.8       10.2        8.8        0.4        8.8       0.00       92.4       2.93       0.00       60.4
12:32             315        6.4         66       13.1      108.8       13.1       14.4        6.9     1003.0       14.8       10.2        8.8        0.0        8.8       0.00       92.7       2.98       0.00       60.4
12:34             295       14.5         66       12.7      108.8       12.7       14.0        6.5     1003.0       14.8       10.2        8.8        0.0        8.8       0.00       93.1       2.98       0.00       60.4
12:36             285        9.7         66       12.4      108.8       12.4       13.8        6.2     1003.0       14.8       10.2        8.8        0.0        8.8       0.00       93.5       2.98       0.00       60.4
12:38             328       16.1         67       12.3      108.8       12.3       13.7        6.3     1003.0       14.8       10.2        8.8        0.0        8.8       0.00       93.8       2.98       0.00       60.4
12:40             309        8.0         67       12.2      108.8       12.2       13.7        6.3     1003.0       14.8       10.2        8.8        0.0        8.8       0.00       94.1       2.98       0.00       60.4
12:42             313        8.0         70       12.3      108.8       12.3       14.0        7.0     1003.0       14.8       10.2        8.8        0.0        8.8       0.00       94.3       2.98       0.00       60.4
12:44             296       11.3         70       12.4      108.8       11.3       14.1        7.1     1003.0       14.8       10.2        8.8        0.0        8.8       0.00       94.5       2.98       0.00       60.4
12:46             310        4.8         70       12.7      108.8       12.7       14.3        7.3     1003.0       14.8       10.2        8.8        0.0        8.8       0.00       94.7       3.03       0.00       60.4
12:48             258       19.3         69       12.8      108.8        7.1       14.4        7.2     1002.9       14.8       10.2        8.8        0.0        8.8       0.00       95.0       3.03       0.00       60.4
12:50             290       11.3         69       12.9      108.8       12.9       14.5        7.3     1003.0       14.8       10.2        8.8        0.0        8.8       0.00       95.2       3.03       0.00       60.4
12:52             284       12.9         69       13.0      108.8       10.4       14.6        7.5     1003.0       14.8       10.2        8.8        0.0        8.8       0.00       95.6       3.03       0.00       60.4
12:54             288       14.5         69       13.1      108.8       13.1       14.6        7.5     1002.9       14.8       10.2        8.8        0.0        8.8       0.00       95.8       3.03       0.00       60.4
12:56             293        4.8         69       13.2      108.8       13.2       14.7        7.6     1002.9       14.8       10.2        8.8        0.0        8.8       0.00       96.0       3.03       0.00       60.4
12:57             306       24.1         69       13.3      108.8        8.6       14.9        7.7     1003.0       14.8       10.2        8.8        0.0        8.8       0.00       96.3       3.03       0.00       60.4
13:00             294       16.1         64       13.4      108.8        8.8       14.7        6.8     1002.9       14.8       10.2        8.8        0.0        8.8       0.00       96.7       3.03       0.00       60.4
13:02             263       11.3         63       13.7      108.8       13.7       14.9        6.8     1002.9       14.8       10.2        8.8        0.0        8.8       0.00       97.2       3.08       0.00       60.4
13:04             315       12.9         63       13.8      108.8       10.6       15.0        6.9     1002.8       14.8       10.2        8.8        0.0        8.8       0.00       97.5       3.08       0.00       60.4
13:06             271        3.2         62       14.0      108.8       14.0       15.1        6.8     1002.9       14.8       10.2        8.8        0.0        8.8       0.00       97.7       3.08       0.00       60.4
13:08             274        6.4         62       14.1      108.8       14.1       15.2        6.9     1002.7       14.8       10.2        8.8        0.0        8.8       0.00       97.9       3.08       0.00       60.4
13:10             274        6.4         62       14.2      108.8       14.2       15.3        7.1     1002.6       14.8       10.2        8.8        0.0        8.8       0.00       97.9       3.08       0.00       60.4
13:12             271       11.3         59       14.4      108.8       12.7       15.3        6.5     1002.7       14.8       10.2        8.8        0.0        8.8       0.00       98.2       3.08       0.00       60.4
13:14             243       20.9         57       14.6      108.8       11.6       15.4        6.2     1002.7       14.8       10.2        8.8        0.0        8.8       0.00       98.6       3.08       0.00       60.4
13:16             276       27.4         55       14.8      108.8       11.1       15.5        5.9     1002.7       14.8       10.2        8.8        0.0        8.8       0.00       99.1       3.12       0.00       60.4
13:18             265       17.7         53       15.0      108.8       12.7       15.6        5.5     1002.9       15.0       10.2        8.8        0.0        8.8       0.00       99.7       3.12       0.00       60.4
13:20             281       33.8         51       14.9      108.8        8.2       15.4        4.9     1002.9       15.0       10.2        8.8        0.0        8.8       0.00      100.4       3.12       0.00       60.4
13:22             281       20.9         51       14.9      108.8       14.9       15.4        4.9     1002.9       15.0       10.2        8.8        0.0        8.8       0.00      100.7       3.12       0.00       60.4
13:24             273       16.1         51       15.0      108.8       12.0       15.5        5.0     1002.7       15.0       10.2        8.8        0.0        8.8       0.00      101.2       3.12       0.00       60.4
13:26             253       14.5         50       15.0      108.8       12.0       15.4        4.7     1002.8       15.0       10.2        8.8        0.0        8.8       0.00      101.7       3.12       0.00       60.4
13:28             269        9.7         51       15.1      108.8       13.4       15.6        5.0     1002.9       15.1       10.2        8.8        0.0        8.8       0.00      102.0       3.12       0.00       60.4
13:30             285        9.7         52       15.1      108.8       15.1       15.7        5.3     1002.8       15.1       10.2        8.8        0.0        8.8       0.00      102.2       3.12       0.00       60.4
13:32             250       14.5         52       15.2      108.8       11.5       15.7        5.4     1002.9       15.2       10.2        8.8        0.0        8.8       0.00      102.5       3.15       0.00       60.4
13:34             257       19.3         52       15.3      108.8       11.7       15.9        5.5     1002.8       15.3       10.2        8.8        0.0        8.8       0.00      103.0       3.15       0.00       60.4
13:36             269       27.4         50       15.4      108.8       13.8       15.9        5.1     1002.8       15.4       10.2        8.8        0.0        8.8       0.00      103.6       3.15       0.00       60.4
13:38             248       24.1         50       15.6      108.8       10.0       16.0        5.2     1002.9       15.6       10.2        8.8        0.0        8.8       0.00      103.9       3.15       0.00       60.4
13:40             246       24.1         48       15.6      108.8       11.5       16.0        4.6     1002.9       15.6       10.2        8.8        0.0        8.8       0.00      104.6       3.15       0.00       60.4
13:42             211       14.5         49       15.7      108.8       14.7       16.1        5.0     1002.9       15.7       10.2        8.8        0.0        8.8       0.00      105.1       3.15       0.00       60.4
13:44             263       19.3         49       15.7      108.8       12.1       16.1        5.0     1002.8       15.7       10.2        8.8        0.0        8.8       0.00      105.6       3.15       0.00       60.4
13:46             253       27.4         49       15.7      108.8        9.1       16.1        5.0     1002.9       15.7       10.2        8.8        0.0        8.8       0.00      106.0       3.17       0.00       60.4
13:48             248       32.2         47       15.7      108.8       11.3       16.0        4.4     1002.8       15.7       10.2        8.8        0.0        8.8       0.00      106.7       3.17       0.00       60.4
13:50             237       17.7         46       15.6      108.8       11.5       15.9        4.0     1002.9       15.7       10.2        8.8        0.0        8.8       0.00      107.4       3.17       0.00       60.4
13:52             288       25.7         48       15.7      108.8       12.8       16.0        4.7     1002.8       15.7       10.2        8.8        0.0        8.8       0.00      108.2       3.17       0.00       60.4
13:54             275       22.5         48       15.6      108.8       10.8       16.0        4.6     1002.9       15.7       10.2        8.8        0.0        8.8       0.00      108.6       3.17       0.00       60.4
13:56             262       16.1         49       15.6      108.8       15.6       16.0        4.9     1002.8       15.7       10.2        8.8        0.0        8.8       0.00      109.2       3.17       0.00       60.4
13:58             240       27.4         50       15.6      108.8       11.5       16.1        5.2     1002.8       15.7       10.2        8.8        0.0        8.8       0.00      109.7       3.17       0.00       60.4
14:00             275       22.5         51       15.6      108.8       12.7       16.1        5.5     1002.7       15.7       10.2        8.8        0.0        8.8       0.00      110.2       3.17       0.00       60.4
14:02             261       32.2         52       15.6      108.8        9.6       16.1        5.7     1002.9       15.7       10.2        8.8        0.0        8.8       0.00      110.8       3.20       0.00       60.4
14:04             253       29.0         53       15.5      108.8        9.2       16.1        6.0     1002.9       15.7       10.2        8.8        0.0        8.8       0.00      111.4       3.20       0.00       60.4
14:06             271       11.3         52       15.6      108.8       13.3       16.1        5.7     1002.8       15.7       10.2        8.8        0.0        8.8       0.00      111.9       3.20       0.00       60.4
14:08             241       22.5         51       15.6      108.8       10.8       16.1        5.5     1002.8       15.7       10.2        8.8        0.0        8.8       0.00      112.4       3.20       0.00       60.4
14:10             263       25.7         50       15.7      108.8       12.2       16.2        5.3     1002.8       15.7       10.2        8.8        0.0        8.8       0.00      112.9       3.20       0.00       60.4
14:12             274       24.1         49       15.8      108.8       11.3       16.2        5.1     1002.9       15.8       10.2        8.8        0.0        8.8       0.00      113.5       3.20       0.00       60.4
14:14             240       22.5         48       15.9      108.8       10.4       16.2        4.9     1002.8       15.9       10.2        8.8        0.0        8.8       0.00      113.9       3.20       0.00       60.4
14:16             264       32.2         45       15.9      108.8        9.8       16.1        4.0     1002.8       15.9       10.2        8.8        0.0        8.8       0.00      114.5       3.22       0.00       60.4
14:18             237       33.8         44       16.0      108.8       10.6       16.1        3.8     1002.8       16.0       10.2        8.8        0.0        8.8       0.00      115.2       3.22       0.00       60.4
14:20             271       38.6         43       16.1      108.8       13.2       16.2        3.5     1002.9       16.1       10.2        8.8        0.0        8.8       0.00      116.0       3.22       0.00       60.4
14:22             271       27.4         42       16.1      108.8       10.3       16.1        3.2     1003.0       16.1       10.2        8.8        0.0        8.8       0.00      116.6       3.22       0.00       60.4
14:24             271       20.9         43       16.1      108.8       11.7       16.2        3.5     1002.9       16.1       10.2        8.8        0.0        8.8       0.00      117.2       3.22       0.00       60.4
14:26             269       29.0         44       16.1      108.8       11.7       16.2        3.8     1003.0       16.1       10.2        8.8        0.0        8.8       0.00      118.0       3.22       0.00       60.4
14:28             252       27.4         45       15.9      108.8       10.4       16.1        4.0     1002.9       16.1       10.2        8.8        0.0        8.8       0.00      118.6       3.22       0.00       60.4
14:30             242       30.6         45       15.9      108.8        9.1       16.1        4.0     1002.9       16.1       10.2        8.8        0.0        8.8       0.00      119.2       3.22       0.00       60.4
14:32             266       20.9         45       15.9      108.8       13.7       16.1        4.0     1002.9       16.1       10.2        8.8        0.0        8.8       0.00      119.7       3.24       0.00       60.4
14:34             265       20.9         47       16.0      108.8       13.8       16.3        4.7     1002.9       16.1       10.2        8.8        0.0        8.8       0.00      120.1       3.24       0.00       60.4
14:36             265       11.3         46       16.1      108.8       16.1       16.4        4.5     1002.9       16.1       10.2        8.8        0.0        8.8       0.00      120.5       3.24       0.00       60.4
14:38             240       24.1         47       16.3      108.8       10.6       16.6        5.0     1002.9       16.3       10.2        8.8        0.0        8.8       0.00      120.9       3.24       0.00       60.4
14:39             258       17.7         45       16.3      108.8       12.0       16.5        4.3     1002.9       16.3       10.2        8.8        0.0        8.8       0.00      121.2       3.24       0.00       60.4
14:42             278       17.7         45       16.2      108.8       14.1       16.4        4.3     1002.9       16.3       10.2        8.8        0.0        8.8       0.00      121.7       3.24       0.00       60.4
14:44             217       19.3         44       16.1      108.8       12.1       16.3        3.9     1003.0       16.3       10.2        8.8        0.0        8.8       0.00      122.2       3.24       0.00       60.4
14:45             262       12.9         43       15.9      108.8       14.4       16.0        3.4     1002.9       16.3       10.2        8.8        0.0        8.8       0.00      122.7       3.26       0.00       60.4
14:48             279       29.0         44       15.8      108.8       11.4       16.0        3.6     1003.1       16.3       10.2        8.8        0.0        8.8       0.00      123.2       3.26       0.00       60.4
14:50             280       22.5         43       15.7      108.8       10.5       15.8        3.1     1002.9       16.3       10.2        8.8        0.0        8.8       0.00      123.8       3.26       0.00       60.4
14:51             300       22.5         44       15.6      108.8       10.1       15.8        3.4     1003.0       16.3       10.2        8.8        0.0        8.8       0.00      124.4       3.26       0.00       60.4
14:54             294       12.9         46       15.7      108.8       13.4       15.9        4.1     1003.0       16.3       10.2        8.8        0.0        8.8       0.00      124.9       3.26       0.00       60.4
14:56             250       22.5         46       15.8      108.8       10.3       16.0        4.2     1003.0       16.3       10.2        8.8        0.0        8.8       0.00      125.4       3.26       0.00       60.4
14:58             262       20.9         45       15.9      108.8       12.4       16.1        4.0     1003.0       16.3       10.2        8.8        0.0        8.8       0.00      126.0       3.26       0.00       60.4
15:00             268       14.5         46       15.9      108.8       13.7       16.1        4.3     1002.9       16.3       10.2        8.8        0.0        8.8       0.00      126.5       3.26       0.00       60.4
15:02             265       22.5         45       15.9      108.8       10.4       16.1        4.0     1003.0       16.3       10.2        8.8        0.0        8.8       0.00      127.1       3.28       0.00       60.4
15:04             244       19.3         47       15.9      108.8       13.7       16.2        4.6     1003.0       16.3       10.2        8.8        0.0        8.8       0.00      127.6       3.28       0.00       60.4
15:06             261       32.2         46       16.1      108.8       12.6       16.3        4.4     1003.1       16.3       10.2        8.8        0.0        8.8       0.00      128.2       3.28       0.00       60.4
15:08             238       22.5         46       16.0      108.8       10.9       16.2        4.4     1003.2       16.3       10.2        8.8        0.0        8.8       0.00      128.8       3.28       0.00       60.4
15:10             267       20.9         46       16.0      108.8       10.9       16.2        4.4     1003.1       16.3       10.2        8.8        0.0        8.8       0.00      129.4       3.28       0.00       60.4
15:12             259       16.1         46       16.0      108.8       16.0       16.2        4.4     1003.1       16.3       10.2        8.8        0.0        8.8       0.00      129.9       3.28       0.00       60.4
15:14             265       29.0         46       16.0      108.8       13.2       16.2        4.4     1003.1       16.3       10.2        8.8        0.0        8.8       0.00      130.5       3.28       0.00       60.4
15:16             284       24.1         46       16.0      108.8       12.5       16.2        4.4     1003.0       16.3       10.2        8.8        0.0        8.8       0.00      131.1       3.30       0.00       60.4
15:18             277       20.9         47       15.9      108.8       13.1       16.2        4.7     1003.2       16.3       10.2        8.8        0.0        8.8       0.00      131.6       3.30       0.00       60.4
15:20             288       24.1         47       15.9      108.8       10.4       16.2        4.6     1003.1       16.3       10.2        8.8        0.0        8.8       0.00      132.0       3.30       0.00       60.4
15:22             270       22.5         48       15.9      108.8       11.8       16.2        4.9     1003.1       16.3       10.2        8.8        0.0        8.8       0.00      132.5       3.30       0.00       60.4
15:23             241       22.5         49       16.0      108.8       11.6       16.4        5.3     1003.1       16.3       10.2        8.8        0.0        8.8       0.00      133.0       3.30       0.00       60.4
15:26             283       20.9         48       16.1      108.8       12.7       16.5        5.1     1003.1       16.3       10.2        8.8        0.0        8.8       0.00      133.6       3.30       0.00       60.4
15:28             254       14.5         48       16.1      108.8       12.6       16.4        5.1     1003.2       16.3       10.2        8.8        0.0        8.8       0.00      134.0       3.30       0.00       60.4
15:30             268       17.7         49       16.1      108.8       13.9       16.4        5.4     1003.1       16.3       10.2        8.8        0.0        8.8       0.00      134.5       3.30       0.00       60.4
15:32             290       30.6         48       16.0      108.8        9.6       16.3        5.0     1003.1       16.3       10.2        8.8        0.0        8.8       0.00      135.1       3.32       0.00       60.4
15:34             280       24.1         48       15.9      108.8       14.3       16.2        4.9     1003.1       16.3       10.2        8.8        0.0        8.8       0.00      135.7       3.32       0.00       60.4
15:35             271       24.1         48       15.8      108.8       10.0       16.2        4.9     1003.0       16.3       10.2        8.8        0.0        8.8       0.00      136.2       3.32       0.00       60.4
15:38             232       30.6         49       15.8      108.8       15.8       16.2        5.1     1003.1       16.3       10.2        8.8        0.0        8.8       0.00      136.7       3.32       0.00       60.4
15:40             254       20.9         49       15.8      108.8       13.0       16.2        5.1     1003.2       16.3       10.2        8.8        0.0        8.8       0.00      137.4       3.32       0.00       60.4
15:42             291       33.8         47       15.8      108.8        8.2       16.1        4.5     1003.2       16.3       10.2        8.8        0.0        8.8       0.00      138.1       3.32       0.00       60.4
15:44             248       24.1         48       15.8      108.8       13.6       16.2        4.9     1003.2       16.3       10.2        8.8        0.0        8.8       0.00      138.7       3.32       0.00       60.4
15:46             268       20.9         48       15.9      108.8       15.9       16.2        4.9     1003.2       16.3       10.2        8.8        0.0        8.8       0.00      139.3       3.34       0.00       60.4
15:48             283       38.6         48       15.9      108.8        7.9       16.3        5.0     1003.2       16.3       10.2        8.8        0.0        8.8       0.00      139.8       3.34       0.00       60.4
15:50             243       29.0         47       15.9      108.8       11.2       16.2        4.7     1003.2       16.3       10.2        8.8        0.0        8.8       0.00      140.6       3.34       0.00       60.4
15:52             246       22.5         47       15.8      108.8       13.6       16.1        4.5     1003.1       16.3       10.2        8.8        0.0        8.8       0.00      141.2       3.34       0.00       60.4
15:54             276       11.3         47       15.8      108.8       15.8       16.1        4.5     1003.2       16.3       10.2        8.8        0.0        8.8       0.00      141.7       3.34       0.00       60.4
15:56             214       37.0         46       15.9      108.8        9.1       16.1        4.3     1003.2       16.3       10.2        8.8        0.0        8.8       0.00      142.1       3.34       0.00       60.4
15:58             240       19.3         46       15.9      108.8       12.4       16.1        4.3     1003.2       16.3       10.2        8.8        0.0        8.8       0.00      142.7       3.34       0.00       60.4
16:00             263       29.0         46       15.9      108.8       11.8       16.1        4.3     1003.2       16.3       10.2        8.8        0.0        8.8       0.00      143.3       3.34       0.00       60.4
16:02             236       27.4         46       15.9      108.8       13.7       16.1        4.3     1003.2       16.3       10.2        8.8        0.0        8.8       0.00      143.9       3.37       0.00       60.4
16:04             254       20.9         46       15.8      108.8       12.3       16.1        4.2     1003.3       16.3       10.2        8.8        0.0        8.8       0.00      144.4       3.37       0.00       60.4
16:06             269       24.1         46       15.8      108.8       12.9       16.0        4.2     1003.3       16.3       10.2        8.8        0.0        8.8       0.00      145.1       3.37       0.00       60.4
16:08             248       22.5         46       15.8      108.8       10.3       16.0        4.2     1003.3       16.3       10.2        8.8        0.0        8.8       0.00      145.7       3.37       0.00       60.4
16:10             223       16.1         45       15.7      108.8       11.6       15.9        3.8     1003.3       16.3       10.2        8.8        0.0        8.8       0.00      146.3       3.37       0.00       60.4
16:12             250       25.7         45       15.7      108.8        9.5       15.9        3.8     1003.3       16.3       10.2        8.8        0.0        8.8       0.00      146.8       3.37       0.00       60.4
16:14             274       29.0         46       15.6      108.8       10.4       15.8        4.0     1003.3       16.3       10.2        8.8        0.0        8.8       0.00      147.2       3.37       0.00       60.4
16:16             254       24.1         45       15.5      108.8        9.6       15.7        3.6     1003.4       16.3       10.2        8.8        0.0        8.8       0.00      147.8       3.39       0.00       60.4
16:18             275       20.9         46       15.5      108.8       15.5       15.7        3.9     1003.4       16.3       10.2        8.8        0.0        8.8       0.00      148.4       3.39       0.00       60.4
16:20             260       14.5         46       15.5      108.8       15.5       15.7        3.9     1003.5       16.3       10.2        8.8        0.0        8.8       0.00      148.8       3.39       0.00       60.4
16:22             250       14.5         46       15.6      108.8       15.6       15.8        4.0     1003.5       16.3       10.2        8.8        0.0        8.8       0.00      149.3       3.39       0.00       60.4
16:24             219       16.1         47       15.7      108.8       15.7       16.0        4.4     1003.4       16.3       10.2        8.8        0.0        8.8       0.00      149.7       3.39       0.00       60.4
16:25             225       24.1         47       15.8      108.8       12.3       16.1        4.5     1003.4       16.3       10.2        8.8        0.0        8.8       0.00      150.1       3.39       0.00       60.4
16:28             259       20.9         47       15.8      108.8       14.2       16.1        4.5     1003.5       16.3       10.2        8.8        0.0        8.8       0.00      150.6       3.39       0.00       60.4
16:30             223       12.9         48       15.7      108.8       14.7       16.0        4.7     1003.6       16.3       10.2        8.8        0.0        8.8       0.00      151.0       3.39       0.00       60.4
16:32             246       14.5         49       15.6      108.8       14.7       16.0        4.9     1003.5       16.3       10.2        8.8        0.0        8.8       0.00      151.3       3.42       0.00       60.4
16:34             253       25.7         49       15.6      108.8       11.5       16.0        4.9     1003.5       16.3       10.2        8.8        0.0        8.8       0.00      151.7       3.42       0.00       60.4
16:36             235       17.7         51       15.6      108.8       13.3       16.1        5.5     1003.6       16.3       10.2        8.8        0.0        8.8       0.00      152.2       3.42       0.00       60.4
16:38             226       22.5         51       15.5      108.8       13.9       16.0        5.4     1003.7       16.3       10.2        8.8        0.0        8.8       0.00      152.7       3.42       0.00       60.4
16:40             232       17.7         52       15.4      108.8       10.9       16.0        5.6     1003.8       16.3       10.2        8.8        0.0        8.8       0.00      153.0       3.42       0.00       60.4
16:42             221       19.3         52       15.4      108.8       13.1       15.9        5.6     1003.8       16.3       10.2        8.8        0.0        8.8       0.00      153.5       3.42       0.00       60.4
16:44             233       19.3         52       15.3      108.8       14.4       15.9        5.5     1003.9       16.3       10.2        8.8        0.0        8.8       0.00      153.9       3.42       0.00       60.4
16:46             220       25.7         52       15.2      108.8       11.0       15.8        5.4     1003.8       16.3       10.2        8.8        0.0        8.8       0.00      154.5       3.45       0.00       60.4
16:48             230       22.5         54       15.2      108.8       10.3       15.9        6.0     1003.9       16.3       10.2        8.8        0.0        8.8       0.00      155.1       3.45       0.00       60.4
16:50             236        8.0         53       15.2      108.8       15.2       15.8        5.7     1003.9       16.3       10.2        8.8        0.0        8.8       0.00      155.5       3.45       0.00       60.4
16:52             261       29.0         53       15.1      108.8       10.8       15.7        5.6     1004.0       16.3       10.2        8.8        0.0        8.8       0.00      156.1       3.45       0.00       60.4
16:54             251       17.7         54       14.9      108.8       10.3       15.6        5.7     1004.0       16.3       10.2        8.8        0.0        8.8       0.00      156.5       3.45       0.00       60.4
16:56             265       22.5         54       14.9      108.8       13.2       15.5        5.7     1004.0       16.3       10.2        8.8        0.0        8.8       0.00      157.0       3.45       0.00       60.4
16:58             238       24.1         54       14.8      108.8       10.1       15.5        5.6     1004.0       16.3       10.2        8.8        0.0        8.8       0.00      157.6       3.45       0.00       60.4
17:00             240       22.5         54       14.8      108.8        9.0       15.5        5.6     1004.0       16.3       10.2        8.8        0.0        8.8       0.00      158.0       3.45       0.00       60.4
17:02             221       19.3         54       14.8      108.8       11.1       15.5        5.6     1004.0       16.3       10.2        8.8        0.0        8.8       0.00      158.4       3.48       0.00       60.4
17:04             246       17.7         53       14.8      108.8       12.4       15.4        5.3     1004.1       16.3       10.2        8.8        0.0        8.8       0.00      158.9       3.48       0.00       60.4
17:06             245       19.3         54       14.7      108.8        9.9       15.3        5.5     1004.0       16.3       10.2        8.8        0.0        8.8       0.00      159.4       3.48       0.00       60.4
17:08             222       12.9         55       14.6      108.8       12.9       15.3        5.7     1004.0       16.3       10.2        8.8        0.0        8.8       0.00      159.7       3.48       0.00       60.4
17:10             252        8.0         55       14.6      108.8       14.6       15.3        5.6     1004.0       16.3       10.2        8.8        0.0        8.8       0.00      159.9       3.48       0.00       60.4
17:12             252       19.3         56       14.6      108.8       10.2       15.3        5.9     1004.0       16.3       10.2        8.8        0.0        8.8       0.00      160.2       3.48       0.00       60.4
17:14             259       12.9         55       14.6      108.8       12.9       15.3        5.6     1004.1       16.3       10.2        8.8        0.0        8.8       0.00      160.7       3.48       0.00       60.4
17:16             240       17.7         56       14.5      108.8        9.7       15.3        5.8     1004.0       16.3       10.2        8.8        0.0        8.8       0.00      161.1       3.51       0.00       60.4
17:18             250       12.9         57       14.4      108.8       13.4       15.3        6.0     1004.0       16.3       10.2        8.8        0.0        8.8       0.00      161.5       3.51       0.00       60.4
17:20             269       22.5         57       14.4      108.8       10.0       15.2        6.0     1004.0       16.3       10.2        8.8        0.0        8.8       0.00      161.8       3.51       0.00       60.4
17:22             274       17.7         58       14.3      108.8       12.6       15.2        6.2     1004.1       16.3       10.2        8.8        0.0        8.8       0.00      162.3       3.51       0.00       60.4
17:24             268       25.7         59       14.2      108.8        9.4       15.2        6.3     1004.1       16.3       10.2        8.8        0.0        8.8       0.00      162.7       3.51       0.00       60.4
17:26             275       16.1         59       14.2      108.8       11.0       15.1        6.3     1004.2       16.3       10.2        8.8        0.0        8.8       0.00      163.1       3.51       0.00       60.4
17:28             267       20.9         60       14.1      108.8        8.5       15.1        6.5     1004.1       16.3       10.2        8.8        0.0        8.8       0.00      163.5       3.51       0.00       60.4
17:30             279       14.5         62       14.1      108.8       14.1       15.2        6.9     1004.2       16.3       10.2        8.8        0.0        8.8       0.00      163.9       3.51       0.00       60.4
17:32             275       16.1         62       14.1      108.8       11.0       15.2        6.9     1004.2       16.3       10.2        8.8        0.0        8.8       0.00      164.3       3.55       0.00       60.4
17:34             254       12.9         62       14.1      108.8       11.6       15.2        6.9     1004.2       16.3       10.2        8.8        0.0        8.8       0.00      164.8       3.55       0.00       60.4
17:36             265       22.5         62       13.9      108.8       11.4       15.0        6.7     1004.2       16.3       10.2        8.8        0.0        8.8       0.00      165.1       3.55       0.00       60.4
17:38             265       14.5         63       13.8      108.8       13.8       15.0        6.9     1004.2       16.3       10.2        8.8        0.0        8.8       0.00      165.5       3.55       0.00       60.4
17:40             252       17.7         63       13.7      108.8        9.8       14.9        6.8     1004.2       16.3       10.2        8.8        0.0        8.8       0.00      166.0       3.55       0.00       60.4
17:42             250       11.3         63       13.6      108.8       11.1       14.8        6.7     1004.2       16.3       10.2        8.8        0.0        8.8       0.00      166.3       3.55       0.00       60.4
17:44             249       14.5         64       13.6      108.8       13.6       14.9        6.9     1004.2       16.3       10.2        8.8        0.0        8.8       0.00      166.8       3.55       0.00       60.4
17:46             250       17.7         64       13.7      108.8       11.2       14.9        7.0     1004.2       16.3       10.2        8.8        0.0        8.8       0.00      167.2       3.60       0.00       60.4
17:48             263       11.3         63       13.7      108.8       13.7       14.9        6.8     1004.2       16.3       10.2        8.8        0.0        8.8       0.00      167.6       3.60       0.00       60.4
17:50             238       17.7         63       13.8      108.8       10.6       15.0        6.9     1004.2       16.3       10.2        8.8        0.0        8.8       0.00      167.9       3.60       0.00       60.4
17:52             253       14.5         62       13.8      108.8       13.8       15.0        6.7     1004.2       16.3       10.2        8.8        0.0        8.8       0.00      168.3       3.60       0.00       60.4
17:54             246       16.1         61       13.9      108.8       12.8       15.0        6.5     1004.3       16.3       10.2        8.8        0.0        8.8       0.00      168.7       3.60       0.00       60.4
17:56             260       12.9         61       14.0      108.8       14.0       15.1        6.6     1004.2       16.3       10.2        8.8        0.0        8.8       0.00      168.9       3.60       0.00       60.4
17:58             227       17.7         62       14.0      108.8       10.8       15.1        6.8     1004.3       16.3       10.2        8.8        0.0        8.8       0.00      169.1       3.60       0.00       60.4
18:00             237        8.0         61       13.9      108.8       12.9       15.0        6.6     1004.3       16.3       10.2        8.8        0.0        8.8       0.00      169.5       3.60       0.00       60.4
18:02             251        6.4         61       13.8      108.8       13.8       14.9        6.4     1004.3       16.3       10.2        8.8        0.0        8.8       0.00      169.8       3.64       0.00       60.4
18:04             258       11.3         62       13.7      108.8       13.7       14.8        6.6     1004.3       16.3       10.2        8.8        0.0        8.8       0.00      170.0       3.64       0.00       60.4
18:06             261       11.3         62       13.7      108.8       13.7       14.8        6.5     1004.4       16.3       10.2        8.8        0.0        8.8       0.00      170.3       3.64       0.00       60.4
18:08             248        8.0         63       13.6      108.8       13.6       14.7        6.7     1004.4       16.3       10.2        8.8        0.0        8.8       0.00      170.6       3.64       0.00       60.4
18:10             254        8.0         63       13.5      108.8       12.4       14.7        6.6     1004.5       16.3       10.2        8.8        0.0        8.8       0.00      170.8       3.64       0.00       60.4
18:12             256        8.0         64       13.4      108.8       13.4       14.6        6.7     1004.5       16.3       10.2        8.8        0.0        8.8       0.00      171.1       3.64       0.00       60.4
18:14             252        8.0         64       13.4      108.8       13.4       14.6        6.7     1004.5       16.3       10.2        8.8        0.0        8.8       0.00      171.3       3.64       0.00       60.4
18:15             242        4.8         65       13.3      108.8       13.3       14.6        6.9     1004.5       16.3       10.2        8.8        0.0        8.8       0.00      171.5       3.69       0.00       60.4
18:18             247        8.0         66       13.3      108.8       13.3       14.7        7.1     1004.5       16.3       10.2        8.8        0.0        8.8       0.00      171.7       3.69       0.00       60.4
18:20             246        8.0         67       13.3      108.8       12.2       14.7        7.3     1004.5       16.3       10.2        8.8        0.0        8.8       0.00      171.8       3.69       0.00       60.4
18:22             237       14.5         66       13.2      108.8       12.1       14.6        7.0     1004.5       16.3       10.2        8.8        0.0        8.8       0.00      172.1       3.69       0.00       60.4
18:24             259        9.7         66       13.1      108.8       13.1       14.5        6.9     1004.6       16.3       10.2        8.8        0.0        8.8       0.00      172.4       3.69       0.00       60.4
18:26             253        6.4         67       13.1      108.8       13.1       14.6        7.1     1004.6       16.3       10.2        8.8        0.0        8.8       0.00      172.6       3.69       0.00       60.4
18:28             240       17.7         68       13.1      108.8        8.0       14.6        7.3     1004.6       16.3       10.2        8.8        0.0        8.8       0.00      172.8       3.69       0.00       60.4
18:30             243       11.3         69       13.1      108.8       12.0       14.7        7.6     1004.6       16.3       10.2        8.8        0.0        8.8       0.00      173.0       3.69       0.00       60.4
18:32             247       11.3         69       13.0      108.8       13.0       14.6        7.5     1004.6       16.3       10.2        8.8        0.0        8.8       0.00      173.3       3.74       0.00       60.4
18:34             234        4.8         70       12.9      108.8       12.9       14.6        7.6     1004.6       16.3       10.2        8.8        0.0        8.8       0.00      173.5       3.74       0.00       60.4
18:35             236        6.4         70       12.9      108.8       12.9       14.6        7.6     1004.6       16.3       10.2        8.8        0.0        8.8       0.00      173.6       3.74       0.00       60.4
18:38             231        6.4         71       12.9      108.8       12.9       14.6        7.8     1004.6       16.3       10.2        8.8        0.0        8.8       0.00      173.8       3.74       0.00       60.4
18:40             221       11.3         70       12.8      108.8       12.8       14.5        7.5     1004.6       16.3       10.2        8.8        0.0        8.8       0.00      174.0       3.74       0.00       60.4
18:42             219       12.9         69       12.8      108.8       10.2       14.4        7.3     1004.7       16.3       10.2        8.8        0.0        8.8       0.00      174.3       3.74       0.00       60.4
18:44             242        6.4         69       12.8      108.8       12.8       14.4        7.3     1004.6       16.3       10.2        8.8        0.0        8.8       0.00      174.5       3.74       0.00       60.4
18:46             239       12.9         69       12.8      108.8       12.8       14.4        7.3     1004.7       16.3       10.2        8.8        0.0        8.8       0.00      174.7       3.80       0.00       60.4
18:48             238        6.4         69       12.8      108.8       12.8       14.4        7.3     1004.6       16.3       10.2        8.8        0.0        8.8       0.00      174.9       3.80       0.00       60.4
18:50             228        6.4         69       12.8      108.8       12.8       14.4        7.3     1004.7       16.3       10.2        8.8        0.0        8.8       0.00      175.1       3.80       0.00       60.4
18:52             238        6.4         69       12.8      108.8       12.8       14.4        7.3     1004.8       16.3       10.2        8.8        0.0        8.8       0.00      175.3       3.80       0.00       60.4
18:54             237        4.8         69       12.8      108.8       12.8       14.4        7.3     1004.8       16.3       10.2        8.8        0.0        8.8       0.00      175.5       3.80       0.00       60.4
18:56             246        1.6         69       12.8      108.8       12.8       14.4        7.3     1004.9       16.3       10.2        8.8        0.0        8.8       0.00      175.6       3.80       0.00       60.4
18:58             242        4.8         68       12.8      108.8       12.8       14.3        7.1     1004.9       16.3       10.2        8.8        0.0        8.8       0.00      175.8       3.80       0.00       60.4
19:00             227        8.0         68       12.8      108.8       11.7       14.3        7.1     1005.0       16.3       10.2        8.8        0.0        8.8       0.00      176.0       3.80       0.00       60.4
19:02             229       11.3         68       12.8      108.8       10.2       14.3        7.1     1005.0       16.3       10.2        8.8        0.0        8.8       0.00      176.2       3.85       0.00       60.4
19:04             229        9.7         68       12.8      108.8       12.8       14.3        7.1     1005.0       16.3       10.2        8.8        0.0        8.8       0.00      176.3       3.85       0.00       60.4
19:06             224        9.7         68       12.8      108.8       12.8       14.3        7.1     1005.0       16.3       10.2        8.8        0.0        8.8       0.00      176.6       3.85       0.00       60.4
19:08             236        9.7         68       12.9      108.8       12.9       14.4        7.1     1005.0       16.3       10.2        8.8        0.0        8.8       0.00      176.8       3.85       0.00       60.4
19:10             234        8.0         68       12.9      108.8       12.9       14.4        7.1     1005.0       16.3       10.2        8.8        0.0        8.8       0.00      177.0       3.85       0.00       60.4
19:12             232        6.4         68       12.8      108.8       12.8       14.3        7.1     1005.1       16.3       10.2        8.8        0.0        8.8       0.00      177.1       3.85       0.00       60.4
19:14             232        4.8         68       12.8      108.8       12.8       14.3        7.1     1005.1       16.3       10.2        8.8        0.0        8.8       0.00      177.3       3.85       0.00       60.4
19:16             226       11.3         69       12.8      108.8       11.7       14.4        7.3     1005.1       16.3       10.2        8.8        0.0        8.8       0.00      177.4       3.90       0.00       60.4
19:18             225        8.0         69       12.8      108.8       11.7       14.4        7.3     1005.1       16.3       10.2        8.8        0.0        8.8       0.00      177.6       3.90       0.00       60.4
19:20             221        9.7         69       12.8      108.8       11.7       14.4        7.3     1005.1       16.3       10.2        8.8        0.0        8.8       0.00      177.8       3.90       0.00       60.4
19:22             223        6.4         69       12.8      108.8       12.8       14.4        7.3     1005.2       16.3       10.2        8.8        0.0        8.8       0.00      178.0       3.90       0.00       60.4
19:24             223        8.0         69       12.8      108.8       12.8       14.4        7.2     1005.2       16.3       10.2        8.8        0.0        8.8       0.00      178.2       3.90       0.00       60.4
19:26             224        6.4         69       12.8      108.8       12.8       14.4        7.2     1005.3       16.3       10.2        8.8        0.0        8.8       0.00      178.3       3.90       0.00       60.4
19:28             225        3.2         69       12.8      108.8       12.8       14.4        7.2     1005.2       16.3       10.2        8.8        0.0        8.8       0.00      178.5       3.90       0.00       60.4
19:30             225        6.4         70       12.7      108.8       12.7       14.4        7.4     1005.2       16.3       10.2        8.8        0.0        8.8       0.00      178.6       3.90       0.00       60.4
19:32             225        4.8         69       12.7      108.8       12.7       14.3        7.2     1005.2       16.3       10.2        8.8        0.0        8.8       0.00      178.8       3.96       0.00       60.4
19:34             225        4.8         70       12.7      108.8       12.7       14.3        7.3     1005.2       16.3       10.2        8.8        0.0        8.8       0.00      178.9       3.96       0.00       60.4
19:36             225        6.4         70       12.7      108.8       12.7       14.3        7.3     1005.2       16.3       10.2        8.8        0.0        8.8       0.00      179.0       3.96       0.00       60.4
19:38             225        6.4         70       12.6      108.8       12.6       14.3        7.3     1005.2       16.3       10.2        8.8        0.0        8.8       0.00      179.1       3.96       0.00       60.4
19:40             225        4.8         70       12.6      108.8       12.6       14.3        7.3     1005.2       16.3       10.2        8.8        0.0        8.8       0.00      179.2       3.96       0.00       60.4
19:42             225        4.8         70       12.6      108.8       12.6       14.3        7.3     1005.2       16.3       10.2        8.8        0.0        8.8       0.00      179.4       3.96       0.00       60.4
19:44             225        6.4         71       12.6      108.8       12.6       14.3        7.4     1005.3       16.3       10.2        8.8        0.0        8.8       0.00      179.5       3.96       0.00       60.4
19:46             225        4.8         71       12.6      108.8       12.6       14.3        7.4     1005.3       16.3       10.2        8.8        0.0        8.8       0.00      179.6       4.01       0.00       60.4
19:48             225        4.8         71       12.5      108.8       12.5       14.2        7.4     1005.3       16.3       10.2        8.8        0.0        8.8       0.00      179.7       4.01       0.00       60.4
19:50             225        6.4         71       12.5      108.8       12.5       14.2        7.4     1005.4       16.3       10.2        8.8        0.0        8.8       0.00      179.8       4.01       0.00       60.4
19:52             225        4.8         71       12.4      108.8       12.4       14.2        7.3     1005.5       16.3       10.2        8.8        0.0        8.8       0.00      179.9       4.01       0.00       60.4
19:54             225        6.4         71       12.4      108.8       12.4       14.1        7.3     1005.5       16.3       10.2        8.8        0.0        8.8       0.00      180.0       4.01       0.00       60.4
19:56             225        6.4         72       12.4      108.8       12.4       14.2        7.5     1005.5       16.3       10.2        8.8        0.0        8.8       0.00      180.2       4.01       0.00       60.4
19:58             225        8.0         72       12.4      108.8       12.4       14.2        7.5     1005.5       16.3       10.2        8.8        0.0        8.8       0.00      180.3       4.01       0.00       60.4
20:00             225        6.4         72       12.3      108.8       12.3       14.1        7.4     1005.5       16.3       10.2        8.8        0.0        8.8       0.00      180.4       4.01       0.00       60.4
20:02             225        4.8         72       12.3      108.8       12.3       14.1        7.4     1005.6       16.3       10.2        8.8        0.0        8.8       0.00      180.5       4.07       0.00       60.4
20:04             225        3.2         73       12.3      108.8       12.3       14.1        7.6     1005.7       16.3       10.2        8.8        0.0        8.8       0.00      180.6       4.07       0.00       60.4
20:06             225        6.4         73       12.3      108.8       12.3       14.1        7.6     1005.7       16.3       10.2        8.8        0.0        8.8       0.00      180.7       4.07       0.00       60.4
20:08             225        6.4         73       12.2      108.8       12.2       14.1        7.5     1005.8       16.3       10.2        8.8        0.0        8.8       0.00      180.9       4.07       0.00       60.4
20:10             224        6.4         73       12.2      108.8       12.2       14.1        7.5     1005.9       16.3       10.2        8.8        0.0        8.8       0.00      181.0       4.07       0.00       60.4
20:12             223        3.2         74       12.2      108.8       12.2       14.1        7.7     1005.9       16.3       10.2        8.8        0.0        8.8       0.00      181.1       4.07       0.00       60.4
20:14             223        3.2         74       12.1      108.8       12.1       14.0        7.6     1005.9       16.3       10.2        8.8        0.0        8.8       0.00      181.3       4.07       0.00       60.4
20:16             221        6.4         74       12.1      108.8       12.1       14.0        7.6     1006.0       16.3       10.2        8.8        0.0        8.8       0.00      181.5       4.14       0.00       60.4
20:18             220        8.0         74       12.0      108.8       12.0       13.9        7.5     1006.1       16.3       10.2        8.8        0.0        8.8       0.00      181.6       4.14       0.00       60.4
20:20             220        6.4         75       12.0      108.8       12.0       14.0        7.7     1006.1       16.3       10.2        8.8        0.0        8.8       0.00      181.7       4.14       0.00       60.4
20:21             221        6.4         75       11.9      108.8       11.9       13.9        7.6     1006.1       16.3       10.2        8.8        0.0        8.8       0.00      181.9       4.14       0.00       60.4
20:24             223        9.7         75       11.9      108.8       11.9       13.9        7.6     1006.1       16.3       10.2        8.8        0.0        8.8       0.00      182.0       4.14       0.00       60.4
20:26             223        4.8         75       11.8      108.8       11.8       13.8        7.5     1006.1       16.3       10.2        8.8        0.0        8.8       0.00      182.2       4.14       0.00       60.4
20:28             225        8.0         75       11.8      108.8       10.6       13.8        7.5     1006.1       16.3       10.2        8.8        0.0        8.8       0.00      182.3       4.14       0.00       60.4
20:30             229        9.7         75       11.8      108.8       11.8       13.8        7.5     1006.3       16.3       10.2        8.8        0.0        8.8       0.00      182.5       4.14       0.00       60.4
20:32             227        4.8         75       11.8      108.8       11.8       13.8        7.5     1006.2       16.3       10.2        8.8        0.0        8.8       0.00      182.7       4.20       0.00       60.4
20:34             227        6.4         75       11.7      108.8       11.7       13.7        7.4     1006.2       16.3       10.2        8.8        0.0        8.8       0.00      182.8       4.20       0.00       60.4
20:36             227        8.0         76       11.7      108.8       11.7       13.8        7.6     1006.2       16.3       10.2        8.8        0.0        8.8       0.00      183.0       4.20       0.00       60.4
20:38             228        9.7         76       11.7      108.8       11.7       13.8        7.6     1006.3       16.3       10.2        8.8        0.0        8.8       0.00      183.2       4.20       0.00       60.4
20:40             227        8.0         76       11.7      108.8       10.6       13.8        7.6     1006.3       16.3       10.2        8.8        0.0        8.8       0.00      183.3       4.20       0.00       60.4
20:42             226        8.0         76       11.7      108.8       10.5       13.7        7.6     1006.4       16.3       10.2        8.8        0.0        8.8       0.00      183.5       4.20       0.00       60.4
20:44             227        6.4         76       11.7      108.8       11.7       13.7        7.6     1006.4       16.3       10.2        8.8        0.0        8.8       0.00      183.7       4.20       0.00       60.4
20:46             232        8.0         76       11.7      108.8       11.7       13.7        7.6     1006.5       16.3       10.2        8.8        0.0        8.8       0.00      183.9       4.27       0.00       60.4
20:48             229        6.4         76       11.6      108.8       11.6       13.7        7.5     1006.5       16.3       10.2        8.8        0.0        8.8       0.00      184.1       4.27       0.00       60.4
20:50             228        8.0         76       11.6      108.8       10.4       13.7        7.5     1006.5       16.3       10.2        8.8        0.0        8.8       0.00      184.3       4.27       0.00       60.4
20:52             238        4.8         76       11.6      108.8       11.6       13.7        7.5     1006.5       16.3       10.2        8.8        0.0        8.8       0.00      184.5       4.27       0.00       60.4
20:54             238       12.9         76       11.6      108.8       10.4       13.7        7.5     1006.5       16.3       10.2        8.8        0.0        8.8       0.00      184.7       4.27       0.00       60.4
20:56             240       12.9         76       11.6      108.8       11.6       13.7        7.5     1006.6       16.3       10.2        8.8        0.0        8.8       0.00      184.9       4.27       0.00       60.4
20:58             239        4.8         76       11.6      108.8       11.6       13.7        7.5     1006.5       16.3       10.2        8.8        0.0        8.8       0.00      185.0       4.27       0.00       60.4
21:00             239        6.4         76       11.6      108.8       11.6       13.7        7.5     1006.6       16.3       10.2        8.8        0.0        8.8       0.00      185.1       4.27       0.00       60.4
21:02             236        6.4         76       11.6      108.8       11.6       13.7        7.5     1006.6       16.3       10.2        8.8        0.0        8.8       0.00      185.3       4.33       0.00       60.4
21:04             234        8.0         76       11.6      108.8       11.6       13.7        7.5     1006.6       16.3       10.2        8.8        0.0        8.8       0.00      185.4       4.33       0.00       60.4
21:06             234        4.8         76       11.6      108.8       11.6       13.6        7.5     1006.7       16.3       10.2        8.8        0.0        8.8       0.00      185.6       4.33       0.00       60.4
21:08             229        9.7         76       11.6      108.8       10.4       13.6        7.5     1006.7       16.3       10.2        8.8        0.0        8.8       0.00      185.8       4.33       0.00       60.4
21:10             227        8.0         76       11.5      108.8       11.5       13.6        7.4     1006.6       16.3       10.2        8.8        0.0        8.8       0.00      186.0       4.33       0.00       60.4
21:12             226       11.3         76       11.5      108.8       11.5       13.6        7.4     1006.7       16.3       10.2        8.8        0.0        8.8       0.00      186.1       4.33       0.00       60.4
21:14             221        9.7         76       11.4      108.8       11.4       13.5        7.4     1006.7       16.3       10.2        8.8        0.0        8.8       0.00      186.3       4.33       0.00       60.4
21:16             221        6.4         76       11.4      108.8       11.4       13.4        7.3     1006.6       16.3       10.2        8.8        0.0        8.8       0.00      186.5       4.40       0.00       60.4
21:18             222        6.4         76       11.4      108.8       11.4       13.4        7.3     1006.7       16.3       10.2        8.8        0.0        8.8       0.00      186.7       4.40       0.00       60.4
21:20             223        9.7         76       11.3      108.8       10.1       13.4        7.3     1006.8       16.3       10.2        8.8        0.0        8.8       0.00      186.9       4.40       0.00       60.4
21:22             223        4.8         76       11.3      108.8       11.3       13.3        7.2     1006.8       16.3       10.2        8.8        0.0        8.8       0.00      187.1       4.40       0.00       60.4
21:24             223        6.4         77       11.2      108.8       11.2       13.4        7.3     1006.7       16.3       10.2        8.8        0.0        8.8       0.00      187.2       4.40       0.00       60.4
21:26             223        6.4         77       11.2      108.8       11.2       13.4        7.3     1006.8       16.3       10.2        8.8        0.0        8.8       0.00      187.4       4.40       0.00       60.4
21:28             223        6.4         77       11.2      108.8       11.2       13.3        7.3     1006.8       16.3       10.2        8.8        0.0        8.8       0.00      187.5       4.40       0.00       60.4
21:30             223        8.0         77       11.1      108.8        9.9       13.2        7.2     1006.9       16.3       10.2        8.8        0.0        8.8       0.00      187.6       4.40       0.00       60.4
21:32             223        6.4         77       11.1      108.8       11.1       13.2        7.2     1007.0       16.3       10.2        8.8        0.0        8.8       0.00      187.8       4.47       0.00       60.4
21:34             224        3.2         77       11.0      108.8       11.0       13.1        7.1     1006.9       16.3       10.2        8.8        0.0        8.8       0.00      188.0       4.47       0.00       60.4
21:36             221       11.3         78       10.9      108.8        8.1       13.1        7.3     1006.9       16.3       10.2        8.8        0.0        8.8       0.00      188.1       4.47       0.00       60.4
21:38             222        8.0         78       10.9      108.8       10.9       13.1        7.3     1006.9       16.3       10.2        8.8        0.0        8.8       0.00      188.3       4.47       0.00       60.4
21:40             223        8.0         78       10.9      108.8        9.7       13.1        7.2     1006.9       16.3       10.2        8.8        0.0        8.8       0.00      188.4       4.47       0.00       60.4
21:42             223        6.4         78       10.9      108.8       10.9       13.1        7.2     1006.9       16.3       10.2        8.8        0.0        8.8       0.00      188.6       4.47       0.00       60.4
21:44             223        4.8         78       10.8      108.8       10.8       13.0        7.2     1007.0       16.3       10.2        8.8        0.0        8.8       0.00      188.7       4.47       0.00       60.4
21:46             223        8.0         78       10.8      108.8       10.8       13.0        7.2     1007.0       16.3       10.2        8.8        0.0        8.8       0.00      188.9       4.55       0.00       60.4
21:48             224        6.4         78       10.8      108.8       10.8       13.0        7.2     1007.0       16.3       10.2        8.8        0.0        8.8       0.00      189.1       4.55       0.00       60.4
21:50             225        4.8         79       10.8      108.8       10.8       13.1        7.3     1007.1       16.3       10.2        8.8        0.0        8.8       0.00      189.2       4.55       0.00       60.4
21:52             225        8.0         79       10.7      108.8       10.7       13.0        7.2     1007.0       16.3       10.2        8.8        0.0        8.8       0.00      189.3       4.55       0.00       60.4
21:54             225        6.4         79       10.7      108.8       10.7       13.0        7.2     1007.0       16.3       10.2        8.8        0.0        8.8       0.00      189.5       4.55       0.00       60.4
21:56             229        4.8         79       10.7      108.8       10.7       13.0        7.2     1007.0       16.3       10.2        8.8        0.0        8.8       0.00      189.6       4.55       0.00       60.4
21:58             229        8.0         79       10.7      108.8       10.7       12.9        7.2     1007.1       16.3       10.2        8.8        0.0        8.8       0.00      189.8       4.55       0.00       60.4
22:00             229        6.4         79       10.7      108.8       10.7       12.9        7.2     1007.0       16.3       10.2        8.8        0.0        8.8       0.00      190.0       4.55       0.00       60.4
22:02             229        8.0         79       10.7      108.8       10.7       12.9        7.2     1007.0       16.3       10.2        8.8        0.0        8.8       0.00      190.1       4.62       0.00       60.4
22:04             231        8.0         79       10.6      108.8       10.6       12.9        7.1     1007.1       16.3       10.2        8.8        0.0        8.8       0.00      190.3       4.62       0.00       60.4
22:06             232        8.0         79       10.6      108.8       10.6       12.9        7.1     1007.1       16.3       10.2        8.8        0.0        8.8       0.00      190.4       4.62       0.00       60.4
22:08             232        6.4         80       10.6      108.8       10.6       13.0        7.3     1007.0       16.3       10.2        8.8        0.0        8.8       0.00      190.6       4.62       0.00       60.4
22:10             232        9.7         80       10.6      108.8        9.4       13.0        7.3     1007.0       16.3       10.2        8.8        0.0        8.8       0.00      190.8       4.62       0.00       60.4
22:12             234        4.8         80       10.6      108.8       10.6       13.0        7.3     1007.0       16.3       10.2        8.8        0.0        8.8       0.00      190.9       4.62       0.00       60.4
22:14             235        4.8         80       10.6      108.8       10.6       13.0        7.3     1006.9       16.3       10.2        8.8        0.0        8.8       0.00      191.1       4.62       0.00       60.4
22:16             235        4.8         80       10.6      108.8       10.6       13.0        7.3     1007.1       16.3       10.2        8.8        0.0        8.8       0.00      191.2       4.70       0.00       60.4
22:18             235        3.2         80       10.6      108.8       10.6       12.9        7.3     1007.0       16.3       10.2        8.8        0.0        8.8       0.00      191.4       4.70       0.00       60.4
22:20             238       11.3         80       10.6      108.8       10.6       12.9        7.3     1006.8       16.3       10.2        8.8        0.0        8.8       0.00      191.6       4.70       0.00       60.4
22:22             234        8.0         80       10.6      108.8       10.6       12.9        7.3     1006.9       16.3       10.2        8.8        0.0        8.8       0.00      191.7       4.70       0.00       60.4
22:24             236        6.4         80       10.5      108.8       10.5       12.8        7.2     1006.9       16.3       10.2        8.8        0.0        8.8       0.00      191.9       4.70       0.00       60.4
22:26             236        4.8         80       10.5      108.8       10.5       12.8        7.2     1006.9       16.3       10.2        8.8        0.0        8.8       0.00      192.0       4.70       0.00       60.4
22:28             238        8.0         80       10.5      108.8       10.5       12.8        7.2     1007.0       16.3       10.2        8.8        0.0        8.8       0.00      192.2       4.70       0.00       60.4
22:30             242        6.4         80       10.5      108.8       10.5       12.8        7.2     1007.1       16.3       10.2        8.8        0.0        8.8       0.00      192.4       4.70       0.00       60.4
22:32             244        6.4         80       10.5      108.8       10.5       12.8        7.2     1007.0       16.3       10.2        8.8        0.0        8.8       0.00      192.6       4.78       0.00       60.4
22:34             244        6.4         80       10.5      108.8       10.5       12.8        7.2     1007.1       16.3       10.2        8.8        0.0        8.8       0.00      192.8       4.78       0.00       60.4
22:36             246       12.9         80       10.4      108.8       10.4       12.8        7.1     1007.1       16.3       10.2        8.8        0.0        8.8       0.00      193.0       4.78       0.00       60.4
22:38             245        6.4         80       10.4      108.8       10.4       12.8        7.1     1007.2       16.3       10.2        8.8        0.0        8.8       0.00      193.2       4.78       0.00       60.4
22:40             245        6.4         80       10.4      108.8       10.4       12.8        7.1     1007.1       16.3       10.2        8.8        0.0        8.8       0.00      193.4       4.78       0.00       60.4
22:42             245        4.8         80       10.4      108.8       10.4       12.8        7.1     1007.2       16.3       10.2        8.8        0.0        8.8       0.00      193.6       4.78       0.00       60.4
22:44             246       11.3         80       10.4      108.8       10.4       12.8        7.1     1007.2       16.3       10.2        8.8        0.0        8.8       0.00      193.8       4.78       0.00       60.4
22:46             246        8.0         80       10.4      108.8        9.2       12.8        7.1     1007.4       16.3       10.2        8.8        0.0        8.8       0.00      194.0       4.86       0.00       60.4
22:48             246        8.0         80       10.4      108.8       10.4       12.8        7.1     1007.4       16.3       10.2        8.8        0.0        8.8       0.00      194.2       4.86       0.00       60.4
22:50             244       12.9         80       10.4      108.8       10.4       12.7        7.1     1007.4       16.3       10.2        8.8        0.0        8.8       0.00      194.5       4.86       0.00       60.4
22:52             252       11.3         80       10.4      108.8       10.4       12.7        7.1     1007.4       16.3       10.2        8.8        0.0        8.8       0.00      194.7       4.86       0.00       60.4
22:54             252        8.0         80       10.4      108.8       10.4       12.8        7.1     1007.5       16.3       10.2        8.8        0.0        8.8       0.00      194.9       4.86       0.00       60.4
22:56             258        9.7         80       10.4      108.8       10.4       12.8        7.1     1007.5       16.3       10.2        8.8        0.0        8.8       0.00      195.1       4.86       0.00       60.4
22:58             258       12.9         80       10.4      108.8       10.4       12.8        7.1     1007.6       16.3       10.2        8.8        0.0        8.8       0.00      195.4       4.86       0.00       60.4
23:00             254       14.5         80       10.5      108.8       10.5       12.8        7.2     1007.7       16.3       10.2        8.8        0.0        8.8       0.00      195.7       4.86       0.00       60.4
23:02             258        8.0         80       10.6      108.8       10.6       12.9        7.3     1007.6       16.3       10.2        8.8        0.0        8.8       0.00      196.0       4.94       0.00       60.4
23:04             266       14.5         80       10.6      108.8        8.6       13.0        7.3     1007.7       16.3       10.2        8.8        0.0        8.8       0.00      196.2       4.94       0.00       60.4
23:06             263        9.7         80       10.6      108.8        8.6       13.0        7.3     1007.7       16.3       10.2        8.8        0.0        8.8       0.00      196.4       4.94       0.00       60.4
23:08             260       11.3         80       10.7      108.8        8.6       13.0        7.4     1007.7       16.3       10.2        8.8        0.0        8.8       0.00      196.6       4.94       0.00       60.4
23:10             254       11.3         79       10.7      108.8       10.7       13.0        7.2     1007.7       16.3       10.2        8.8        0.0        8.8       0.00      196.9       4.94       0.00       60.4
23:12             257        8.0         79       10.7      108.8       10.7       13.0        7.2     1007.8       16.3       10.2        8.8        0.0        8.8       0.00      197.1       4.94       0.00       60.4
23:14             260       12.9         79       10.7      108.8       10.7       13.0        7.2     1007.8       16.3       10.2        8.8        0.0        8.8       0.00      197.3       4.94       0.00       60.4
23:16             261        6.4         79       10.7      108.8       10.7       13.0        7.2     1007.8       16.3       10.2        8.8        0.0        8.8       0.00      197.4       5.01       0.00       60.4
23:18             257        6.4         79       10.7      108.8       10.7       13.0        7.2     1007.9       16.3       10.2        8.8        0.0        8.8       0.00      197.6       5.01       0.00       60.4
23:20             257        6.4         79       10.7      108.8       10.7       13.0        7.2     1007.9       16.3       10.2        8.8        0.0        8.8       0.00      197.8       5.01       0.00       60.4
23:22             257        8.0         79       10.7      108.8        9.5       13.0        7.2     1007.7       16.3       10.2        8.8        0.0        8.8       0.00      198.0       5.01       0.00       60.4
23:24             257        4.8         79       10.7      108.8       10.7       13.0        7.2     1007.8       16.3       10.2        8.8        0.0        8.8       0.00      198.2       5.01       0.00       60.4
23:26             256        8.0         79       10.7      108.8       10.7       13.0        7.2     1007.8       16.3       10.2        8.8        0.0        8.8       0.00      198.4       5.01       0.00       60.4
23:28             254       11.3         79       10.7      108.8        7.9       13.0        7.2     1007.8       16.3       10.2        8.8        0.0        8.8       0.00      198.6       5.01       0.00       60.4
23:30             256        6.4         79       10.7      108.8       10.7       13.0        7.2     1007.7       16.3       10.2        8.8        0.0        8.8       0.00      198.8       5.01       0.00       60.4
23:32             256        4.8         79       10.7      108.8       10.7       13.0        7.2     1007.7       16.3       10.2        8.8        0.0        8.8       0.00      198.9       5.09       0.00       60.4
23:34             256        8.0         79       10.7      108.8       10.7       13.0        7.2     1007.7       16.3       10.2        8.8        0.0        8.8       0.00      199.1       5.09       0.00       60.4
23:36             256       11.3         79       10.7      108.8       10.7       13.0        7.2     1007.6       16.3       10.2        8.8        0.0        8.8       0.00      199.3       5.09       0.00       60.4
23:37             254        8.0         79       10.7      108.8       10.7       13.0        7.2     1007.7       16.3       10.2        8.8        0.0        8.8       0.00      199.4       5.09       0.00       60.4
23:40             254        8.0         79       10.7      108.8       10.7       13.0        7.2     1007.7       16.3       10.2        8.8        0.0        8.8       0.00      199.6       5.09       0.00       60.4
23:42             257        3.2         79       10.7      108.8       10.7       13.0        7.2     1007.6       16.3       10.2        8.8        0.0        8.8       0.00      199.7       5.09       0.00       60.4
23:44             257        4.8         79       10.7      108.8       10.7       12.9        7.2     1007.5       16.3       10.2        8.8        0.0        8.8       0.00      199.9       5.09       0.00       60.4
23:46             257        3.2         79       10.7      108.8       10.7       12.9        7.2     1007.4       16.3       10.2        8.8        0.0        8.8       0.00      200.0       5.16       0.00       60.4
23:48             257        4.8         79       10.6      108.8       10.6       12.9        7.1     1007.4       16.3       10.2        8.8        0.0        8.8       0.00      200.1       5.16       0.00       60.4
23:50             257        4.8         79       10.6      108.8       10.6       12.9        7.1     1007.4       16.3       10.2        8.8        0.0        8.8       0.00      200.2       5.16       0.00       60.4
23:52             257        3.2         79       10.6      108.8       10.6       12.8        7.1     1007.4       16.3       10.2        8.8        0.0        8.8       0.00      200.3       5.16       0.00       60.4
23:54             257        3.2         79       10.6      108.8       10.6       12.8        7.1     1007.4       16.3       10.2        8.8        0.0        8.8       0.00      200.4       5.16       0.00       60.4
23:56             257        4.8         80       10.5      108.8       10.5       12.8        7.2     1007.3       16.3       10.2        8.8        0.0        8.8       0.00      200.5       5.16       0.00       60.4
23:58             257        4.8         80       10.4      108.8       10.4       12.8        7.1     1007.5       16.3       10.2        8.8        0.0        8.8       0.00      200.6       5.16       0.00       60.4